<?xml version="1.0" encoding="UTF-8" standalone="no" ?>
<gpx xmlns="http://www.topografix.com/GPX/1/1" xmlns:xsi="http://www.w3.org/2001/XMLSchema-instance" xsi:schemaLocation="http://www.topografix.com/GPX/1/1 http://www.topografix.com/GPX/1/1/gpx.xsd" version="1.1" creator="VisuGPX - https://www.visugpx.com">
  <metadata>
    <name>ventoux DVA</name>
    <desc><![CDATA[enlever les parcours voiture]]></desc>
  </metadata>
  <trk>
    <name><![CDATA[VENTOUX DVA7-12-13M]]></name>
    <trkseg>
      <trkpt lat="43.95761" lon="5.02884">
        <ele>166.45</ele>
        <time>2013-11-23T13:57:59Z</time>
      </trkpt>
      <trkpt lat="43.95745" lon="5.02866">
        <ele>165.48</ele>
        <time>2013-11-23T13:58:01Z</time>
      </trkpt>
      <trkpt lat="43.9571" lon="5.0283">
        <ele>160.2</ele>
        <time>2013-11-23T13:58:05Z</time>
      </trkpt>
      <trkpt lat="43.95693" lon="5.02813">
        <ele>163.56</ele>
        <time>2013-11-23T13:58:07Z</time>
      </trkpt>
      <trkpt lat="43.95651" lon="5.02765">
        <ele>161.16</ele>
        <time>2013-11-23T13:58:12Z</time>
      </trkpt>
      <trkpt lat="43.95598" lon="5.02704">
        <ele>157.79</ele>
        <time>2013-11-23T13:58:18Z</time>
      </trkpt>
      <trkpt lat="43.95563" lon="5.02662">
        <ele>160.68</ele>
        <time>2013-11-23T13:58:23Z</time>
      </trkpt>
      <trkpt lat="43.95556" lon="5.02654">
        <ele>156.35</ele>
        <time>2013-11-23T13:58:24Z</time>
      </trkpt>
      <trkpt lat="43.95544" lon="5.02637">
        <ele>155.39</ele>
        <time>2013-11-23T13:58:26Z</time>
      </trkpt>
      <trkpt lat="43.95539" lon="5.02627">
        <ele>155.39</ele>
        <time>2013-11-23T13:58:27Z</time>
      </trkpt>
      <trkpt lat="43.95526" lon="5.02595">
        <ele>155.87</ele>
        <time>2013-11-23T13:58:30Z</time>
      </trkpt>
      <trkpt lat="43.95521" lon="5.02588">
        <ele>158.27</ele>
        <time>2013-11-23T13:58:31Z</time>
      </trkpt>
      <trkpt lat="43.95515" lon="5.02582">
        <ele>155.39</ele>
        <time>2013-11-23T13:58:32Z</time>
      </trkpt>
      <trkpt lat="43.95508" lon="5.02579">
        <ele>155.87</ele>
        <time>2013-11-23T13:58:33Z</time>
      </trkpt>
      <trkpt lat="43.95499" lon="5.02581">
        <ele>155.87</ele>
        <time>2013-11-23T13:58:34Z</time>
      </trkpt>
      <trkpt lat="43.95488" lon="5.02587">
        <ele>156.35</ele>
        <time>2013-11-23T13:58:35Z</time>
      </trkpt>
      <trkpt lat="43.95477" lon="5.02594">
        <ele>162.12</ele>
        <time>2013-11-23T13:58:36Z</time>
      </trkpt>
      <trkpt lat="43.95466" lon="5.026">
        <ele>157.79</ele>
        <time>2013-11-23T13:58:37Z</time>
      </trkpt>
      <trkpt lat="43.95373" lon="5.0264">
        <ele>157.79</ele>
        <time>2013-11-23T13:58:45Z</time>
      </trkpt>
      <trkpt lat="43.95244" lon="5.02669">
        <ele>158.75</ele>
        <time>2013-11-23T13:58:52Z</time>
      </trkpt>
      <trkpt lat="43.95051" lon="5.02711">
        <ele>159.72</ele>
        <time>2013-11-23T13:59:01Z</time>
      </trkpt>
      <trkpt lat="43.94734" lon="5.02773">
        <ele>160.2</ele>
        <time>2013-11-23T13:59:15Z</time>
      </trkpt>
      <trkpt lat="43.94398" lon="5.02832">
        <ele>158.75</ele>
        <time>2013-11-23T13:59:30Z</time>
      </trkpt>
      <trkpt lat="43.9433" lon="5.02845">
        <ele>160.2</ele>
        <time>2013-11-23T13:59:33Z</time>
      </trkpt>
      <trkpt lat="43.94214" lon="5.02867">
        <ele>158.27</ele>
        <time>2013-11-23T13:59:38Z</time>
      </trkpt>
      <trkpt lat="43.94057" lon="5.02896">
        <ele>152.03</ele>
        <time>2013-11-23T13:59:45Z</time>
      </trkpt>
      <trkpt lat="43.94035" lon="5.029">
        <ele>148.66</ele>
        <time>2013-11-23T13:59:46Z</time>
      </trkpt>
      <trkpt lat="43.94012" lon="5.02903">
        <ele>145.3</ele>
        <time>2013-11-23T13:59:47Z</time>
      </trkpt>
      <trkpt lat="43.93969" lon="5.02911">
        <ele>140.01</ele>
        <time>2013-11-23T13:59:49Z</time>
      </trkpt>
      <trkpt lat="43.93925" lon="5.02919">
        <ele>134.24</ele>
        <time>2013-11-23T13:59:51Z</time>
      </trkpt>
      <trkpt lat="43.93882" lon="5.02928">
        <ele>128.95</ele>
        <time>2013-11-23T13:59:53Z</time>
      </trkpt>
      <trkpt lat="43.93859" lon="5.02933">
        <ele>125.59</ele>
        <time>2013-11-23T13:59:54Z</time>
      </trkpt>
      <trkpt lat="43.93814" lon="5.02941">
        <ele>120.78</ele>
        <time>2013-11-23T13:59:56Z</time>
      </trkpt>
      <trkpt lat="43.93767" lon="5.0295">
        <ele>116.46</ele>
        <time>2013-11-23T13:59:58Z</time>
      </trkpt>
      <trkpt lat="43.9372" lon="5.02958">
        <ele>112.61</ele>
        <time>2013-11-23T14:00:00Z</time>
      </trkpt>
      <trkpt lat="43.93671" lon="5.02968">
        <ele>108.77</ele>
        <time>2013-11-23T14:00:02Z</time>
      </trkpt>
      <trkpt lat="43.93647" lon="5.02972">
        <ele>103.48</ele>
        <time>2013-11-23T14:00:03Z</time>
      </trkpt>
      <trkpt lat="43.93623" lon="5.02977">
        <ele>105.88</ele>
        <time>2013-11-23T14:00:04Z</time>
      </trkpt>
      <trkpt lat="43.93574" lon="5.02986">
        <ele>102.52</ele>
        <time>2013-11-23T14:00:06Z</time>
      </trkpt>
      <trkpt lat="43.93525" lon="5.02995">
        <ele>99.15</ele>
        <time>2013-11-23T14:00:08Z</time>
      </trkpt>
      <trkpt lat="43.93476" lon="5.03004">
        <ele>95.31</ele>
        <time>2013-11-23T14:00:10Z</time>
      </trkpt>
      <trkpt lat="43.93451" lon="5.03008">
        <ele>96.27</ele>
        <time>2013-11-23T14:00:11Z</time>
      </trkpt>
      <trkpt lat="43.93428" lon="5.03012">
        <ele>92.42</ele>
        <time>2013-11-23T14:00:12Z</time>
      </trkpt>
      <trkpt lat="43.93381" lon="5.03021">
        <ele>89.06</ele>
        <time>2013-11-23T14:00:14Z</time>
      </trkpt>
      <trkpt lat="43.93313" lon="5.03033">
        <ele>83.29</ele>
        <time>2013-11-23T14:00:17Z</time>
      </trkpt>
      <trkpt lat="43.9329" lon="5.03038">
        <ele>86.18</ele>
        <time>2013-11-23T14:00:18Z</time>
      </trkpt>
      <trkpt lat="43.93268" lon="5.03042">
        <ele>79.93</ele>
        <time>2013-11-23T14:00:19Z</time>
      </trkpt>
      <trkpt lat="43.93246" lon="5.03046">
        <ele>87.14</ele>
        <time>2013-11-23T14:00:20Z</time>
      </trkpt>
      <trkpt lat="43.93223" lon="5.0305">
        <ele>82.33</ele>
        <time>2013-11-23T14:00:21Z</time>
      </trkpt>
      <trkpt lat="43.93201" lon="5.03055">
        <ele>78.97</ele>
        <time>2013-11-23T14:00:22Z</time>
      </trkpt>
      <trkpt lat="43.93179" lon="5.03059">
        <ele>81.37</ele>
        <time>2013-11-23T14:00:23Z</time>
      </trkpt>
      <trkpt lat="43.93157" lon="5.03063">
        <ele>73.68</ele>
        <time>2013-11-23T14:00:24Z</time>
      </trkpt>
      <trkpt lat="43.93135" lon="5.03067">
        <ele>78.48</ele>
        <time>2013-11-23T14:00:25Z</time>
      </trkpt>
      <trkpt lat="43.93069" lon="5.03079">
        <ele>74.16</ele>
        <time>2013-11-23T14:00:28Z</time>
      </trkpt>
      <trkpt lat="43.93027" lon="5.03084">
        <ele>70.79</ele>
        <time>2013-11-23T14:00:30Z</time>
      </trkpt>
      <trkpt lat="43.92941" lon="5.03084">
        <ele>69.83</ele>
        <time>2013-11-23T14:00:34Z</time>
      </trkpt>
      <trkpt lat="43.92898" lon="5.03075">
        <ele>66.95</ele>
        <time>2013-11-23T14:00:36Z</time>
      </trkpt>
      <trkpt lat="43.92815" lon="5.0304">
        <ele>57.82</ele>
        <time>2013-11-23T14:00:40Z</time>
      </trkpt>
      <trkpt lat="43.92795" lon="5.03028">
        <ele>65.51</ele>
        <time>2013-11-23T14:00:41Z</time>
      </trkpt>
      <trkpt lat="43.92756" lon="5.03">
        <ele>57.82</ele>
        <time>2013-11-23T14:00:43Z</time>
      </trkpt>
      <trkpt lat="43.92737" lon="5.02985">
        <ele>63.58</ele>
        <time>2013-11-23T14:00:44Z</time>
      </trkpt>
      <trkpt lat="43.92682" lon="5.02939">
        <ele>62.62</ele>
        <time>2013-11-23T14:00:47Z</time>
      </trkpt>
      <trkpt lat="43.92593" lon="5.02874">
        <ele>56.86</ele>
        <time>2013-11-23T14:00:52Z</time>
      </trkpt>
      <trkpt lat="43.92575" lon="5.02864">
        <ele>59.26</ele>
        <time>2013-11-23T14:00:53Z</time>
      </trkpt>
      <trkpt lat="43.92557" lon="5.02856">
        <ele>59.74</ele>
        <time>2013-11-23T14:00:54Z</time>
      </trkpt>
      <trkpt lat="43.92418" lon="5.02837">
        <ele>57.34</ele>
        <time>2013-11-23T14:01:01Z</time>
      </trkpt>
      <trkpt lat="43.92238" lon="5.02861">
        <ele>60.7</ele>
        <time>2013-11-23T14:01:09Z</time>
      </trkpt>
      <trkpt lat="43.92215" lon="5.02864">
        <ele>56.37</ele>
        <time>2013-11-23T14:01:10Z</time>
      </trkpt>
      <trkpt lat="43.92" lon="5.02907">
        <ele>59.74</ele>
        <time>2013-11-23T14:01:20Z</time>
      </trkpt>
      <trkpt lat="43.9198" lon="5.02912">
        <ele>59.26</ele>
        <time>2013-11-23T14:01:21Z</time>
      </trkpt>
      <trkpt lat="43.9196" lon="5.02916">
        <ele>53.01</ele>
        <time>2013-11-23T14:01:22Z</time>
      </trkpt>
      <trkpt lat="43.9194" lon="5.02921">
        <ele>61.66</ele>
        <time>2013-11-23T14:01:23Z</time>
      </trkpt>
      <trkpt lat="43.91921" lon="5.02927">
        <ele>61.18</ele>
        <time>2013-11-23T14:01:24Z</time>
      </trkpt>
      <trkpt lat="43.91735" lon="5.02988">
        <ele>54.93</ele>
        <time>2013-11-23T14:01:33Z</time>
      </trkpt>
      <trkpt lat="43.91713" lon="5.02994">
        <ele>59.74</ele>
        <time>2013-11-23T14:01:34Z</time>
      </trkpt>
      <trkpt lat="43.91644" lon="5.03004">
        <ele>56.37</ele>
        <time>2013-11-23T14:01:37Z</time>
      </trkpt>
      <trkpt lat="43.91598" lon="5.03002">
        <ele>55.41</ele>
        <time>2013-11-23T14:01:39Z</time>
      </trkpt>
      <trkpt lat="43.91396" lon="5.02975">
        <ele>55.89</ele>
        <time>2013-11-23T14:01:48Z</time>
      </trkpt>
      <trkpt lat="43.91355" lon="5.02985">
        <ele>56.37</ele>
        <time>2013-11-23T14:01:50Z</time>
      </trkpt>
      <trkpt lat="43.91335" lon="5.02993">
        <ele>54.93</ele>
        <time>2013-11-23T14:01:51Z</time>
      </trkpt>
      <trkpt lat="43.91315" lon="5.03004">
        <ele>56.86</ele>
        <time>2013-11-23T14:01:52Z</time>
      </trkpt>
      <trkpt lat="43.91297" lon="5.03017">
        <ele>54.45</ele>
        <time>2013-11-23T14:01:53Z</time>
      </trkpt>
      <trkpt lat="43.91279" lon="5.03031">
        <ele>54.93</ele>
        <time>2013-11-23T14:01:54Z</time>
      </trkpt>
      <trkpt lat="43.91262" lon="5.03048">
        <ele>55.89</ele>
        <time>2013-11-23T14:01:55Z</time>
      </trkpt>
      <trkpt lat="43.91245" lon="5.03066">
        <ele>55.89</ele>
        <time>2013-11-23T14:01:56Z</time>
      </trkpt>
      <trkpt lat="43.91153" lon="5.03186">
        <ele>60.7</ele>
        <time>2013-11-23T14:02:02Z</time>
      </trkpt>
      <trkpt lat="43.91127" lon="5.03229">
        <ele>67.91</ele>
        <time>2013-11-23T14:02:04Z</time>
      </trkpt>
      <trkpt lat="43.91114" lon="5.03251">
        <ele>62.62</ele>
        <time>2013-11-23T14:02:05Z</time>
      </trkpt>
      <trkpt lat="43.9108" lon="5.03321">
        <ele>57.82</ele>
        <time>2013-11-23T14:02:08Z</time>
      </trkpt>
      <trkpt lat="43.9107" lon="5.03347">
        <ele>62.62</ele>
        <time>2013-11-23T14:02:09Z</time>
      </trkpt>
      <trkpt lat="43.91041" lon="5.03426">
        <ele>58.3</ele>
        <time>2013-11-23T14:02:12Z</time>
      </trkpt>
      <trkpt lat="43.90938" lon="5.03619">
        <ele>58.78</ele>
        <time>2013-11-23T14:02:20Z</time>
      </trkpt>
      <trkpt lat="43.90835" lon="5.03746">
        <ele>55.41</ele>
        <time>2013-11-23T14:02:26Z</time>
      </trkpt>
      <trkpt lat="43.90817" lon="5.03767">
        <ele>60.22</ele>
        <time>2013-11-23T14:02:27Z</time>
      </trkpt>
      <trkpt lat="43.90782" lon="5.03811">
        <ele>56.37</ele>
        <time>2013-11-23T14:02:29Z</time>
      </trkpt>
      <trkpt lat="43.90764" lon="5.03833">
        <ele>60.22</ele>
        <time>2013-11-23T14:02:30Z</time>
      </trkpt>
      <trkpt lat="43.9057" lon="5.04108">
        <ele>61.18</ele>
        <time>2013-11-23T14:02:42Z</time>
      </trkpt>
      <trkpt lat="43.90553" lon="5.0413">
        <ele>64.55</ele>
        <time>2013-11-23T14:02:43Z</time>
      </trkpt>
      <trkpt lat="43.90519" lon="5.0417">
        <ele>59.26</ele>
        <time>2013-11-23T14:02:45Z</time>
      </trkpt>
      <trkpt lat="43.90502" lon="5.0419">
        <ele>59.26</ele>
        <time>2013-11-23T14:02:46Z</time>
      </trkpt>
      <trkpt lat="43.90367" lon="5.04301">
        <ele>61.66</ele>
        <time>2013-11-23T14:02:53Z</time>
      </trkpt>
      <trkpt lat="43.90324" lon="5.04325">
        <ele>56.86</ele>
        <time>2013-11-23T14:02:55Z</time>
      </trkpt>
      <trkpt lat="43.90303" lon="5.04337">
        <ele>61.66</ele>
        <time>2013-11-23T14:02:56Z</time>
      </trkpt>
      <trkpt lat="43.90238" lon="5.04375">
        <ele>62.62</ele>
        <time>2013-11-23T14:02:59Z</time>
      </trkpt>
      <trkpt lat="43.9006" lon="5.04518">
        <ele>60.22</ele>
        <time>2013-11-23T14:03:08Z</time>
      </trkpt>
      <trkpt lat="43.89892" lon="5.04652">
        <ele>61.18</ele>
        <time>2013-11-23T14:03:17Z</time>
      </trkpt>
      <trkpt lat="43.89872" lon="5.04661">
        <ele>61.66</ele>
        <time>2013-11-23T14:03:18Z</time>
      </trkpt>
      <trkpt lat="43.89834" lon="5.04676">
        <ele>56.86</ele>
        <time>2013-11-23T14:03:20Z</time>
      </trkpt>
      <trkpt lat="43.89815" lon="5.04682">
        <ele>57.34</ele>
        <time>2013-11-23T14:03:21Z</time>
      </trkpt>
      <trkpt lat="43.89797" lon="5.04688">
        <ele>61.18</ele>
        <time>2013-11-23T14:03:22Z</time>
      </trkpt>
      <trkpt lat="43.89781" lon="5.04694">
        <ele>59.74</ele>
        <time>2013-11-23T14:03:23Z</time>
      </trkpt>
      <trkpt lat="43.89727" lon="5.04705">
        <ele>58.78</ele>
        <time>2013-11-23T14:03:28Z</time>
      </trkpt>
      <trkpt lat="43.89722" lon="5.04704">
        <ele>58.78</ele>
        <time>2013-11-23T14:03:29Z</time>
      </trkpt>
      <trkpt lat="43.89717" lon="5.04702">
        <ele>59.26</ele>
        <time>2013-11-23T14:03:30Z</time>
      </trkpt>
      <trkpt lat="43.89713" lon="5.04699">
        <ele>55.41</ele>
        <time>2013-11-23T14:03:31Z</time>
      </trkpt>
      <trkpt lat="43.89707" lon="5.04695">
        <ele>59.74</ele>
        <time>2013-11-23T14:03:32Z</time>
      </trkpt>
      <trkpt lat="43.89701" lon="5.04693">
        <ele>59.26</ele>
        <time>2013-11-23T14:03:33Z</time>
      </trkpt>
      <trkpt lat="43.89694" lon="5.04693">
        <ele>59.74</ele>
        <time>2013-11-23T14:03:34Z</time>
      </trkpt>
      <trkpt lat="43.89687" lon="5.04697">
        <ele>59.74</ele>
        <time>2013-11-23T14:03:35Z</time>
      </trkpt>
      <trkpt lat="43.8968" lon="5.04701">
        <ele>59.74</ele>
        <time>2013-11-23T14:03:36Z</time>
      </trkpt>
      <trkpt lat="43.89672" lon="5.04703">
        <ele>60.22</ele>
        <time>2013-11-23T14:03:37Z</time>
      </trkpt>
      <trkpt lat="43.89664" lon="5.04703">
        <ele>60.22</ele>
        <time>2013-11-23T14:03:38Z</time>
      </trkpt>
      <trkpt lat="43.89654" lon="5.04702">
        <ele>60.22</ele>
        <time>2013-11-23T14:03:39Z</time>
      </trkpt>
      <trkpt lat="43.89643" lon="5.04698">
        <ele>60.7</ele>
        <time>2013-11-23T14:03:40Z</time>
      </trkpt>
      <trkpt lat="43.89631" lon="5.04693">
        <ele>60.7</ele>
        <time>2013-11-23T14:03:41Z</time>
      </trkpt>
      <trkpt lat="43.89542" lon="5.04625">
        <ele>60.7</ele>
        <time>2013-11-23T14:03:48Z</time>
      </trkpt>
      <trkpt lat="43.89436" lon="5.0448">
        <ele>60.22</ele>
        <time>2013-11-23T14:03:57Z</time>
      </trkpt>
      <trkpt lat="43.89401" lon="5.04433">
        <ele>61.66</ele>
        <time>2013-11-23T14:04:00Z</time>
      </trkpt>
      <trkpt lat="43.89376" lon="5.04405">
        <ele>60.22</ele>
        <time>2013-11-23T14:04:02Z</time>
      </trkpt>
      <trkpt lat="43.89265" lon="5.04327">
        <ele>60.7</ele>
        <time>2013-11-23T14:04:09Z</time>
      </trkpt>
      <trkpt lat="43.89083" lon="5.04265">
        <ele>61.66</ele>
        <time>2013-11-23T14:04:18Z</time>
      </trkpt>
      <trkpt lat="43.88999" lon="5.04245">
        <ele>61.66</ele>
        <time>2013-11-23T14:04:22Z</time>
      </trkpt>
      <trkpt lat="43.88854" lon="5.04212">
        <ele>61.18</ele>
        <time>2013-11-23T14:04:29Z</time>
      </trkpt>
      <trkpt lat="43.88797" lon="5.04191">
        <ele>61.66</ele>
        <time>2013-11-23T14:04:32Z</time>
      </trkpt>
      <trkpt lat="43.88691" lon="5.04137">
        <ele>60.22</ele>
        <time>2013-11-23T14:04:38Z</time>
      </trkpt>
      <trkpt lat="43.88674" lon="5.04133">
        <ele>60.7</ele>
        <time>2013-11-23T14:04:39Z</time>
      </trkpt>
      <trkpt lat="43.88492" lon="5.04106">
        <ele>59.74</ele>
        <time>2013-11-23T14:04:50Z</time>
      </trkpt>
      <trkpt lat="43.88459" lon="5.04101">
        <ele>56.37</ele>
        <time>2013-11-23T14:04:52Z</time>
      </trkpt>
      <trkpt lat="43.88442" lon="5.04099">
        <ele>60.7</ele>
        <time>2013-11-23T14:04:53Z</time>
      </trkpt>
      <trkpt lat="43.88425" lon="5.04097">
        <ele>60.7</ele>
        <time>2013-11-23T14:04:54Z</time>
      </trkpt>
      <trkpt lat="43.88375" lon="5.04086">
        <ele>60.7</ele>
        <time>2013-11-23T14:04:57Z</time>
      </trkpt>
      <trkpt lat="43.8825" lon="5.04019">
        <ele>60.7</ele>
        <time>2013-11-23T14:05:05Z</time>
      </trkpt>
      <trkpt lat="43.88122" lon="5.03941">
        <ele>59.26</ele>
        <time>2013-11-23T14:05:14Z</time>
      </trkpt>
      <trkpt lat="43.88014" lon="5.03907">
        <ele>60.22</ele>
        <time>2013-11-23T14:05:21Z</time>
      </trkpt>
      <trkpt lat="43.87918" lon="5.03905">
        <ele>61.18</ele>
        <time>2013-11-23T14:05:27Z</time>
      </trkpt>
      <trkpt lat="43.87708" lon="5.03917">
        <ele>64.07</ele>
        <time>2013-11-23T14:05:40Z</time>
      </trkpt>
      <trkpt lat="43.87676" lon="5.0392">
        <ele>65.03</ele>
        <time>2013-11-23T14:05:42Z</time>
      </trkpt>
      <trkpt lat="43.87613" lon="5.0393">
        <ele>67.43</ele>
        <time>2013-11-23T14:05:46Z</time>
      </trkpt>
      <trkpt lat="43.87596" lon="5.03934">
        <ele>70.79</ele>
        <time>2013-11-23T14:05:47Z</time>
      </trkpt>
      <trkpt lat="43.87562" lon="5.03943">
        <ele>67.43</ele>
        <time>2013-11-23T14:05:49Z</time>
      </trkpt>
      <trkpt lat="43.87506" lon="5.03957">
        <ele>63.58</ele>
        <time>2013-11-23T14:05:52Z</time>
      </trkpt>
      <trkpt lat="43.87389" lon="5.03986">
        <ele>60.22</ele>
        <time>2013-11-23T14:05:58Z</time>
      </trkpt>
      <trkpt lat="43.87366" lon="5.03993">
        <ele>62.14</ele>
        <time>2013-11-23T14:05:59Z</time>
      </trkpt>
      <trkpt lat="43.3372" lon="5.60727">
        <ele>196.73</ele>
        <time>2013-11-23T15:06:14Z</time>
      </trkpt>
      <trkpt lat="43.33669" lon="5.60699">
        <ele>196.25</ele>
        <time>2013-11-23T15:06:16Z</time>
      </trkpt>
      <trkpt lat="43.33572" lon="5.6064">
        <ele>193.84</ele>
        <time>2013-11-23T15:06:20Z</time>
      </trkpt>
      <trkpt lat="43.33454" lon="5.60561">
        <ele>190.48</ele>
        <time>2013-11-23T15:06:25Z</time>
      </trkpt>
      <trkpt lat="43.3343" lon="5.60545">
        <ele>190.48</ele>
        <time>2013-11-23T15:06:26Z</time>
      </trkpt>
      <trkpt lat="43.33383" lon="5.60513">
        <ele>189.04</ele>
        <time>2013-11-23T15:06:28Z</time>
      </trkpt>
      <trkpt lat="43.33314" lon="5.60464">
        <ele>185.67</ele>
        <time>2013-11-23T15:06:31Z</time>
      </trkpt>
      <trkpt lat="43.3322" lon="5.60399">
        <ele>182.79</ele>
        <time>2013-11-23T15:06:35Z</time>
      </trkpt>
      <trkpt lat="43.3315" lon="5.60347">
        <ele>178.94</ele>
        <time>2013-11-23T15:06:38Z</time>
      </trkpt>
      <trkpt lat="43.33058" lon="5.60277">
        <ele>174.14</ele>
        <time>2013-11-23T15:06:42Z</time>
      </trkpt>
      <trkpt lat="43.33035" lon="5.6026">
        <ele>174.14</ele>
        <time>2013-11-23T15:06:43Z</time>
      </trkpt>
      <trkpt lat="43.32966" lon="5.60208">
        <ele>170.29</ele>
        <time>2013-11-23T15:06:46Z</time>
      </trkpt>
      <trkpt lat="43.32899" lon="5.60158">
        <ele>166.93</ele>
        <time>2013-11-23T15:06:49Z</time>
      </trkpt>
      <trkpt lat="43.32833" lon="5.60108">
        <ele>163.56</ele>
        <time>2013-11-23T15:06:52Z</time>
      </trkpt>
      <trkpt lat="43.32768" lon="5.60059">
        <ele>160.2</ele>
        <time>2013-11-23T15:06:55Z</time>
      </trkpt>
      <trkpt lat="43.32683" lon="5.59994">
        <ele>156.35</ele>
        <time>2013-11-23T15:06:59Z</time>
      </trkpt>
      <trkpt lat="43.32604" lon="5.59931">
        <ele>152.99</ele>
        <time>2013-11-23T15:07:03Z</time>
      </trkpt>
      <trkpt lat="43.32586" lon="5.59916">
        <ele>149.14</ele>
        <time>2013-11-23T15:07:04Z</time>
      </trkpt>
      <trkpt lat="43.32569" lon="5.59902">
        <ele>152.03</ele>
        <time>2013-11-23T15:07:05Z</time>
      </trkpt>
      <trkpt lat="43.32508" lon="5.59851">
        <ele>148.66</ele>
        <time>2013-11-23T15:07:09Z</time>
      </trkpt>
      <trkpt lat="43.32496" lon="5.5984">
        <ele>148.66</ele>
        <time>2013-11-23T15:07:10Z</time>
      </trkpt>
      <trkpt lat="43.32477" lon="5.59822">
        <ele>147.22</ele>
        <time>2013-11-23T15:07:12Z</time>
      </trkpt>
      <trkpt lat="43.32437" lon="5.59786">
        <ele>145.78</ele>
        <time>2013-11-23T15:07:19Z</time>
      </trkpt>
      <trkpt lat="43.32392" lon="5.59737">
        <ele>144.82</ele>
        <time>2013-11-23T15:07:26Z</time>
      </trkpt>
      <trkpt lat="43.32287" lon="5.5962">
        <ele>142.89</ele>
        <time>2013-11-23T15:07:35Z</time>
      </trkpt>
      <trkpt lat="43.32217" lon="5.59542">
        <ele>138.57</ele>
        <time>2013-11-23T15:07:40Z</time>
      </trkpt>
      <trkpt lat="43.32203" lon="5.59525">
        <ele>139.53</ele>
        <time>2013-11-23T15:07:41Z</time>
      </trkpt>
      <trkpt lat="43.32131" lon="5.59433">
        <ele>137.61</ele>
        <time>2013-11-23T15:07:46Z</time>
      </trkpt>
      <trkpt lat="43.32061" lon="5.59334">
        <ele>134.24</ele>
        <time>2013-11-23T15:07:51Z</time>
      </trkpt>
      <trkpt lat="43.32004" lon="5.59228">
        <ele>130.88</ele>
        <time>2013-11-23T15:07:56Z</time>
      </trkpt>
      <trkpt lat="43.31957" lon="5.59146">
        <ele>133.76</ele>
        <time>2013-11-23T15:08:00Z</time>
      </trkpt>
      <trkpt lat="43.31943" lon="5.59129">
        <ele>132.32</ele>
        <time>2013-11-23T15:08:01Z</time>
      </trkpt>
      <trkpt lat="43.31927" lon="5.59113">
        <ele>132.32</ele>
        <time>2013-11-23T15:08:02Z</time>
      </trkpt>
      <trkpt lat="43.3191" lon="5.591">
        <ele>132.32</ele>
        <time>2013-11-23T15:08:03Z</time>
      </trkpt>
      <trkpt lat="43.31893" lon="5.59087">
        <ele>131.84</ele>
        <time>2013-11-23T15:08:04Z</time>
      </trkpt>
      <trkpt lat="43.31761" lon="5.59033">
        <ele>130.4</ele>
        <time>2013-11-23T15:08:11Z</time>
      </trkpt>
      <trkpt lat="43.3161" lon="5.59044">
        <ele>126.07</ele>
        <time>2013-11-23T15:08:18Z</time>
      </trkpt>
      <trkpt lat="43.31588" lon="5.59049">
        <ele>126.07</ele>
        <time>2013-11-23T15:08:19Z</time>
      </trkpt>
      <trkpt lat="43.3147" lon="5.5908">
        <ele>121.26</ele>
        <time>2013-11-23T15:08:24Z</time>
      </trkpt>
      <trkpt lat="43.31213" lon="5.59143">
        <ele>120.78</ele>
        <time>2013-11-23T15:08:34Z</time>
      </trkpt>
      <trkpt lat="43.30855" lon="5.59191">
        <ele>118.38</ele>
        <time>2013-11-23T15:08:47Z</time>
      </trkpt>
      <trkpt lat="43.30559" lon="5.59177">
        <ele>114.53</ele>
        <time>2013-11-23T15:08:57Z</time>
      </trkpt>
      <trkpt lat="43.30377" lon="5.59144">
        <ele>117.42</ele>
        <time>2013-11-23T15:09:03Z</time>
      </trkpt>
      <trkpt lat="43.30225" lon="5.59101">
        <ele>114.53</ele>
        <time>2013-11-23T15:09:08Z</time>
      </trkpt>
      <trkpt lat="43.29908" lon="5.58991">
        <ele>111.65</ele>
        <time>2013-11-23T15:09:19Z</time>
      </trkpt>
      <trkpt lat="43.29447" lon="5.58826">
        <ele>110.21</ele>
        <time>2013-11-23T15:09:35Z</time>
      </trkpt>
      <trkpt lat="43.29046" lon="5.58682">
        <ele>111.65</ele>
        <time>2013-11-23T15:09:49Z</time>
      </trkpt>
      <trkpt lat="43.28732" lon="5.58625">
        <ele>115.5</ele>
        <time>2013-11-23T15:10:00Z</time>
      </trkpt>
      <trkpt lat="43.28703" lon="5.58618">
        <ele>121.26</ele>
        <time>2013-11-23T15:10:01Z</time>
      </trkpt>
      <trkpt lat="43.28676" lon="5.5861">
        <ele>113.57</ele>
        <time>2013-11-23T15:10:02Z</time>
      </trkpt>
      <trkpt lat="43.28648" lon="5.58602">
        <ele>116.94</ele>
        <time>2013-11-23T15:10:03Z</time>
      </trkpt>
      <trkpt lat="43.28463" lon="5.58524">
        <ele>119.34</ele>
        <time>2013-11-23T15:10:10Z</time>
      </trkpt>
      <trkpt lat="43.28282" lon="5.58448">
        <ele>123.19</ele>
        <time>2013-11-23T15:10:17Z</time>
      </trkpt>
      <trkpt lat="43.2816" lon="5.58404">
        <ele>127.51</ele>
        <time>2013-11-23T15:10:22Z</time>
      </trkpt>
      <trkpt lat="43.28088" lon="5.58399">
        <ele>123.19</ele>
        <time>2013-11-23T15:10:25Z</time>
      </trkpt>
      <trkpt lat="43.28064" lon="5.58402">
        <ele>130.4</ele>
        <time>2013-11-23T15:10:26Z</time>
      </trkpt>
      <trkpt lat="43.27955" lon="5.58442">
        <ele>136.16</ele>
        <time>2013-11-23T15:10:31Z</time>
      </trkpt>
      <trkpt lat="43.27879" lon="5.58503">
        <ele>131.84</ele>
        <time>2013-11-23T15:10:35Z</time>
      </trkpt>
      <trkpt lat="43.27861" lon="5.58522">
        <ele>141.93</ele>
        <time>2013-11-23T15:10:36Z</time>
      </trkpt>
      <trkpt lat="43.27844" lon="5.58543">
        <ele>136.64</ele>
        <time>2013-11-23T15:10:37Z</time>
      </trkpt>
      <trkpt lat="43.2776" lon="5.58649">
        <ele>140.49</ele>
        <time>2013-11-23T15:10:42Z</time>
      </trkpt>
      <trkpt lat="43.27725" lon="5.58689">
        <ele>145.3</ele>
        <time>2013-11-23T15:10:44Z</time>
      </trkpt>
      <trkpt lat="43.27707" lon="5.58707">
        <ele>144.34</ele>
        <time>2013-11-23T15:10:45Z</time>
      </trkpt>
      <trkpt lat="43.27649" lon="5.58751">
        <ele>147.7</ele>
        <time>2013-11-23T15:10:48Z</time>
      </trkpt>
      <trkpt lat="43.27609" lon="5.58775">
        <ele>149.62</ele>
        <time>2013-11-23T15:10:50Z</time>
      </trkpt>
      <trkpt lat="43.27568" lon="5.58796">
        <ele>152.03</ele>
        <time>2013-11-23T15:10:52Z</time>
      </trkpt>
      <trkpt lat="43.27525" lon="5.58815">
        <ele>155.87</ele>
        <time>2013-11-23T15:10:54Z</time>
      </trkpt>
      <trkpt lat="43.27461" lon="5.58838">
        <ele>159.24</ele>
        <time>2013-11-23T15:10:57Z</time>
      </trkpt>
      <trkpt lat="43.27417" lon="5.58852">
        <ele>162.12</ele>
        <time>2013-11-23T15:10:59Z</time>
      </trkpt>
      <trkpt lat="43.27395" lon="5.58858">
        <ele>162.12</ele>
        <time>2013-11-23T15:11:00Z</time>
      </trkpt>
      <trkpt lat="43.27327" lon="5.58871">
        <ele>166.93</ele>
        <time>2013-11-23T15:11:03Z</time>
      </trkpt>
      <trkpt lat="43.27304" lon="5.58873">
        <ele>166.93</ele>
        <time>2013-11-23T15:11:04Z</time>
      </trkpt>
      <trkpt lat="43.27236" lon="5.58876">
        <ele>170.77</ele>
        <time>2013-11-23T15:11:07Z</time>
      </trkpt>
      <trkpt lat="43.27167" lon="5.58869">
        <ele>174.14</ele>
        <time>2013-11-23T15:11:10Z</time>
      </trkpt>
      <trkpt lat="43.27074" lon="5.58847">
        <ele>176.54</ele>
        <time>2013-11-23T15:11:14Z</time>
      </trkpt>
      <trkpt lat="43.26982" lon="5.58816">
        <ele>180.87</ele>
        <time>2013-11-23T15:11:18Z</time>
      </trkpt>
      <trkpt lat="43.26913" lon="5.58793">
        <ele>184.71</ele>
        <time>2013-11-23T15:11:21Z</time>
      </trkpt>
      <trkpt lat="43.26796" lon="5.58754">
        <ele>188.56</ele>
        <time>2013-11-23T15:11:26Z</time>
      </trkpt>
      <trkpt lat="43.26773" lon="5.58746">
        <ele>188.56</ele>
        <time>2013-11-23T15:11:27Z</time>
      </trkpt>
      <trkpt lat="43.26704" lon="5.58724">
        <ele>191.92</ele>
        <time>2013-11-23T15:11:30Z</time>
      </trkpt>
      <trkpt lat="43.26658" lon="5.58714">
        <ele>196.25</ele>
        <time>2013-11-23T15:11:32Z</time>
      </trkpt>
      <trkpt lat="43.26635" lon="5.58711">
        <ele>194.32</ele>
        <time>2013-11-23T15:11:33Z</time>
      </trkpt>
      <trkpt lat="43.26565" lon="5.58714">
        <ele>198.65</ele>
        <time>2013-11-23T15:11:36Z</time>
      </trkpt>
      <trkpt lat="43.26541" lon="5.58718">
        <ele>197.69</ele>
        <time>2013-11-23T15:11:37Z</time>
      </trkpt>
      <trkpt lat="43.2645" lon="5.58754">
        <ele>201.53</ele>
        <time>2013-11-23T15:11:41Z</time>
      </trkpt>
      <trkpt lat="43.26368" lon="5.5882">
        <ele>205.38</ele>
        <time>2013-11-23T15:11:45Z</time>
      </trkpt>
      <trkpt lat="43.26296" lon="5.58911">
        <ele>209.7</ele>
        <time>2013-11-23T15:11:49Z</time>
      </trkpt>
      <trkpt lat="43.26247" lon="5.58985">
        <ele>213.07</ele>
        <time>2013-11-23T15:11:52Z</time>
      </trkpt>
      <trkpt lat="43.2623" lon="5.59009">
        <ele>212.59</ele>
        <time>2013-11-23T15:11:53Z</time>
      </trkpt>
      <trkpt lat="43.26153" lon="5.59089">
        <ele>217.4</ele>
        <time>2013-11-23T15:11:57Z</time>
      </trkpt>
      <trkpt lat="43.26132" lon="5.59105">
        <ele>215.95</ele>
        <time>2013-11-23T15:11:58Z</time>
      </trkpt>
      <trkpt lat="43.26065" lon="5.5914">
        <ele>219.8</ele>
        <time>2013-11-23T15:12:01Z</time>
      </trkpt>
      <trkpt lat="43.26041" lon="5.59149">
        <ele>216.91</ele>
        <time>2013-11-23T15:12:02Z</time>
      </trkpt>
      <trkpt lat="43.26017" lon="5.59157">
        <ele>221.72</ele>
        <time>2013-11-23T15:12:03Z</time>
      </trkpt>
      <trkpt lat="43.25918" lon="5.59187">
        <ele>227.01</ele>
        <time>2013-11-23T15:12:07Z</time>
      </trkpt>
      <trkpt lat="43.25892" lon="5.59195">
        <ele>227.01</ele>
        <time>2013-11-23T15:12:08Z</time>
      </trkpt>
      <trkpt lat="43.25816" lon="5.59219">
        <ele>229.89</ele>
        <time>2013-11-23T15:12:11Z</time>
      </trkpt>
      <trkpt lat="43.25743" lon="5.59252">
        <ele>234.7</ele>
        <time>2013-11-23T15:12:14Z</time>
      </trkpt>
      <trkpt lat="43.25719" lon="5.59267">
        <ele>233.26</ele>
        <time>2013-11-23T15:12:15Z</time>
      </trkpt>
      <trkpt lat="43.25651" lon="5.59317">
        <ele>237.1</ele>
        <time>2013-11-23T15:12:18Z</time>
      </trkpt>
      <trkpt lat="43.25584" lon="5.59372">
        <ele>239.99</ele>
        <time>2013-11-23T15:12:21Z</time>
      </trkpt>
      <trkpt lat="43.25493" lon="5.59436">
        <ele>244.79</ele>
        <time>2013-11-23T15:12:25Z</time>
      </trkpt>
      <trkpt lat="43.25397" lon="5.59478">
        <ele>249.12</ele>
        <time>2013-11-23T15:12:29Z</time>
      </trkpt>
      <trkpt lat="43.25348" lon="5.59493">
        <ele>252</ele>
        <time>2013-11-23T15:12:31Z</time>
      </trkpt>
      <trkpt lat="43.25277" lon="5.59514">
        <ele>256.33</ele>
        <time>2013-11-23T15:12:34Z</time>
      </trkpt>
      <trkpt lat="43.25229" lon="5.59528">
        <ele>259.21</ele>
        <time>2013-11-23T15:12:36Z</time>
      </trkpt>
      <trkpt lat="43.25158" lon="5.59548">
        <ele>264.5</ele>
        <time>2013-11-23T15:12:39Z</time>
      </trkpt>
      <trkpt lat="43.25134" lon="5.59554">
        <ele>264.5</ele>
        <time>2013-11-23T15:12:40Z</time>
      </trkpt>
      <trkpt lat="43.2511" lon="5.59561">
        <ele>268.35</ele>
        <time>2013-11-23T15:12:41Z</time>
      </trkpt>
      <trkpt lat="43.25086" lon="5.59567">
        <ele>266.9</ele>
        <time>2013-11-23T15:12:42Z</time>
      </trkpt>
      <trkpt lat="43.25038" lon="5.5958">
        <ele>269.79</ele>
        <time>2013-11-23T15:12:44Z</time>
      </trkpt>
      <trkpt lat="43.24942" lon="5.59608">
        <ele>273.63</ele>
        <time>2013-11-23T15:12:48Z</time>
      </trkpt>
      <trkpt lat="43.24892" lon="5.59619">
        <ele>274.59</ele>
        <time>2013-11-23T15:12:50Z</time>
      </trkpt>
      <trkpt lat="43.24844" lon="5.59626">
        <ele>277.96</ele>
        <time>2013-11-23T15:12:52Z</time>
      </trkpt>
      <trkpt lat="43.24819" lon="5.59629">
        <ele>277.96</ele>
        <time>2013-11-23T15:12:53Z</time>
      </trkpt>
      <trkpt lat="43.24745" lon="5.5963">
        <ele>279.4</ele>
        <time>2013-11-23T15:12:56Z</time>
      </trkpt>
      <trkpt lat="43.2472" lon="5.59628">
        <ele>275.56</ele>
        <time>2013-11-23T15:12:57Z</time>
      </trkpt>
      <trkpt lat="43.24695" lon="5.59624">
        <ele>281.32</ele>
        <time>2013-11-23T15:12:58Z</time>
      </trkpt>
      <trkpt lat="43.24669" lon="5.59619">
        <ele>281.8</ele>
        <time>2013-11-23T15:12:59Z</time>
      </trkpt>
      <trkpt lat="43.24546" lon="5.59576">
        <ele>285.65</ele>
        <time>2013-11-23T15:13:04Z</time>
      </trkpt>
      <trkpt lat="43.24453" lon="5.59523">
        <ele>290.46</ele>
        <time>2013-11-23T15:13:08Z</time>
      </trkpt>
      <trkpt lat="43.2443" lon="5.59509">
        <ele>289.97</ele>
        <time>2013-11-23T15:13:09Z</time>
      </trkpt>
      <trkpt lat="43.24361" lon="5.59464">
        <ele>292.86</ele>
        <time>2013-11-23T15:13:12Z</time>
      </trkpt>
      <trkpt lat="43.24315" lon="5.59435">
        <ele>296.7</ele>
        <time>2013-11-23T15:13:14Z</time>
      </trkpt>
      <trkpt lat="43.2427" lon="5.59405">
        <ele>300.55</ele>
        <time>2013-11-23T15:13:16Z</time>
      </trkpt>
      <trkpt lat="43.24203" lon="5.59361">
        <ele>302.47</ele>
        <time>2013-11-23T15:13:19Z</time>
      </trkpt>
      <trkpt lat="43.24158" lon="5.59333">
        <ele>305.84</ele>
        <time>2013-11-23T15:13:21Z</time>
      </trkpt>
      <trkpt lat="43.24136" lon="5.59319">
        <ele>305.84</ele>
        <time>2013-11-23T15:13:22Z</time>
      </trkpt>
      <trkpt lat="43.24114" lon="5.59304">
        <ele>309.2</ele>
        <time>2013-11-23T15:13:23Z</time>
      </trkpt>
      <trkpt lat="43.24069" lon="5.59275">
        <ele>312.57</ele>
        <time>2013-11-23T15:13:25Z</time>
      </trkpt>
      <trkpt lat="43.23977" lon="5.59216">
        <ele>315.93</ele>
        <time>2013-11-23T15:13:29Z</time>
      </trkpt>
      <trkpt lat="43.23836" lon="5.59125">
        <ele>318.33</ele>
        <time>2013-11-23T15:13:35Z</time>
      </trkpt>
      <trkpt lat="43.23763" lon="5.59078">
        <ele>315.93</ele>
        <time>2013-11-23T15:13:38Z</time>
      </trkpt>
      <trkpt lat="43.2369" lon="5.59028">
        <ele>312.57</ele>
        <time>2013-11-23T15:13:41Z</time>
      </trkpt>
      <trkpt lat="43.2362" lon="5.58969">
        <ele>308.24</ele>
        <time>2013-11-23T15:13:44Z</time>
      </trkpt>
      <trkpt lat="43.23558" lon="5.58898">
        <ele>304.39</ele>
        <time>2013-11-23T15:13:47Z</time>
      </trkpt>
      <trkpt lat="43.23497" lon="5.5883">
        <ele>300.07</ele>
        <time>2013-11-23T15:13:50Z</time>
      </trkpt>
      <trkpt lat="43.23453" lon="5.58789">
        <ele>296.7</ele>
        <time>2013-11-23T15:13:52Z</time>
      </trkpt>
      <trkpt lat="43.23407" lon="5.58753">
        <ele>293.82</ele>
        <time>2013-11-23T15:13:54Z</time>
      </trkpt>
      <trkpt lat="43.23383" lon="5.58737">
        <ele>293.34</ele>
        <time>2013-11-23T15:13:55Z</time>
      </trkpt>
      <trkpt lat="43.2336" lon="5.58724">
        <ele>289.97</ele>
        <time>2013-11-23T15:13:56Z</time>
      </trkpt>
      <trkpt lat="43.23315" lon="5.58703">
        <ele>286.61</ele>
        <time>2013-11-23T15:13:58Z</time>
      </trkpt>
      <trkpt lat="43.23272" lon="5.58688">
        <ele>283.25</ele>
        <time>2013-11-23T15:14:00Z</time>
      </trkpt>
      <trkpt lat="43.23207" lon="5.58668">
        <ele>279.4</ele>
        <time>2013-11-23T15:14:03Z</time>
      </trkpt>
      <trkpt lat="43.23164" lon="5.58651">
        <ele>276.52</ele>
        <time>2013-11-23T15:14:05Z</time>
      </trkpt>
      <trkpt lat="43.23124" lon="5.58631">
        <ele>273.15</ele>
        <time>2013-11-23T15:14:07Z</time>
      </trkpt>
      <trkpt lat="43.23104" lon="5.58619">
        <ele>272.67</ele>
        <time>2013-11-23T15:14:08Z</time>
      </trkpt>
      <trkpt lat="43.23049" lon="5.58571">
        <ele>269.79</ele>
        <time>2013-11-23T15:14:11Z</time>
      </trkpt>
      <trkpt lat="43.23" lon="5.58513">
        <ele>265.94</ele>
        <time>2013-11-23T15:14:14Z</time>
      </trkpt>
      <trkpt lat="43.22966" lon="5.58474">
        <ele>264.5</ele>
        <time>2013-11-23T15:14:16Z</time>
      </trkpt>
      <trkpt lat="43.22915" lon="5.58417">
        <ele>259.69</ele>
        <time>2013-11-23T15:14:19Z</time>
      </trkpt>
      <trkpt lat="43.2286" lon="5.58365">
        <ele>255.85</ele>
        <time>2013-11-23T15:14:22Z</time>
      </trkpt>
      <trkpt lat="43.228" lon="5.58321">
        <ele>252.96</ele>
        <time>2013-11-23T15:14:25Z</time>
      </trkpt>
      <trkpt lat="43.22757" lon="5.58299">
        <ele>248.64</ele>
        <time>2013-11-23T15:14:27Z</time>
      </trkpt>
      <trkpt lat="43.22689" lon="5.58277">
        <ele>244.79</ele>
        <time>2013-11-23T15:14:30Z</time>
      </trkpt>
      <trkpt lat="43.22642" lon="5.58266">
        <ele>240.95</ele>
        <time>2013-11-23T15:14:32Z</time>
      </trkpt>
      <trkpt lat="43.22595" lon="5.58259">
        <ele>237.58</ele>
        <time>2013-11-23T15:14:34Z</time>
      </trkpt>
      <trkpt lat="43.22523" lon="5.58247">
        <ele>232.3</ele>
        <time>2013-11-23T15:14:37Z</time>
      </trkpt>
      <trkpt lat="43.22475" lon="5.58236">
        <ele>228.45</ele>
        <time>2013-11-23T15:14:39Z</time>
      </trkpt>
      <trkpt lat="43.22379" lon="5.58199">
        <ele>223.64</ele>
        <time>2013-11-23T15:14:43Z</time>
      </trkpt>
      <trkpt lat="43.22331" lon="5.58176">
        <ele>219.8</ele>
        <time>2013-11-23T15:14:45Z</time>
      </trkpt>
      <trkpt lat="43.2226" lon="5.58139">
        <ele>214.99</ele>
        <time>2013-11-23T15:14:48Z</time>
      </trkpt>
      <trkpt lat="43.22212" lon="5.58119">
        <ele>210.67</ele>
        <time>2013-11-23T15:14:50Z</time>
      </trkpt>
      <trkpt lat="43.22187" lon="5.5811">
        <ele>210.67</ele>
        <time>2013-11-23T15:14:51Z</time>
      </trkpt>
      <trkpt lat="43.22137" lon="5.58098">
        <ele>206.82</ele>
        <time>2013-11-23T15:14:53Z</time>
      </trkpt>
      <trkpt lat="43.22111" lon="5.58093">
        <ele>206.82</ele>
        <time>2013-11-23T15:14:54Z</time>
      </trkpt>
      <trkpt lat="43.22061" lon="5.58088">
        <ele>203.46</ele>
        <time>2013-11-23T15:14:56Z</time>
      </trkpt>
      <trkpt lat="43.22036" lon="5.58088">
        <ele>200.09</ele>
        <time>2013-11-23T15:14:57Z</time>
      </trkpt>
      <trkpt lat="43.2201" lon="5.58088">
        <ele>200.09</ele>
        <time>2013-11-23T15:14:58Z</time>
      </trkpt>
      <trkpt lat="43.21935" lon="5.58099">
        <ele>196.73</ele>
        <time>2013-11-23T15:15:01Z</time>
      </trkpt>
      <trkpt lat="43.21911" lon="5.58105">
        <ele>198.17</ele>
        <time>2013-11-23T15:15:02Z</time>
      </trkpt>
      <trkpt lat="43.21862" lon="5.58121">
        <ele>193.36</ele>
        <time>2013-11-23T15:15:04Z</time>
      </trkpt>
      <trkpt lat="43.21769" lon="5.58159">
        <ele>190.48</ele>
        <time>2013-11-23T15:15:08Z</time>
      </trkpt>
      <trkpt lat="43.21722" lon="5.58177">
        <ele>188.08</ele>
        <time>2013-11-23T15:15:10Z</time>
      </trkpt>
      <trkpt lat="43.21653" lon="5.58198">
        <ele>184.23</ele>
        <time>2013-11-23T15:15:13Z</time>
      </trkpt>
      <trkpt lat="43.2163" lon="5.58203">
        <ele>185.19</ele>
        <time>2013-11-23T15:15:14Z</time>
      </trkpt>
      <trkpt lat="43.21515" lon="5.58207">
        <ele>181.35</ele>
        <time>2013-11-23T15:15:19Z</time>
      </trkpt>
      <trkpt lat="43.21338" lon="5.58195">
        <ele>177.02</ele>
        <time>2013-11-23T15:15:27Z</time>
      </trkpt>
      <trkpt lat="43.2128" lon="5.58198">
        <ele>175.58</ele>
        <time>2013-11-23T15:15:30Z</time>
      </trkpt>
      <trkpt lat="43.21206" lon="5.58216">
        <ele>172.21</ele>
        <time>2013-11-23T15:15:34Z</time>
      </trkpt>
      <trkpt lat="43.21187" lon="5.58223">
        <ele>172.69</ele>
        <time>2013-11-23T15:15:35Z</time>
      </trkpt>
      <trkpt lat="43.21132" lon="5.5825">
        <ele>169.81</ele>
        <time>2013-11-23T15:15:38Z</time>
      </trkpt>
      <trkpt lat="43.21113" lon="5.58261">
        <ele>170.77</ele>
        <time>2013-11-23T15:15:39Z</time>
      </trkpt>
      <trkpt lat="43.21042" lon="5.58313">
        <ele>164.52</ele>
        <time>2013-11-23T15:15:43Z</time>
      </trkpt>
      <trkpt lat="43.21026" lon="5.58329">
        <ele>165.48</ele>
        <time>2013-11-23T15:15:44Z</time>
      </trkpt>
      <trkpt lat="43.20959" lon="5.58395">
        <ele>162.6</ele>
        <time>2013-11-23T15:15:48Z</time>
      </trkpt>
      <trkpt lat="43.20926" lon="5.58429">
        <ele>159.24</ele>
        <time>2013-11-23T15:15:50Z</time>
      </trkpt>
      <trkpt lat="43.20859" lon="5.58499">
        <ele>154.91</ele>
        <time>2013-11-23T15:15:54Z</time>
      </trkpt>
      <trkpt lat="43.2081" lon="5.5855">
        <ele>151.54</ele>
        <time>2013-11-23T15:15:57Z</time>
      </trkpt>
      <trkpt lat="43.20765" lon="5.58601">
        <ele>148.66</ele>
        <time>2013-11-23T15:16:00Z</time>
      </trkpt>
      <trkpt lat="43.20722" lon="5.58655">
        <ele>144.82</ele>
        <time>2013-11-23T15:16:03Z</time>
      </trkpt>
      <trkpt lat="43.2068" lon="5.58711">
        <ele>141.93</ele>
        <time>2013-11-23T15:16:06Z</time>
      </trkpt>
      <trkpt lat="43.20625" lon="5.58783">
        <ele>138.57</ele>
        <time>2013-11-23T15:16:10Z</time>
      </trkpt>
      <trkpt lat="43.20596" lon="5.58819">
        <ele>137.13</ele>
        <time>2013-11-23T15:16:12Z</time>
      </trkpt>
      <trkpt lat="43.20538" lon="5.5889">
        <ele>133.76</ele>
        <time>2013-11-23T15:16:16Z</time>
      </trkpt>
      <trkpt lat="43.20467" lon="5.58978">
        <ele>130.4</ele>
        <time>2013-11-23T15:16:21Z</time>
      </trkpt>
      <trkpt lat="43.20415" lon="5.59083">
        <ele>127.03</ele>
        <time>2013-11-23T15:16:26Z</time>
      </trkpt>
      <trkpt lat="43.20408" lon="5.59108">
        <ele>124.63</ele>
        <time>2013-11-23T15:16:27Z</time>
      </trkpt>
      <trkpt lat="43.20403" lon="5.59133">
        <ele>125.59</ele>
        <time>2013-11-23T15:16:28Z</time>
      </trkpt>
      <trkpt lat="43.20389" lon="5.59214">
        <ele>122.22</ele>
        <time>2013-11-23T15:16:31Z</time>
      </trkpt>
      <trkpt lat="43.2038" lon="5.59269">
        <ele>118.38</ele>
        <time>2013-11-23T15:16:33Z</time>
      </trkpt>
      <trkpt lat="43.20375" lon="5.59296">
        <ele>118.38</ele>
        <time>2013-11-23T15:16:34Z</time>
      </trkpt>
      <trkpt lat="43.20365" lon="5.59346">
        <ele>114.53</ele>
        <time>2013-11-23T15:16:36Z</time>
      </trkpt>
      <trkpt lat="43.20347" lon="5.59408">
        <ele>112.61</ele>
        <time>2013-11-23T15:16:39Z</time>
      </trkpt>
      <trkpt lat="43.20339" lon="5.59425">
        <ele>111.65</ele>
        <time>2013-11-23T15:16:40Z</time>
      </trkpt>
      <trkpt lat="43.20331" lon="5.59439">
        <ele>111.17</ele>
        <time>2013-11-23T15:16:41Z</time>
      </trkpt>
      <trkpt lat="43.20321" lon="5.59448">
        <ele>110.69</ele>
        <time>2013-11-23T15:16:42Z</time>
      </trkpt>
      <trkpt lat="43.2031" lon="5.59454">
        <ele>110.69</ele>
        <time>2013-11-23T15:16:43Z</time>
      </trkpt>
      <trkpt lat="43.203" lon="5.59456">
        <ele>110.69</ele>
        <time>2013-11-23T15:16:44Z</time>
      </trkpt>
      <trkpt lat="43.20289" lon="5.59454">
        <ele>110.69</ele>
        <time>2013-11-23T15:16:45Z</time>
      </trkpt>
      <trkpt lat="43.20279" lon="5.59449">
        <ele>110.69</ele>
        <time>2013-11-23T15:16:46Z</time>
      </trkpt>
      <trkpt lat="43.20269" lon="5.59444">
        <ele>110.21</ele>
        <time>2013-11-23T15:16:47Z</time>
      </trkpt>
      <trkpt lat="43.20224" lon="5.5942">
        <ele>109.73</ele>
        <time>2013-11-23T15:16:54Z</time>
      </trkpt>
      <trkpt lat="43.20211" lon="5.59412">
        <ele>109.73</ele>
        <time>2013-11-23T15:17:01Z</time>
      </trkpt>
      <trkpt lat="43.2015" lon="5.59394">
        <ele>109.25</ele>
        <time>2013-11-23T15:17:08Z</time>
      </trkpt>
      <trkpt lat="43.20067" lon="5.59399">
        <ele>106.36</ele>
        <time>2013-11-23T15:17:15Z</time>
      </trkpt>
      <trkpt lat="43.20044" lon="5.59401">
        <ele>105.4</ele>
        <time>2013-11-23T15:17:18Z</time>
      </trkpt>
      <trkpt lat="43.20037" lon="5.594">
        <ele>105.4</ele>
        <time>2013-11-23T15:17:19Z</time>
      </trkpt>
      <trkpt lat="43.20024" lon="5.59398">
        <ele>104.92</ele>
        <time>2013-11-23T15:17:21Z</time>
      </trkpt>
      <trkpt lat="43.20017" lon="5.59399">
        <ele>103.96</ele>
        <time>2013-11-23T15:17:22Z</time>
      </trkpt>
      <trkpt lat="43.20011" lon="5.59403">
        <ele>103.96</ele>
        <time>2013-11-23T15:17:23Z</time>
      </trkpt>
      <trkpt lat="43.20006" lon="5.5941">
        <ele>103.48</ele>
        <time>2013-11-23T15:17:24Z</time>
      </trkpt>
      <trkpt lat="43.20002" lon="5.5942">
        <ele>103.48</ele>
        <time>2013-11-23T15:17:25Z</time>
      </trkpt>
      <trkpt lat="43.19997" lon="5.59429">
        <ele>103</ele>
        <time>2013-11-23T15:17:26Z</time>
      </trkpt>
      <trkpt lat="43.19992" lon="5.59438">
        <ele>103.48</ele>
        <time>2013-11-23T15:17:27Z</time>
      </trkpt>
      <trkpt lat="43.19986" lon="5.59447">
        <ele>102.52</ele>
        <time>2013-11-23T15:17:28Z</time>
      </trkpt>
      <trkpt lat="43.19949" lon="5.59494">
        <ele>99.63</ele>
        <time>2013-11-23T15:17:32Z</time>
      </trkpt>
      <trkpt lat="43.19921" lon="5.59542">
        <ele>96.27</ele>
        <time>2013-11-23T15:17:35Z</time>
      </trkpt>
      <trkpt lat="43.19885" lon="5.59615">
        <ele>91.46</ele>
        <time>2013-11-23T15:17:39Z</time>
      </trkpt>
      <trkpt lat="43.19855" lon="5.59672">
        <ele>89.54</ele>
        <time>2013-11-23T15:17:42Z</time>
      </trkpt>
      <trkpt lat="43.1983" lon="5.59709">
        <ele>86.18</ele>
        <time>2013-11-23T15:17:44Z</time>
      </trkpt>
      <trkpt lat="43.19785" lon="5.59761">
        <ele>82.33</ele>
        <time>2013-11-23T15:17:47Z</time>
      </trkpt>
      <trkpt lat="43.19731" lon="5.59807">
        <ele>78</ele>
        <time>2013-11-23T15:17:50Z</time>
      </trkpt>
      <trkpt lat="43.19673" lon="5.59849">
        <ele>73.68</ele>
        <time>2013-11-23T15:17:53Z</time>
      </trkpt>
      <trkpt lat="43.19613" lon="5.5989">
        <ele>69.35</ele>
        <time>2013-11-23T15:17:56Z</time>
      </trkpt>
      <trkpt lat="43.19572" lon="5.59918">
        <ele>65.51</ele>
        <time>2013-11-23T15:17:58Z</time>
      </trkpt>
      <trkpt lat="43.19513" lon="5.59964">
        <ele>60.7</ele>
        <time>2013-11-23T15:18:01Z</time>
      </trkpt>
      <trkpt lat="43.19475" lon="5.59999">
        <ele>57.82</ele>
        <time>2013-11-23T15:18:03Z</time>
      </trkpt>
      <trkpt lat="43.19439" lon="5.60039">
        <ele>53.97</ele>
        <time>2013-11-23T15:18:05Z</time>
      </trkpt>
      <trkpt lat="43.19406" lon="5.60082">
        <ele>51.09</ele>
        <time>2013-11-23T15:18:07Z</time>
      </trkpt>
      <trkpt lat="43.19374" lon="5.60128">
        <ele>46.76</ele>
        <time>2013-11-23T15:18:09Z</time>
      </trkpt>
      <trkpt lat="43.19333" lon="5.60199">
        <ele>42.92</ele>
        <time>2013-11-23T15:18:12Z</time>
      </trkpt>
      <trkpt lat="43.19299" lon="5.60269">
        <ele>40.03</ele>
        <time>2013-11-23T15:18:15Z</time>
      </trkpt>
      <trkpt lat="43.19289" lon="5.6029">
        <ele>39.55</ele>
        <time>2013-11-23T15:18:16Z</time>
      </trkpt>
      <trkpt lat="43.19263" lon="5.60348">
        <ele>37.63</ele>
        <time>2013-11-23T15:18:19Z</time>
      </trkpt>
      <trkpt lat="43.19234" lon="5.60401">
        <ele>34.74</ele>
        <time>2013-11-23T15:18:23Z</time>
      </trkpt>
      <trkpt lat="43.19228" lon="5.60409">
        <ele>33.78</ele>
        <time>2013-11-23T15:18:24Z</time>
      </trkpt>
      <trkpt lat="43.19222" lon="5.60414">
        <ele>33.78</ele>
        <time>2013-11-23T15:18:25Z</time>
      </trkpt>
      <trkpt lat="43.19217" lon="5.60417">
        <ele>32.82</ele>
        <time>2013-11-23T15:18:26Z</time>
      </trkpt>
      <trkpt lat="43.19214" lon="5.6042">
        <ele>33.3</ele>
        <time>2013-11-23T15:18:27Z</time>
      </trkpt>
      <trkpt lat="43.1921" lon="5.60421">
        <ele>33.3</ele>
        <time>2013-11-23T15:18:28Z</time>
      </trkpt>
      <trkpt lat="43.19205" lon="5.60423">
        <ele>33.78</ele>
        <time>2013-11-23T15:18:29Z</time>
      </trkpt>
      <trkpt lat="43.192" lon="5.60424">
        <ele>33.3</ele>
        <time>2013-11-23T15:18:30Z</time>
      </trkpt>
      <trkpt lat="43.19193" lon="5.60425">
        <ele>33.3</ele>
        <time>2013-11-23T15:18:31Z</time>
      </trkpt>
      <trkpt lat="43.19185" lon="5.60426">
        <ele>32.82</ele>
        <time>2013-11-23T15:18:32Z</time>
      </trkpt>
      <trkpt lat="43.19178" lon="5.60429">
        <ele>32.34</ele>
        <time>2013-11-23T15:18:33Z</time>
      </trkpt>
      <trkpt lat="43.19171" lon="5.60433">
        <ele>32.34</ele>
        <time>2013-11-23T15:18:34Z</time>
      </trkpt>
      <trkpt lat="43.19157" lon="5.60444">
        <ele>32.34</ele>
        <time>2013-11-23T15:18:36Z</time>
      </trkpt>
      <trkpt lat="43.1915" lon="5.60448">
        <ele>31.86</ele>
        <time>2013-11-23T15:18:37Z</time>
      </trkpt>
      <trkpt lat="43.19143" lon="5.6045">
        <ele>31.86</ele>
        <time>2013-11-23T15:18:38Z</time>
      </trkpt>
      <trkpt lat="43.19134" lon="5.6045">
        <ele>32.34</ele>
        <time>2013-11-23T15:18:39Z</time>
      </trkpt>
      <trkpt lat="43.19125" lon="5.60448">
        <ele>31.38</ele>
        <time>2013-11-23T15:18:40Z</time>
      </trkpt>
      <trkpt lat="43.19116" lon="5.60444">
        <ele>31.38</ele>
        <time>2013-11-23T15:18:41Z</time>
      </trkpt>
      <trkpt lat="43.19107" lon="5.60439">
        <ele>30.9</ele>
        <time>2013-11-23T15:18:42Z</time>
      </trkpt>
      <trkpt lat="43.19059" lon="5.60416">
        <ele>28.98</ele>
        <time>2013-11-23T15:18:47Z</time>
      </trkpt>
      <trkpt lat="43.19018" lon="5.60396">
        <ele>26.57</ele>
        <time>2013-11-23T15:18:54Z</time>
      </trkpt>
      <trkpt lat="43.18998" lon="5.60381">
        <ele>27.53</ele>
        <time>2013-11-23T15:19:02Z</time>
      </trkpt>
      <trkpt lat="43.18996" lon="5.60375">
        <ele>27.53</ele>
        <time>2013-11-23T15:19:03Z</time>
      </trkpt>
      <trkpt lat="43.18993" lon="5.60369">
        <ele>27.05</ele>
        <time>2013-11-23T15:19:04Z</time>
      </trkpt>
      <trkpt lat="43.18989" lon="5.60363">
        <ele>27.53</ele>
        <time>2013-11-23T15:19:05Z</time>
      </trkpt>
      <trkpt lat="43.18984" lon="5.60359">
        <ele>27.05</ele>
        <time>2013-11-23T15:19:06Z</time>
      </trkpt>
      <trkpt lat="43.18978" lon="5.60356">
        <ele>27.53</ele>
        <time>2013-11-23T15:19:07Z</time>
      </trkpt>
      <trkpt lat="43.18972" lon="5.60356">
        <ele>26.57</ele>
        <time>2013-11-23T15:19:08Z</time>
      </trkpt>
      <trkpt lat="43.18967" lon="5.60358">
        <ele>27.05</ele>
        <time>2013-11-23T15:19:09Z</time>
      </trkpt>
      <trkpt lat="43.18962" lon="5.60362">
        <ele>26.57</ele>
        <time>2013-11-23T15:19:10Z</time>
      </trkpt>
      <trkpt lat="43.18958" lon="5.60368">
        <ele>26.57</ele>
        <time>2013-11-23T15:19:11Z</time>
      </trkpt>
      <trkpt lat="43.18955" lon="5.60374">
        <ele>26.57</ele>
        <time>2013-11-23T15:19:12Z</time>
      </trkpt>
      <trkpt lat="43.18952" lon="5.60383">
        <ele>26.57</ele>
        <time>2013-11-23T15:19:13Z</time>
      </trkpt>
      <trkpt lat="43.1895" lon="5.60391">
        <ele>26.57</ele>
        <time>2013-11-23T15:19:14Z</time>
      </trkpt>
      <trkpt lat="43.18947" lon="5.604">
        <ele>26.09</ele>
        <time>2013-11-23T15:19:15Z</time>
      </trkpt>
      <trkpt lat="43.18943" lon="5.60407">
        <ele>26.09</ele>
        <time>2013-11-23T15:19:16Z</time>
      </trkpt>
      <trkpt lat="43.18938" lon="5.60414">
        <ele>26.09</ele>
        <time>2013-11-23T15:19:17Z</time>
      </trkpt>
      <trkpt lat="43.18924" lon="5.60429">
        <ele>25.61</ele>
        <time>2013-11-23T15:19:19Z</time>
      </trkpt>
      <trkpt lat="43.18915" lon="5.60436">
        <ele>25.13</ele>
        <time>2013-11-23T15:19:20Z</time>
      </trkpt>
      <trkpt lat="43.18906" lon="5.60443">
        <ele>25.13</ele>
        <time>2013-11-23T15:19:21Z</time>
      </trkpt>
      <trkpt lat="43.18831" lon="5.60505">
        <ele>21.29</ele>
        <time>2013-11-23T15:19:29Z</time>
      </trkpt>
      <trkpt lat="43.18803" lon="5.60534">
        <ele>20.81</ele>
        <time>2013-11-23T15:19:35Z</time>
      </trkpt>
      <trkpt lat="43.18798" lon="5.60536">
        <ele>21.29</ele>
        <time>2013-11-23T15:19:36Z</time>
      </trkpt>
      <trkpt lat="43.18794" lon="5.60539">
        <ele>20.81</ele>
        <time>2013-11-23T15:19:37Z</time>
      </trkpt>
      <trkpt lat="43.1879" lon="5.60543">
        <ele>20.81</ele>
        <time>2013-11-23T15:19:38Z</time>
      </trkpt>
      <trkpt lat="43.18787" lon="5.6055">
        <ele>20.81</ele>
        <time>2013-11-23T15:19:39Z</time>
      </trkpt>
      <trkpt lat="43.18783" lon="5.60557">
        <ele>20.81</ele>
        <time>2013-11-23T15:19:40Z</time>
      </trkpt>
      <trkpt lat="43.18778" lon="5.60564">
        <ele>19.84</ele>
        <time>2013-11-23T15:19:41Z</time>
      </trkpt>
      <trkpt lat="43.18773" lon="5.6057">
        <ele>19.84</ele>
        <time>2013-11-23T15:19:42Z</time>
      </trkpt>
      <trkpt lat="43.18767" lon="5.60575">
        <ele>19.84</ele>
        <time>2013-11-23T15:19:43Z</time>
      </trkpt>
      <trkpt lat="43.18761" lon="5.60581">
        <ele>19.84</ele>
        <time>2013-11-23T15:19:44Z</time>
      </trkpt>
      <trkpt lat="43.18753" lon="5.60586">
        <ele>19.84</ele>
        <time>2013-11-23T15:19:45Z</time>
      </trkpt>
      <trkpt lat="43.18745" lon="5.6059">
        <ele>19.84</ele>
        <time>2013-11-23T15:19:46Z</time>
      </trkpt>
      <trkpt lat="43.18738" lon="5.60596">
        <ele>19.36</ele>
        <time>2013-11-23T15:19:47Z</time>
      </trkpt>
      <trkpt lat="43.1873" lon="5.60603">
        <ele>19.36</ele>
        <time>2013-11-23T15:19:48Z</time>
      </trkpt>
      <trkpt lat="43.18659" lon="5.60684">
        <ele>16</ele>
        <time>2013-11-23T15:19:59Z</time>
      </trkpt>
      <trkpt lat="43.18653" lon="5.60691">
        <ele>16</ele>
        <time>2013-11-23T15:20:00Z</time>
      </trkpt>
      <trkpt lat="43.18628" lon="5.60718">
        <ele>15.52</ele>
        <time>2013-11-23T15:20:08Z</time>
      </trkpt>
      <trkpt lat="43.18627" lon="5.60719">
        <ele>15.52</ele>
        <time>2013-11-23T15:20:23Z</time>
      </trkpt>
      <trkpt lat="43.18617" lon="5.6073">
        <ele>16</ele>
        <time>2013-11-23T15:20:27Z</time>
      </trkpt>
      <trkpt lat="43.18613" lon="5.60734">
        <ele>16</ele>
        <time>2013-11-23T15:20:28Z</time>
      </trkpt>
      <trkpt lat="43.18609" lon="5.60739">
        <ele>15.52</ele>
        <time>2013-11-23T15:20:29Z</time>
      </trkpt>
      <trkpt lat="43.18603" lon="5.60744">
        <ele>14.56</ele>
        <time>2013-11-23T15:20:30Z</time>
      </trkpt>
      <trkpt lat="43.18597" lon="5.60748">
        <ele>15.04</ele>
        <time>2013-11-23T15:20:31Z</time>
      </trkpt>
      <trkpt lat="43.18589" lon="5.60752">
        <ele>14.56</ele>
        <time>2013-11-23T15:20:32Z</time>
      </trkpt>
      <trkpt lat="43.18582" lon="5.60754">
        <ele>14.08</ele>
        <time>2013-11-23T15:20:33Z</time>
      </trkpt>
      <trkpt lat="43.18574" lon="5.60754">
        <ele>14.08</ele>
        <time>2013-11-23T15:20:34Z</time>
      </trkpt>
      <trkpt lat="43.18567" lon="5.60754">
        <ele>14.08</ele>
        <time>2013-11-23T15:20:35Z</time>
      </trkpt>
      <trkpt lat="43.1856" lon="5.60752">
        <ele>14.56</ele>
        <time>2013-11-23T15:20:36Z</time>
      </trkpt>
      <trkpt lat="43.18552" lon="5.6075">
        <ele>14.56</ele>
        <time>2013-11-23T15:20:37Z</time>
      </trkpt>
      <trkpt lat="43.18545" lon="5.60746">
        <ele>14.56</ele>
        <time>2013-11-23T15:20:38Z</time>
      </trkpt>
      <trkpt lat="43.1846" lon="5.60689">
        <ele>16.48</ele>
        <time>2013-11-23T15:20:49Z</time>
      </trkpt>
      <trkpt lat="43.18403" lon="5.6064">
        <ele>19.36</ele>
        <time>2013-11-23T15:20:57Z</time>
      </trkpt>
      <trkpt lat="43.18354" lon="5.60595">
        <ele>22.25</ele>
        <time>2013-11-23T15:21:03Z</time>
      </trkpt>
      <trkpt lat="43.1832" lon="5.60565">
        <ele>24.17</ele>
        <time>2013-11-23T15:21:07Z</time>
      </trkpt>
      <trkpt lat="43.18249" lon="5.60534">
        <ele>26.09</ele>
        <time>2013-11-23T15:21:15Z</time>
      </trkpt>
      <trkpt lat="43.18112" lon="5.60524">
        <ele>26.57</ele>
        <time>2013-11-23T15:21:27Z</time>
      </trkpt>
      <trkpt lat="43.18064" lon="5.6052">
        <ele>25.13</ele>
        <time>2013-11-23T15:21:31Z</time>
      </trkpt>
      <trkpt lat="43.18032" lon="5.6052">
        <ele>23.69</ele>
        <time>2013-11-23T15:21:34Z</time>
      </trkpt>
      <trkpt lat="43.17975" lon="5.60532">
        <ele>20.81</ele>
        <time>2013-11-23T15:21:42Z</time>
      </trkpt>
      <trkpt lat="43.17923" lon="5.60544">
        <ele>16.96</ele>
        <time>2013-11-23T15:21:52Z</time>
      </trkpt>
      <trkpt lat="43.17864" lon="5.60559">
        <ele>13.6</ele>
        <time>2013-11-23T15:21:59Z</time>
      </trkpt>
      <trkpt lat="43.17819" lon="5.60567">
        <ele>11.19</ele>
        <time>2013-11-23T15:22:04Z</time>
      </trkpt>
      <trkpt lat="43.17761" lon="5.60579">
        <ele>8.31</ele>
        <time>2013-11-23T15:22:11Z</time>
      </trkpt>
      <trkpt lat="43.17729" lon="5.60586">
        <ele>6.39</ele>
        <time>2013-11-23T15:22:15Z</time>
      </trkpt>
      <trkpt lat="43.17646" lon="5.60583">
        <ele>3.98</ele>
        <time>2013-11-23T15:22:25Z</time>
      </trkpt>
      <trkpt lat="43.17613" lon="5.60582">
        <ele>4.46</ele>
        <time>2013-11-23T15:22:33Z</time>
      </trkpt>
      <trkpt lat="43.17604" lon="5.60578">
        <ele>3.98</ele>
        <time>2013-11-23T15:22:35Z</time>
      </trkpt>
      <trkpt lat="43.17599" lon="5.60576">
        <ele>3.5</ele>
        <time>2013-11-23T15:22:36Z</time>
      </trkpt>
      <trkpt lat="43.17589" lon="5.6057">
        <ele>3.02</ele>
        <time>2013-11-23T15:22:38Z</time>
      </trkpt>
      <trkpt lat="43.17575" lon="5.60562">
        <ele>3.5</ele>
        <time>2013-11-23T15:22:41Z</time>
      </trkpt>
      <trkpt lat="43.17571" lon="5.6056">
        <ele>3.02</ele>
        <time>2013-11-23T15:22:42Z</time>
      </trkpt>
      <trkpt lat="43.17544" lon="5.60546">
        <ele>2.54</ele>
        <time>2013-11-23T15:22:48Z</time>
      </trkpt>
      <trkpt lat="43.17535" lon="5.60542">
        <ele>3.02</ele>
        <time>2013-11-23T15:22:50Z</time>
      </trkpt>
      <trkpt lat="43.17527" lon="5.60538">
        <ele>2.54</ele>
        <time>2013-11-23T15:22:52Z</time>
      </trkpt>
      <trkpt lat="43.17523" lon="5.60537">
        <ele>2.54</ele>
        <time>2013-11-23T15:22:53Z</time>
      </trkpt>
      <trkpt lat="43.17519" lon="5.60538">
        <ele>2.06</ele>
        <time>2013-11-23T15:22:54Z</time>
      </trkpt>
      <trkpt lat="43.17517" lon="5.60537">
        <ele>2.54</ele>
        <time>2013-11-23T15:22:55Z</time>
      </trkpt>
      <trkpt lat="43.17514" lon="5.60537">
        <ele>3.02</ele>
        <time>2013-11-23T15:22:56Z</time>
      </trkpt>
      <trkpt lat="43.1751" lon="5.60537">
        <ele>3.02</ele>
        <time>2013-11-23T15:22:57Z</time>
      </trkpt>
      <trkpt lat="43.17507" lon="5.60538">
        <ele>2.54</ele>
        <time>2013-11-23T15:22:58Z</time>
      </trkpt>
      <trkpt lat="43.17503" lon="5.60538">
        <ele>2.06</ele>
        <time>2013-11-23T15:22:59Z</time>
      </trkpt>
      <trkpt lat="43.17479" lon="5.60542">
        <ele>1.1</ele>
        <time>2013-11-23T15:23:13Z</time>
      </trkpt>
      <trkpt lat="43.17472" lon="5.60541">
        <ele>1.1</ele>
        <time>2013-11-23T15:23:30Z</time>
      </trkpt>
      <trkpt lat="43.17468" lon="5.60543">
        <ele>1.58</ele>
        <time>2013-11-23T15:23:45Z</time>
      </trkpt>
      <trkpt lat="43.1747" lon="5.60541">
        <ele>1.58</ele>
        <time>2013-11-23T15:24:00Z</time>
      </trkpt>
      <trkpt lat="43.1747" lon="5.60541">
        <ele>1.58</ele>
        <time>2013-11-23T15:24:16Z</time>
      </trkpt>
      <trkpt lat="43.1747" lon="5.60541">
        <ele>1.1</ele>
        <time>2013-11-23T15:24:39Z</time>
      </trkpt>
      <trkpt lat="43.1747" lon="5.60542">
        <ele>2.06</ele>
        <time>2013-11-23T15:24:55Z</time>
      </trkpt>
      <trkpt lat="43.1747" lon="5.60542">
        <ele>1.58</ele>
        <time>2013-11-23T15:25:11Z</time>
      </trkpt>
      <trkpt lat="43.1747" lon="5.60542">
        <ele>2.54</ele>
        <time>2013-11-23T15:25:31Z</time>
      </trkpt>
      <trkpt lat="43.17469" lon="5.60542">
        <ele>2.06</ele>
        <time>2013-11-23T15:25:47Z</time>
      </trkpt>
      <trkpt lat="43.17469" lon="5.60542">
        <ele>1.1</ele>
        <time>2013-11-23T15:26:01Z</time>
      </trkpt>
      <trkpt lat="43.17469" lon="5.60542">
        <ele>3.02</ele>
        <time>2013-11-23T15:26:22Z</time>
      </trkpt>
      <trkpt lat="43.17469" lon="5.60542">
        <ele>2.54</ele>
        <time>2013-11-23T15:26:35Z</time>
      </trkpt>
      <trkpt lat="43.17467" lon="5.60542">
        <ele>3.02</ele>
        <time>2013-11-23T15:26:49Z</time>
      </trkpt>
      <trkpt lat="43.17464" lon="5.60541">
        <ele>2.54</ele>
        <time>2013-11-23T15:27:04Z</time>
      </trkpt>
      <trkpt lat="43.17463" lon="5.60541">
        <ele>2.06</ele>
        <time>2013-11-23T15:27:05Z</time>
      </trkpt>
      <trkpt lat="43.17456" lon="5.60557">
        <ele>1.58</ele>
        <time>2013-11-23T15:27:17Z</time>
      </trkpt>
      <trkpt lat="43.17477" lon="5.60586">
        <ele>2.06</ele>
        <time>2013-11-23T15:27:32Z</time>
      </trkpt>
      <trkpt lat="43.17485" lon="5.60604">
        <ele>1.58</ele>
        <time>2013-11-23T15:27:46Z</time>
      </trkpt>
      <trkpt lat="43.17488" lon="5.60603">
        <ele>1.58</ele>
        <time>2013-11-23T15:27:49Z</time>
      </trkpt>
      <trkpt lat="43.17489" lon="5.60602">
        <ele>2.06</ele>
        <time>2013-11-23T15:27:50Z</time>
      </trkpt>
      <trkpt lat="43.17501" lon="5.60588">
        <ele>1.58</ele>
        <time>2013-11-23T15:28:07Z</time>
      </trkpt>
      <trkpt lat="43.17509" lon="5.60584">
        <ele>2.06</ele>
        <time>2013-11-23T15:28:12Z</time>
      </trkpt>
      <trkpt lat="43.1751" lon="5.60583">
        <ele>2.06</ele>
        <time>2013-11-23T15:28:13Z</time>
      </trkpt>
      <trkpt lat="43.17511" lon="5.60583">
        <ele>2.54</ele>
        <time>2013-11-23T15:28:14Z</time>
      </trkpt>
      <trkpt lat="43.17513" lon="5.60582">
        <ele>2.06</ele>
        <time>2013-11-23T15:28:15Z</time>
      </trkpt>
      <trkpt lat="43.17514" lon="5.6058">
        <ele>2.06</ele>
        <time>2013-11-23T15:28:16Z</time>
      </trkpt>
      <trkpt lat="43.17518" lon="5.60579">
        <ele>2.54</ele>
        <time>2013-11-23T15:28:20Z</time>
      </trkpt>
      <trkpt lat="43.17521" lon="5.60581">
        <ele>2.54</ele>
        <time>2013-11-23T15:28:36Z</time>
      </trkpt>
      <trkpt lat="43.17521" lon="5.60581">
        <ele>2.54</ele>
        <time>2013-11-23T15:29:05Z</time>
      </trkpt>
      <trkpt lat="43.17517" lon="5.60573">
        <ele>2.06</ele>
        <time>2013-11-23T15:29:24Z</time>
      </trkpt>
      <trkpt lat="43.17515" lon="5.60573">
        <ele>2.06</ele>
        <time>2013-11-23T15:29:25Z</time>
      </trkpt>
      <trkpt lat="43.17513" lon="5.60573">
        <ele>2.54</ele>
        <time>2013-11-23T15:29:26Z</time>
      </trkpt>
      <trkpt lat="43.17511" lon="5.60574">
        <ele>2.54</ele>
        <time>2013-11-23T15:29:27Z</time>
      </trkpt>
      <trkpt lat="43.17509" lon="5.60575">
        <ele>2.54</ele>
        <time>2013-11-23T15:29:28Z</time>
      </trkpt>
      <trkpt lat="43.17507" lon="5.60576">
        <ele>-2.75</ele>
        <time>2013-11-23T15:29:29Z</time>
      </trkpt>
      <trkpt lat="43.17506" lon="5.60577">
        <ele>3.02</ele>
        <time>2013-11-23T15:29:30Z</time>
      </trkpt>
      <trkpt lat="43.17496" lon="5.60591">
        <ele>6.39</ele>
        <time>2013-11-23T15:29:41Z</time>
      </trkpt>
      <trkpt lat="43.17495" lon="5.60592">
        <ele>0.62</ele>
        <time>2013-11-23T15:29:42Z</time>
      </trkpt>
      <trkpt lat="43.17494" lon="5.60593">
        <ele>4.94</ele>
        <time>2013-11-23T15:29:43Z</time>
      </trkpt>
      <trkpt lat="43.17492" lon="5.60595">
        <ele>2.06</ele>
        <time>2013-11-23T15:29:45Z</time>
      </trkpt>
      <trkpt lat="43.17487" lon="5.606">
        <ele>2.54</ele>
        <time>2013-11-23T15:29:50Z</time>
      </trkpt>
      <trkpt lat="43.17483" lon="5.60597">
        <ele>2.06</ele>
        <time>2013-11-23T15:29:56Z</time>
      </trkpt>
      <trkpt lat="43.17477" lon="5.60588">
        <ele>-1.3</ele>
        <time>2013-11-23T15:30:04Z</time>
      </trkpt>
      <trkpt lat="43.17476" lon="5.60587">
        <ele>2.54</ele>
        <time>2013-11-23T15:30:05Z</time>
      </trkpt>
      <trkpt lat="43.17469" lon="5.60575">
        <ele>1.58</ele>
        <time>2013-11-23T15:30:15Z</time>
      </trkpt>
      <trkpt lat="43.17467" lon="5.60557">
        <ele>2.54</ele>
        <time>2013-11-23T15:30:30Z</time>
      </trkpt>
      <trkpt lat="43.17472" lon="5.60549">
        <ele>3.02</ele>
        <time>2013-11-23T15:30:43Z</time>
      </trkpt>
      <trkpt lat="43.17471" lon="5.60542">
        <ele>4.94</ele>
        <time>2013-11-23T15:30:55Z</time>
      </trkpt>
      <trkpt lat="43.1747" lon="5.60542">
        <ele>0.62</ele>
        <time>2013-11-23T15:31:10Z</time>
      </trkpt>
      <trkpt lat="43.1747" lon="5.60542">
        <ele>3.98</ele>
        <time>2013-11-23T15:31:26Z</time>
      </trkpt>
      <trkpt lat="43.17465" lon="5.60542">
        <ele>2.54</ele>
        <time>2013-11-23T15:31:41Z</time>
      </trkpt>
      <trkpt lat="43.17469" lon="5.60541">
        <ele>3.5</ele>
        <time>2013-11-23T15:31:54Z</time>
      </trkpt>
      <trkpt lat="43.1747" lon="5.60539">
        <ele>-4.67</ele>
        <time>2013-11-23T15:32:04Z</time>
      </trkpt>
      <trkpt lat="43.17471" lon="5.60539">
        <ele>2.06</ele>
        <time>2013-11-23T15:32:05Z</time>
      </trkpt>
      <trkpt lat="43.17472" lon="5.60539">
        <ele>6.39</ele>
        <time>2013-11-23T15:32:06Z</time>
      </trkpt>
      <trkpt lat="43.17472" lon="5.60539">
        <ele>4.46</ele>
        <time>2013-11-23T15:32:07Z</time>
      </trkpt>
      <trkpt lat="43.17473" lon="5.60539">
        <ele>4.94</ele>
        <time>2013-11-23T15:32:10Z</time>
      </trkpt>
      <trkpt lat="43.17476" lon="5.60539">
        <ele>3.02</ele>
        <time>2013-11-23T15:32:13Z</time>
      </trkpt>
      <trkpt lat="43.17478" lon="5.60539">
        <ele>3.98</ele>
        <time>2013-11-23T15:32:14Z</time>
      </trkpt>
      <trkpt lat="43.17486" lon="5.60544">
        <ele>3.98</ele>
        <time>2013-11-23T15:32:24Z</time>
      </trkpt>
      <trkpt lat="43.17501" lon="5.60542">
        <ele>3.98</ele>
        <time>2013-11-23T15:32:38Z</time>
      </trkpt>
      <trkpt lat="43.17511" lon="5.60534">
        <ele>3.98</ele>
        <time>2013-11-23T15:32:50Z</time>
      </trkpt>
      <trkpt lat="43.17517" lon="5.6053">
        <ele>4.46</ele>
        <time>2013-11-23T15:33:02Z</time>
      </trkpt>
      <trkpt lat="43.17522" lon="5.60529">
        <ele>4.46</ele>
        <time>2013-11-23T15:33:13Z</time>
      </trkpt>
      <trkpt lat="43.17522" lon="5.60529">
        <ele>4.94</ele>
        <time>2013-11-23T15:33:30Z</time>
      </trkpt>
      <trkpt lat="43.17524" lon="5.60526">
        <ele>4.94</ele>
        <time>2013-11-23T15:33:36Z</time>
      </trkpt>
      <trkpt lat="43.17527" lon="5.60522">
        <ele>4.94</ele>
        <time>2013-11-23T15:33:40Z</time>
      </trkpt>
      <trkpt lat="43.17534" lon="5.60499">
        <ele>4.46</ele>
        <time>2013-11-23T15:33:47Z</time>
      </trkpt>
      <trkpt lat="43.17539" lon="5.60492">
        <ele>5.42</ele>
        <time>2013-11-23T15:34:00Z</time>
      </trkpt>
      <trkpt lat="43.17538" lon="5.60491">
        <ele>4.94</ele>
        <time>2013-11-23T15:34:17Z</time>
      </trkpt>
      <trkpt lat="43.17538" lon="5.60491">
        <ele>4.46</ele>
        <time>2013-11-23T15:34:25Z</time>
      </trkpt>
      <trkpt lat="43.17536" lon="5.60498">
        <ele>4.46</ele>
        <time>2013-11-23T15:34:33Z</time>
      </trkpt>
      <trkpt lat="43.17535" lon="5.605">
        <ele>5.42</ele>
        <time>2013-11-23T15:34:35Z</time>
      </trkpt>
      <trkpt lat="43.17533" lon="5.60502">
        <ele>4.46</ele>
        <time>2013-11-23T15:34:36Z</time>
      </trkpt>
      <trkpt lat="43.17532" lon="5.60503">
        <ele>4.94</ele>
        <time>2013-11-23T15:34:37Z</time>
      </trkpt>
      <trkpt lat="43.17531" lon="5.60505">
        <ele>3.98</ele>
        <time>2013-11-23T15:34:38Z</time>
      </trkpt>
      <trkpt lat="43.1753" lon="5.60507">
        <ele>3.98</ele>
        <time>2013-11-23T15:34:39Z</time>
      </trkpt>
      <trkpt lat="43.17529" lon="5.60509">
        <ele>4.46</ele>
        <time>2013-11-23T15:34:40Z</time>
      </trkpt>
      <trkpt lat="43.17528" lon="5.60517">
        <ele>4.46</ele>
        <time>2013-11-23T15:34:46Z</time>
      </trkpt>
      <trkpt lat="43.17531" lon="5.60519">
        <ele>4.46</ele>
        <time>2013-11-23T15:34:51Z</time>
      </trkpt>
      <trkpt lat="43.17532" lon="5.6052">
        <ele>4.46</ele>
        <time>2013-11-23T15:34:52Z</time>
      </trkpt>
      <trkpt lat="43.1753" lon="5.6052">
        <ele>4.46</ele>
        <time>2013-11-23T15:34:58Z</time>
      </trkpt>
      <trkpt lat="43.17525" lon="5.60526">
        <ele>4.46</ele>
        <time>2013-11-23T15:35:01Z</time>
      </trkpt>
      <trkpt lat="43.17523" lon="5.60526">
        <ele>3.98</ele>
        <time>2013-11-23T15:35:02Z</time>
      </trkpt>
      <trkpt lat="43.17522" lon="5.60526">
        <ele>3.98</ele>
        <time>2013-11-23T15:35:03Z</time>
      </trkpt>
      <trkpt lat="43.17516" lon="5.60526">
        <ele>3.98</ele>
        <time>2013-11-23T15:35:17Z</time>
      </trkpt>
      <trkpt lat="43.17513" lon="5.60526">
        <ele>3.98</ele>
        <time>2013-11-23T15:35:19Z</time>
      </trkpt>
      <trkpt lat="43.17512" lon="5.60526">
        <ele>3.5</ele>
        <time>2013-11-23T15:35:20Z</time>
      </trkpt>
      <trkpt lat="43.17511" lon="5.60527">
        <ele>3.98</ele>
        <time>2013-11-23T15:35:21Z</time>
      </trkpt>
      <trkpt lat="43.17495" lon="5.60528">
        <ele>3.02</ele>
        <time>2013-11-23T15:35:32Z</time>
      </trkpt>
      <trkpt lat="43.17494" lon="5.60528">
        <ele>3.5</ele>
        <time>2013-11-23T15:35:33Z</time>
      </trkpt>
      <trkpt lat="43.17493" lon="5.60529">
        <ele>3.98</ele>
        <time>2013-11-23T15:35:34Z</time>
      </trkpt>
      <trkpt lat="43.17491" lon="5.60529">
        <ele>3.98</ele>
        <time>2013-11-23T15:35:35Z</time>
      </trkpt>
      <trkpt lat="43.1749" lon="5.6053">
        <ele>3.02</ele>
        <time>2013-11-23T15:35:36Z</time>
      </trkpt>
      <trkpt lat="43.17475" lon="5.60531">
        <ele>3.02</ele>
        <time>2013-11-23T15:35:52Z</time>
      </trkpt>
      <trkpt lat="43.17474" lon="5.60532">
        <ele>3.02</ele>
        <time>2013-11-23T15:36:17Z</time>
      </trkpt>
      <trkpt lat="43.17481" lon="5.60535">
        <ele>3.02</ele>
        <time>2013-11-23T15:36:38Z</time>
      </trkpt>
      <trkpt lat="43.17502" lon="5.60541">
        <ele>3.98</ele>
        <time>2013-11-23T15:36:55Z</time>
      </trkpt>
      <trkpt lat="43.17513" lon="5.60535">
        <ele>4.46</ele>
        <time>2013-11-23T15:37:06Z</time>
      </trkpt>
      <trkpt lat="43.17527" lon="5.60538">
        <ele>3.98</ele>
        <time>2013-11-23T15:37:22Z</time>
      </trkpt>
      <trkpt lat="43.17543" lon="5.60548">
        <ele>4.46</ele>
        <time>2013-11-23T15:37:40Z</time>
      </trkpt>
      <trkpt lat="43.17563" lon="5.60561">
        <ele>3.98</ele>
        <time>2013-11-23T15:37:56Z</time>
      </trkpt>
      <trkpt lat="43.17563" lon="5.60568">
        <ele>3.5</ele>
        <time>2013-11-23T15:38:01Z</time>
      </trkpt>
      <trkpt lat="43.17562" lon="5.60587">
        <ele>1.58</ele>
        <time>2013-11-23T15:38:18Z</time>
      </trkpt>
      <trkpt lat="43.1755" lon="5.60599">
        <ele>1.1</ele>
        <time>2013-11-23T15:38:35Z</time>
      </trkpt>
      <trkpt lat="43.17534" lon="5.60619">
        <ele>0.62</ele>
        <time>2013-11-23T15:38:54Z</time>
      </trkpt>
      <trkpt lat="43.17528" lon="5.60631">
        <ele>0.14</ele>
        <time>2013-11-23T15:39:05Z</time>
      </trkpt>
      <trkpt lat="43.17512" lon="5.60646">
        <ele>-0.34</ele>
        <time>2013-11-23T15:39:24Z</time>
      </trkpt>
      <trkpt lat="43.17498" lon="5.60659">
        <ele>-1.3</ele>
        <time>2013-11-23T15:39:43Z</time>
      </trkpt>
      <trkpt lat="43.17499" lon="5.60658">
        <ele>-0.82</ele>
        <time>2013-11-23T15:39:59Z</time>
      </trkpt>
      <trkpt lat="44.1568" lon="5.32816">
        <ele>1451.73</ele>
        <time>2013-12-07T13:35:22Z</time>
      </trkpt>
      <trkpt lat="44.15682" lon="5.32818">
        <ele>1451.73</ele>
        <time>2013-12-07T13:35:23Z</time>
      </trkpt>
      <trkpt lat="44.15686" lon="5.32834">
        <ele>1447.88</ele>
        <time>2013-12-07T13:35:27Z</time>
      </trkpt>
      <trkpt lat="44.15688" lon="5.32841">
        <ele>1452.21</ele>
        <time>2013-12-07T13:35:28Z</time>
      </trkpt>
      <trkpt lat="44.15693" lon="5.32844">
        <ele>1451.25</ele>
        <time>2013-12-07T13:35:34Z</time>
      </trkpt>
      <trkpt lat="44.15694" lon="5.32844">
        <ele>1447.4</ele>
        <time>2013-12-07T13:35:36Z</time>
      </trkpt>
      <trkpt lat="44.15695" lon="5.32845">
        <ele>1452.21</ele>
        <time>2013-12-07T13:35:37Z</time>
      </trkpt>
      <trkpt lat="44.15694" lon="5.32845">
        <ele>1445</ele>
        <time>2013-12-07T13:35:44Z</time>
      </trkpt>
      <trkpt lat="44.15694" lon="5.32845">
        <ele>1450.29</ele>
        <time>2013-12-07T13:35:45Z</time>
      </trkpt>
      <trkpt lat="44.15693" lon="5.32844">
        <ele>1454.61</ele>
        <time>2013-12-07T13:35:46Z</time>
      </trkpt>
      <trkpt lat="44.15693" lon="5.32844">
        <ele>1451.73</ele>
        <time>2013-12-07T13:35:47Z</time>
      </trkpt>
      <trkpt lat="44.15697" lon="5.32851">
        <ele>1451.25</ele>
        <time>2013-12-07T13:36:09Z</time>
      </trkpt>
      <trkpt lat="44.15697" lon="5.32851">
        <ele>1451.25</ele>
        <time>2013-12-07T13:36:34Z</time>
      </trkpt>
      <trkpt lat="44.15701" lon="5.32846">
        <ele>1451.73</ele>
        <time>2013-12-07T13:37:04Z</time>
      </trkpt>
      <trkpt lat="44.15701" lon="5.32846">
        <ele>1447.88</ele>
        <time>2013-12-07T13:37:08Z</time>
      </trkpt>
      <trkpt lat="44.15701" lon="5.32846">
        <ele>1451.73</ele>
        <time>2013-12-07T13:37:09Z</time>
      </trkpt>
      <trkpt lat="44.15701" lon="5.32846">
        <ele>1455.57</ele>
        <time>2013-12-07T13:37:11Z</time>
      </trkpt>
      <trkpt lat="44.15701" lon="5.32846">
        <ele>1452.21</ele>
        <time>2013-12-07T13:37:12Z</time>
      </trkpt>
      <trkpt lat="44.157" lon="5.32848">
        <ele>1452.21</ele>
        <time>2013-12-07T13:37:28Z</time>
      </trkpt>
      <trkpt lat="44.157" lon="5.32848">
        <ele>1453.17</ele>
        <time>2013-12-07T13:37:57Z</time>
      </trkpt>
      <trkpt lat="44.15701" lon="5.32848">
        <ele>1453.17</ele>
        <time>2013-12-07T13:38:31Z</time>
      </trkpt>
      <trkpt lat="44.15701" lon="5.32848">
        <ele>1445.48</ele>
        <time>2013-12-07T13:38:49Z</time>
      </trkpt>
      <trkpt lat="44.15701" lon="5.32848">
        <ele>1456.05</ele>
        <time>2013-12-07T13:38:50Z</time>
      </trkpt>
      <trkpt lat="44.15701" lon="5.32848">
        <ele>1452.69</ele>
        <time>2013-12-07T13:38:53Z</time>
      </trkpt>
      <trkpt lat="44.15701" lon="5.32848">
        <ele>1453.65</ele>
        <time>2013-12-07T13:39:16Z</time>
      </trkpt>
      <trkpt lat="44.15702" lon="5.32848">
        <ele>1457.98</ele>
        <time>2013-12-07T13:39:28Z</time>
      </trkpt>
      <trkpt lat="44.15702" lon="5.32847">
        <ele>1455.09</ele>
        <time>2013-12-07T13:39:29Z</time>
      </trkpt>
      <trkpt lat="44.15701" lon="5.32842">
        <ele>1453.65</ele>
        <time>2013-12-07T13:39:47Z</time>
      </trkpt>
      <trkpt lat="44.15701" lon="5.32842">
        <ele>1454.61</ele>
        <time>2013-12-07T13:40:08Z</time>
      </trkpt>
      <trkpt lat="44.15702" lon="5.32843">
        <ele>1455.09</ele>
        <time>2013-12-07T13:40:31Z</time>
      </trkpt>
      <trkpt lat="44.15702" lon="5.32842">
        <ele>1455.57</ele>
        <time>2013-12-07T13:40:55Z</time>
      </trkpt>
      <trkpt lat="44.15702" lon="5.32842">
        <ele>1456.05</ele>
        <time>2013-12-07T13:41:21Z</time>
      </trkpt>
      <trkpt lat="44.15702" lon="5.32837">
        <ele>1456.53</ele>
        <time>2013-12-07T13:41:41Z</time>
      </trkpt>
      <trkpt lat="44.15702" lon="5.32837">
        <ele>1457.02</ele>
        <time>2013-12-07T13:42:18Z</time>
      </trkpt>
      <trkpt lat="44.15702" lon="5.32834">
        <ele>1458.94</ele>
        <time>2013-12-07T13:42:46Z</time>
      </trkpt>
      <trkpt lat="44.15702" lon="5.32825">
        <ele>1459.42</ele>
        <time>2013-12-07T13:43:02Z</time>
      </trkpt>
      <trkpt lat="44.15702" lon="5.32825">
        <ele>1461.34</ele>
        <time>2013-12-07T13:43:28Z</time>
      </trkpt>
      <trkpt lat="44.15702" lon="5.32825">
        <ele>1464.23</ele>
        <time>2013-12-07T13:43:38Z</time>
      </trkpt>
      <trkpt lat="44.15704" lon="5.32825">
        <ele>1465.19</ele>
        <time>2013-12-07T13:43:55Z</time>
      </trkpt>
      <trkpt lat="44.15704" lon="5.32825">
        <ele>1468.55</ele>
        <time>2013-12-07T13:44:06Z</time>
      </trkpt>
      <trkpt lat="44.15704" lon="5.32825">
        <ele>1469.03</ele>
        <time>2013-12-07T13:44:20Z</time>
      </trkpt>
      <trkpt lat="44.15705" lon="5.32826">
        <ele>1467.11</ele>
        <time>2013-12-07T13:44:37Z</time>
      </trkpt>
      <trkpt lat="44.15707" lon="5.32824">
        <ele>1466.15</ele>
        <time>2013-12-07T13:44:57Z</time>
      </trkpt>
      <trkpt lat="44.15707" lon="5.32824">
        <ele>1466.15</ele>
        <time>2013-12-07T13:45:23Z</time>
      </trkpt>
      <trkpt lat="44.15704" lon="5.32819">
        <ele>1464.23</ele>
        <time>2013-12-07T13:45:39Z</time>
      </trkpt>
      <trkpt lat="44.15704" lon="5.32819">
        <ele>1461.82</ele>
        <time>2013-12-07T13:46:02Z</time>
      </trkpt>
      <trkpt lat="44.15705" lon="5.32805">
        <ele>1462.3</ele>
        <time>2013-12-07T13:46:18Z</time>
      </trkpt>
      <trkpt lat="44.15707" lon="5.32801">
        <ele>1463.26</ele>
        <time>2013-12-07T13:46:20Z</time>
      </trkpt>
      <trkpt lat="44.15711" lon="5.32789">
        <ele>1463.26</ele>
        <time>2013-12-07T13:46:39Z</time>
      </trkpt>
      <trkpt lat="44.15712" lon="5.32789">
        <ele>1463.74</ele>
        <time>2013-12-07T13:47:01Z</time>
      </trkpt>
      <trkpt lat="44.15713" lon="5.32774">
        <ele>1465.67</ele>
        <time>2013-12-07T13:47:17Z</time>
      </trkpt>
      <trkpt lat="44.15714" lon="5.32772">
        <ele>1465.67</ele>
        <time>2013-12-07T13:47:38Z</time>
      </trkpt>
      <trkpt lat="44.15712" lon="5.32771">
        <ele>1468.07</ele>
        <time>2013-12-07T13:47:55Z</time>
      </trkpt>
      <trkpt lat="44.15712" lon="5.32773">
        <ele>1471.44</ele>
        <time>2013-12-07T13:48:11Z</time>
      </trkpt>
      <trkpt lat="44.15713" lon="5.32771">
        <ele>1468.55</ele>
        <time>2013-12-07T13:48:31Z</time>
      </trkpt>
      <trkpt lat="44.15713" lon="5.32765">
        <ele>1466.15</ele>
        <time>2013-12-07T13:48:43Z</time>
      </trkpt>
      <trkpt lat="44.15711" lon="5.32757">
        <ele>1463.26</ele>
        <time>2013-12-07T13:48:52Z</time>
      </trkpt>
      <trkpt lat="44.15708" lon="5.32756">
        <ele>1461.34</ele>
        <time>2013-12-07T13:49:13Z</time>
      </trkpt>
      <trkpt lat="44.15706" lon="5.32756">
        <ele>1457.98</ele>
        <time>2013-12-07T13:49:29Z</time>
      </trkpt>
      <trkpt lat="44.15704" lon="5.32755">
        <ele>1457.5</ele>
        <time>2013-12-07T13:49:36Z</time>
      </trkpt>
      <trkpt lat="44.15699" lon="5.32757">
        <ele>1457.02</ele>
        <time>2013-12-07T13:49:56Z</time>
      </trkpt>
      <trkpt lat="44.15697" lon="5.32758">
        <ele>1460.38</ele>
        <time>2013-12-07T13:50:18Z</time>
      </trkpt>
      <trkpt lat="44.15697" lon="5.32758">
        <ele>1457.5</ele>
        <time>2013-12-07T13:50:19Z</time>
      </trkpt>
      <trkpt lat="44.15698" lon="5.32756">
        <ele>1460.38</ele>
        <time>2013-12-07T13:50:23Z</time>
      </trkpt>
      <trkpt lat="44.15699" lon="5.32755">
        <ele>1459.42</ele>
        <time>2013-12-07T13:50:41Z</time>
      </trkpt>
      <trkpt lat="44.15697" lon="5.32746">
        <ele>1458.46</ele>
        <time>2013-12-07T13:51:04Z</time>
      </trkpt>
      <trkpt lat="44.1569" lon="5.32747">
        <ele>1454.61</ele>
        <time>2013-12-07T13:51:20Z</time>
      </trkpt>
      <trkpt lat="44.1569" lon="5.32749">
        <ele>1457.02</ele>
        <time>2013-12-07T13:51:40Z</time>
      </trkpt>
      <trkpt lat="44.1569" lon="5.32747">
        <ele>1457.5</ele>
        <time>2013-12-07T13:51:47Z</time>
      </trkpt>
      <trkpt lat="44.15695" lon="5.32741">
        <ele>1458.94</ele>
        <time>2013-12-07T13:52:07Z</time>
      </trkpt>
      <trkpt lat="44.15701" lon="5.32732">
        <ele>1460.38</ele>
        <time>2013-12-07T13:52:17Z</time>
      </trkpt>
      <trkpt lat="44.15705" lon="5.32735">
        <ele>1461.82</ele>
        <time>2013-12-07T13:52:35Z</time>
      </trkpt>
      <trkpt lat="44.15705" lon="5.32735">
        <ele>1462.3</ele>
        <time>2013-12-07T13:52:56Z</time>
      </trkpt>
      <trkpt lat="44.15706" lon="5.32734">
        <ele>1463.26</ele>
        <time>2013-12-07T13:53:14Z</time>
      </trkpt>
      <trkpt lat="44.15705" lon="5.32731">
        <ele>1464.71</ele>
        <time>2013-12-07T13:53:31Z</time>
      </trkpt>
      <trkpt lat="44.15695" lon="5.32735">
        <ele>1462.3</ele>
        <time>2013-12-07T13:53:44Z</time>
      </trkpt>
      <trkpt lat="44.15695" lon="5.32735">
        <ele>1463.26</ele>
        <time>2013-12-07T13:54:03Z</time>
      </trkpt>
      <trkpt lat="44.15695" lon="5.32734">
        <ele>1463.26</ele>
        <time>2013-12-07T13:54:30Z</time>
      </trkpt>
      <trkpt lat="44.15695" lon="5.32734">
        <ele>1463.74</ele>
        <time>2013-12-07T13:54:58Z</time>
      </trkpt>
      <trkpt lat="44.15695" lon="5.32734">
        <ele>1464.71</ele>
        <time>2013-12-07T13:55:32Z</time>
      </trkpt>
      <trkpt lat="44.15696" lon="5.32735">
        <ele>1465.19</ele>
        <time>2013-12-07T13:55:58Z</time>
      </trkpt>
      <trkpt lat="44.15696" lon="5.32735">
        <ele>1464.71</ele>
        <time>2013-12-07T13:56:26Z</time>
      </trkpt>
      <trkpt lat="44.15696" lon="5.32735">
        <ele>1465.67</ele>
        <time>2013-12-07T13:56:54Z</time>
      </trkpt>
      <trkpt lat="44.15696" lon="5.32735">
        <ele>1465.67</ele>
        <time>2013-12-07T13:57:21Z</time>
      </trkpt>
      <trkpt lat="44.15697" lon="5.32737">
        <ele>1467.11</ele>
        <time>2013-12-07T13:57:34Z</time>
      </trkpt>
      <trkpt lat="44.157" lon="5.32743">
        <ele>1470.95</ele>
        <time>2013-12-07T13:57:46Z</time>
      </trkpt>
      <trkpt lat="44.15703" lon="5.32744">
        <ele>1471.44</ele>
        <time>2013-12-07T13:58:01Z</time>
      </trkpt>
      <trkpt lat="44.15703" lon="5.32744">
        <ele>1474.8</ele>
        <time>2013-12-07T13:58:08Z</time>
      </trkpt>
      <trkpt lat="44.15704" lon="5.32744">
        <ele>1474.8</ele>
        <time>2013-12-07T13:58:30Z</time>
      </trkpt>
      <trkpt lat="44.15704" lon="5.32744">
        <ele>1475.76</ele>
        <time>2013-12-07T13:58:59Z</time>
      </trkpt>
      <trkpt lat="44.15704" lon="5.32744">
        <ele>1475.76</ele>
        <time>2013-12-07T13:59:27Z</time>
      </trkpt>
      <trkpt lat="44.15705" lon="5.32744">
        <ele>1475.76</ele>
        <time>2013-12-07T13:59:56Z</time>
      </trkpt>
      <trkpt lat="44.15705" lon="5.32744">
        <ele>1475.76</ele>
        <time>2013-12-07T14:00:22Z</time>
      </trkpt>
      <trkpt lat="44.15705" lon="5.32744">
        <ele>1476.24</ele>
        <time>2013-12-07T14:00:48Z</time>
      </trkpt>
      <trkpt lat="44.15705" lon="5.32745">
        <ele>1476.72</ele>
        <time>2013-12-07T14:01:15Z</time>
      </trkpt>
      <trkpt lat="44.15707" lon="5.32757">
        <ele>1476.72</ele>
        <time>2013-12-07T14:01:27Z</time>
      </trkpt>
      <trkpt lat="44.15707" lon="5.32757">
        <ele>1476.72</ele>
        <time>2013-12-07T14:01:28Z</time>
      </trkpt>
      <trkpt lat="44.15705" lon="5.32767">
        <ele>1476.72</ele>
        <time>2013-12-07T14:01:38Z</time>
      </trkpt>
      <trkpt lat="44.15703" lon="5.32774">
        <ele>1475.76</ele>
        <time>2013-12-07T14:01:44Z</time>
      </trkpt>
      <trkpt lat="44.15699" lon="5.32789">
        <ele>1477.68</ele>
        <time>2013-12-07T14:01:57Z</time>
      </trkpt>
      <trkpt lat="44.15699" lon="5.32791">
        <ele>1475.76</ele>
        <time>2013-12-07T14:01:59Z</time>
      </trkpt>
      <trkpt lat="44.15703" lon="5.32803">
        <ele>1475.76</ele>
        <time>2013-12-07T14:02:14Z</time>
      </trkpt>
      <trkpt lat="44.15704" lon="5.32805">
        <ele>1475.76</ele>
        <time>2013-12-07T14:02:43Z</time>
      </trkpt>
      <trkpt lat="44.15704" lon="5.32808">
        <ele>1476.72</ele>
        <time>2013-12-07T14:03:02Z</time>
      </trkpt>
      <trkpt lat="44.15705" lon="5.32808">
        <ele>1476.24</ele>
        <time>2013-12-07T14:03:28Z</time>
      </trkpt>
      <trkpt lat="44.15703" lon="5.3281">
        <ele>1475.76</ele>
        <time>2013-12-07T14:03:44Z</time>
      </trkpt>
      <trkpt lat="44.157" lon="5.32814">
        <ele>1477.2</ele>
        <time>2013-12-07T14:04:02Z</time>
      </trkpt>
      <trkpt lat="44.15696" lon="5.32828">
        <ele>1475.76</ele>
        <time>2013-12-07T14:04:19Z</time>
      </trkpt>
      <trkpt lat="44.15695" lon="5.32832">
        <ele>1475.76</ele>
        <time>2013-12-07T14:04:36Z</time>
      </trkpt>
      <trkpt lat="44.15695" lon="5.32832">
        <ele>1474.32</ele>
        <time>2013-12-07T14:04:44Z</time>
      </trkpt>
      <trkpt lat="44.15695" lon="5.32832">
        <ele>1475.76</ele>
        <time>2013-12-07T14:04:45Z</time>
      </trkpt>
      <trkpt lat="44.15692" lon="5.32835">
        <ele>1473.36</ele>
        <time>2013-12-07T14:05:05Z</time>
      </trkpt>
      <trkpt lat="44.15688" lon="5.32837">
        <ele>1470.47</ele>
        <time>2013-12-07T14:05:23Z</time>
      </trkpt>
      <trkpt lat="44.15683" lon="5.32841">
        <ele>1467.11</ele>
        <time>2013-12-07T14:05:41Z</time>
      </trkpt>
      <trkpt lat="44.15682" lon="5.32842">
        <ele>1466.63</ele>
        <time>2013-12-07T14:06:01Z</time>
      </trkpt>
      <trkpt lat="44.15682" lon="5.32842">
        <ele>1467.11</ele>
        <time>2013-12-07T14:06:19Z</time>
      </trkpt>
      <trkpt lat="44.15685" lon="5.32849">
        <ele>1462.78</ele>
        <time>2013-12-07T14:06:33Z</time>
      </trkpt>
      <trkpt lat="44.15685" lon="5.32849">
        <ele>1469.03</ele>
        <time>2013-12-07T14:06:34Z</time>
      </trkpt>
      <trkpt lat="44.15684" lon="5.32849">
        <ele>1469.03</ele>
        <time>2013-12-07T14:06:35Z</time>
      </trkpt>
      <trkpt lat="44.15684" lon="5.32848">
        <ele>1466.15</ele>
        <time>2013-12-07T14:06:36Z</time>
      </trkpt>
      <trkpt lat="44.15684" lon="5.32848">
        <ele>1466.15</ele>
        <time>2013-12-07T14:06:37Z</time>
      </trkpt>
      <trkpt lat="44.15684" lon="5.32847">
        <ele>1467.11</ele>
        <time>2013-12-07T14:07:01Z</time>
      </trkpt>
      <trkpt lat="44.15685" lon="5.32849">
        <ele>1470.95</ele>
        <time>2013-12-07T14:07:16Z</time>
      </trkpt>
      <trkpt lat="44.15685" lon="5.32849">
        <ele>1470.47</ele>
        <time>2013-12-07T14:07:17Z</time>
      </trkpt>
      <trkpt lat="44.15685" lon="5.32849">
        <ele>1466.63</ele>
        <time>2013-12-07T14:07:18Z</time>
      </trkpt>
      <trkpt lat="44.15685" lon="5.32849">
        <ele>1469.51</ele>
        <time>2013-12-07T14:07:19Z</time>
      </trkpt>
      <trkpt lat="44.15685" lon="5.32849">
        <ele>1473.36</ele>
        <time>2013-12-07T14:07:38Z</time>
      </trkpt>
      <trkpt lat="44.1569" lon="5.32853">
        <ele>1473.84</ele>
        <time>2013-12-07T14:07:47Z</time>
      </trkpt>
      <trkpt lat="44.15692" lon="5.32854">
        <ele>1476.72</ele>
        <time>2013-12-07T14:07:49Z</time>
      </trkpt>
      <trkpt lat="44.15693" lon="5.32856">
        <ele>1475.76</ele>
        <time>2013-12-07T14:08:04Z</time>
      </trkpt>
      <trkpt lat="44.15693" lon="5.32856">
        <ele>1475.76</ele>
        <time>2013-12-07T14:08:33Z</time>
      </trkpt>
      <trkpt lat="44.15693" lon="5.32856">
        <ele>1475.76</ele>
        <time>2013-12-07T14:09:04Z</time>
      </trkpt>
      <trkpt lat="44.15693" lon="5.32857">
        <ele>1474.8</ele>
        <time>2013-12-07T14:09:38Z</time>
      </trkpt>
      <trkpt lat="44.15694" lon="5.32857">
        <ele>1477.2</ele>
        <time>2013-12-07T14:09:41Z</time>
      </trkpt>
      <trkpt lat="44.15692" lon="5.32853">
        <ele>1473.36</ele>
        <time>2013-12-07T14:09:56Z</time>
      </trkpt>
      <trkpt lat="44.15692" lon="5.32853">
        <ele>1475.28</ele>
        <time>2013-12-07T14:10:02Z</time>
      </trkpt>
      <trkpt lat="44.15691" lon="5.32852">
        <ele>1471.92</ele>
        <time>2013-12-07T14:10:08Z</time>
      </trkpt>
      <trkpt lat="44.15688" lon="5.3285">
        <ele>1470.47</ele>
        <time>2013-12-07T14:10:29Z</time>
      </trkpt>
      <trkpt lat="44.15688" lon="5.3285">
        <ele>1469.51</ele>
        <time>2013-12-07T14:10:51Z</time>
      </trkpt>
      <trkpt lat="44.15688" lon="5.3285">
        <ele>1472.88</ele>
        <time>2013-12-07T14:11:16Z</time>
      </trkpt>
      <trkpt lat="44.15686" lon="5.32855">
        <ele>1475.28</ele>
        <time>2013-12-07T14:11:35Z</time>
      </trkpt>
      <trkpt lat="44.15686" lon="5.32855">
        <ele>1471.92</ele>
        <time>2013-12-07T14:11:49Z</time>
      </trkpt>
      <trkpt lat="44.15684" lon="5.3286">
        <ele>1475.28</ele>
        <time>2013-12-07T14:11:54Z</time>
      </trkpt>
      <trkpt lat="44.15679" lon="5.3287">
        <ele>1473.84</ele>
        <time>2013-12-07T14:12:09Z</time>
      </trkpt>
      <trkpt lat="44.15675" lon="5.32875">
        <ele>1472.88</ele>
        <time>2013-12-07T14:12:24Z</time>
      </trkpt>
      <trkpt lat="44.15676" lon="5.3287">
        <ele>1470.47</ele>
        <time>2013-12-07T14:12:44Z</time>
      </trkpt>
      <trkpt lat="44.15675" lon="5.3287">
        <ele>1468.07</ele>
        <time>2013-12-07T14:12:55Z</time>
      </trkpt>
      <trkpt lat="44.1567" lon="5.32865">
        <ele>1466.15</ele>
        <time>2013-12-07T14:13:17Z</time>
      </trkpt>
      <trkpt lat="44.15669" lon="5.32865">
        <ele>1463.74</ele>
        <time>2013-12-07T14:13:32Z</time>
      </trkpt>
      <trkpt lat="44.15664" lon="5.32852">
        <ele>1460.38</ele>
        <time>2013-12-07T14:13:40Z</time>
      </trkpt>
      <trkpt lat="44.15664" lon="5.32852">
        <ele>1457.98</ele>
        <time>2013-12-07T14:14:03Z</time>
      </trkpt>
      <trkpt lat="44.15664" lon="5.32852">
        <ele>1456.53</ele>
        <time>2013-12-07T14:14:08Z</time>
      </trkpt>
      <trkpt lat="44.15658" lon="5.32846">
        <ele>1453.17</ele>
        <time>2013-12-07T14:14:18Z</time>
      </trkpt>
      <trkpt lat="44.15649" lon="5.32837">
        <ele>1449.32</ele>
        <time>2013-12-07T14:14:28Z</time>
      </trkpt>
      <trkpt lat="44.15649" lon="5.32837">
        <ele>1449.32</ele>
        <time>2013-12-07T14:14:29Z</time>
      </trkpt>
      <trkpt lat="44.1564" lon="5.32819">
        <ele>1445.48</ele>
        <time>2013-12-07T14:14:42Z</time>
      </trkpt>
      <trkpt lat="44.15637" lon="5.32818">
        <ele>1445.96</ele>
        <time>2013-12-07T14:14:43Z</time>
      </trkpt>
      <trkpt lat="44.1563" lon="5.32814">
        <ele>1443.56</ele>
        <time>2013-12-07T14:14:48Z</time>
      </trkpt>
      <trkpt lat="44.15628" lon="5.32812">
        <ele>1440.19</ele>
        <time>2013-12-07T14:14:52Z</time>
      </trkpt>
      <trkpt lat="44.15627" lon="5.32809">
        <ele>1436.83</ele>
        <time>2013-12-07T14:15:08Z</time>
      </trkpt>
      <trkpt lat="44.15627" lon="5.32809">
        <ele>1435.87</ele>
        <time>2013-12-07T14:15:10Z</time>
      </trkpt>
      <trkpt lat="44.15624" lon="5.32807">
        <ele>1432.98</ele>
        <time>2013-12-07T14:15:20Z</time>
      </trkpt>
      <trkpt lat="44.15614" lon="5.32795">
        <ele>1431.06</ele>
        <time>2013-12-07T14:15:25Z</time>
      </trkpt>
      <trkpt lat="44.15608" lon="5.32786">
        <ele>1429.62</ele>
        <time>2013-12-07T14:15:28Z</time>
      </trkpt>
      <trkpt lat="44.15594" lon="5.32773">
        <ele>1427.7</ele>
        <time>2013-12-07T14:15:41Z</time>
      </trkpt>
      <trkpt lat="44.15586" lon="5.32771">
        <ele>1424.81</ele>
        <time>2013-12-07T14:15:56Z</time>
      </trkpt>
      <trkpt lat="44.15586" lon="5.32771">
        <ele>1424.81</ele>
        <time>2013-12-07T14:16:15Z</time>
      </trkpt>
      <trkpt lat="44.15586" lon="5.32771">
        <ele>1425.29</ele>
        <time>2013-12-07T14:16:47Z</time>
      </trkpt>
      <trkpt lat="44.15586" lon="5.32771">
        <ele>1425.77</ele>
        <time>2013-12-07T14:17:06Z</time>
      </trkpt>
      <trkpt lat="44.15589" lon="5.32772">
        <ele>1427.7</ele>
        <time>2013-12-07T14:17:31Z</time>
      </trkpt>
      <trkpt lat="44.15592" lon="5.32793">
        <ele>1429.62</ele>
        <time>2013-12-07T14:17:50Z</time>
      </trkpt>
      <trkpt lat="44.15601" lon="5.32793">
        <ele>1431.54</ele>
        <time>2013-12-07T14:18:07Z</time>
      </trkpt>
      <trkpt lat="44.15609" lon="5.32798">
        <ele>1433.46</ele>
        <time>2013-12-07T14:18:25Z</time>
      </trkpt>
      <trkpt lat="44.15613" lon="5.328">
        <ele>1432.98</ele>
        <time>2013-12-07T14:18:38Z</time>
      </trkpt>
      <trkpt lat="44.15613" lon="5.328">
        <ele>1436.35</ele>
        <time>2013-12-07T14:18:40Z</time>
      </trkpt>
      <trkpt lat="44.15616" lon="5.32793">
        <ele>1435.39</ele>
        <time>2013-12-07T14:19:00Z</time>
      </trkpt>
      <trkpt lat="44.15616" lon="5.32793">
        <ele>1438.75</ele>
        <time>2013-12-07T14:19:13Z</time>
      </trkpt>
      <trkpt lat="44.15616" lon="5.32793">
        <ele>1435.39</ele>
        <time>2013-12-07T14:19:14Z</time>
      </trkpt>
      <trkpt lat="44.15603" lon="5.32783">
        <ele>1432.98</ele>
        <time>2013-12-07T14:19:30Z</time>
      </trkpt>
      <trkpt lat="44.15595" lon="5.32775">
        <ele>1431.06</ele>
        <time>2013-12-07T14:19:50Z</time>
      </trkpt>
      <trkpt lat="44.15584" lon="5.32773">
        <ele>1429.14</ele>
        <time>2013-12-07T14:20:03Z</time>
      </trkpt>
      <trkpt lat="44.15575" lon="5.32776">
        <ele>1425.77</ele>
        <time>2013-12-07T14:20:13Z</time>
      </trkpt>
      <trkpt lat="44.15574" lon="5.32776">
        <ele>1426.25</ele>
        <time>2013-12-07T14:20:14Z</time>
      </trkpt>
      <trkpt lat="44.15562" lon="5.32779">
        <ele>1422.89</ele>
        <time>2013-12-07T14:20:28Z</time>
      </trkpt>
      <trkpt lat="44.15549" lon="5.32782">
        <ele>1419.52</ele>
        <time>2013-12-07T14:20:42Z</time>
      </trkpt>
      <trkpt lat="44.15544" lon="5.32781">
        <ele>1417.6</ele>
        <time>2013-12-07T14:20:53Z</time>
      </trkpt>
      <trkpt lat="44.15534" lon="5.32783">
        <ele>1415.68</ele>
        <time>2013-12-07T14:20:59Z</time>
      </trkpt>
      <trkpt lat="44.15525" lon="5.32783">
        <ele>1414.72</ele>
        <time>2013-12-07T14:21:05Z</time>
      </trkpt>
      <trkpt lat="44.15515" lon="5.32783">
        <ele>1413.28</ele>
        <time>2013-12-07T14:21:13Z</time>
      </trkpt>
      <trkpt lat="44.15498" lon="5.32774">
        <ele>1410.39</ele>
        <time>2013-12-07T14:21:27Z</time>
      </trkpt>
      <trkpt lat="44.15486" lon="5.32772">
        <ele>1407.99</ele>
        <time>2013-12-07T14:21:42Z</time>
      </trkpt>
      <trkpt lat="44.15472" lon="5.32775">
        <ele>1404.14</ele>
        <time>2013-12-07T14:21:56Z</time>
      </trkpt>
      <trkpt lat="44.15471" lon="5.3277">
        <ele>1406.55</ele>
        <time>2013-12-07T14:22:10Z</time>
      </trkpt>
      <trkpt lat="44.15471" lon="5.3277">
        <ele>1407.99</ele>
        <time>2013-12-07T14:22:18Z</time>
      </trkpt>
      <trkpt lat="44.15475" lon="5.32766">
        <ele>1411.83</ele>
        <time>2013-12-07T14:22:28Z</time>
      </trkpt>
      <trkpt lat="44.15483" lon="5.32767">
        <ele>1412.31</ele>
        <time>2013-12-07T14:22:48Z</time>
      </trkpt>
      <trkpt lat="44.15483" lon="5.32767">
        <ele>1413.28</ele>
        <time>2013-12-07T14:22:58Z</time>
      </trkpt>
      <trkpt lat="44.15474" lon="5.32758">
        <ele>1413.28</ele>
        <time>2013-12-07T14:23:18Z</time>
      </trkpt>
      <trkpt lat="44.15474" lon="5.32758">
        <ele>1415.2</ele>
        <time>2013-12-07T14:23:37Z</time>
      </trkpt>
      <trkpt lat="44.15474" lon="5.32758">
        <ele>1418.56</ele>
        <time>2013-12-07T14:23:45Z</time>
      </trkpt>
      <trkpt lat="44.15474" lon="5.32758">
        <ele>1415.68</ele>
        <time>2013-12-07T14:23:46Z</time>
      </trkpt>
      <trkpt lat="44.15474" lon="5.32758">
        <ele>1417.12</ele>
        <time>2013-12-07T14:24:02Z</time>
      </trkpt>
      <trkpt lat="44.15474" lon="5.32756">
        <ele>1420.49</ele>
        <time>2013-12-07T14:24:11Z</time>
      </trkpt>
      <trkpt lat="44.15473" lon="5.32755">
        <ele>1417.12</ele>
        <time>2013-12-07T14:24:20Z</time>
      </trkpt>
      <trkpt lat="44.1547" lon="5.32754">
        <ele>1416.64</ele>
        <time>2013-12-07T14:24:44Z</time>
      </trkpt>
      <trkpt lat="44.15466" lon="5.32757">
        <ele>1415.2</ele>
        <time>2013-12-07T14:25:05Z</time>
      </trkpt>
      <trkpt lat="44.15466" lon="5.32761">
        <ele>1415.2</ele>
        <time>2013-12-07T14:25:19Z</time>
      </trkpt>
      <trkpt lat="44.15466" lon="5.32761">
        <ele>1419.52</ele>
        <time>2013-12-07T14:25:25Z</time>
      </trkpt>
      <trkpt lat="44.15466" lon="5.32761">
        <ele>1416.16</ele>
        <time>2013-12-07T14:25:26Z</time>
      </trkpt>
      <trkpt lat="44.15466" lon="5.32761">
        <ele>1416.64</ele>
        <time>2013-12-07T14:25:46Z</time>
      </trkpt>
      <trkpt lat="44.15466" lon="5.32761">
        <ele>1418.08</ele>
        <time>2013-12-07T14:26:13Z</time>
      </trkpt>
      <trkpt lat="44.15467" lon="5.32761">
        <ele>1418.08</ele>
        <time>2013-12-07T14:26:38Z</time>
      </trkpt>
      <trkpt lat="44.15462" lon="5.32753">
        <ele>1415.68</ele>
        <time>2013-12-07T14:26:52Z</time>
      </trkpt>
      <trkpt lat="44.15464" lon="5.32754">
        <ele>1414.24</ele>
        <time>2013-12-07T14:27:10Z</time>
      </trkpt>
      <trkpt lat="44.1547" lon="5.32763">
        <ele>1411.35</ele>
        <time>2013-12-07T14:27:24Z</time>
      </trkpt>
      <trkpt lat="44.15468" lon="5.32776">
        <ele>1407.99</ele>
        <time>2013-12-07T14:27:36Z</time>
      </trkpt>
      <trkpt lat="44.15468" lon="5.32781">
        <ele>1406.55</ele>
        <time>2013-12-07T14:27:42Z</time>
      </trkpt>
      <trkpt lat="44.15468" lon="5.32788">
        <ele>1406.55</ele>
        <time>2013-12-07T14:27:49Z</time>
      </trkpt>
      <trkpt lat="44.15468" lon="5.32788">
        <ele>1408.47</ele>
        <time>2013-12-07T14:28:13Z</time>
      </trkpt>
      <trkpt lat="44.15477" lon="5.32797">
        <ele>1409.91</ele>
        <time>2013-12-07T14:28:31Z</time>
      </trkpt>
      <trkpt lat="44.15482" lon="5.32797">
        <ele>1408.95</ele>
        <time>2013-12-07T14:28:52Z</time>
      </trkpt>
      <trkpt lat="44.15483" lon="5.32798">
        <ele>1411.83</ele>
        <time>2013-12-07T14:28:53Z</time>
      </trkpt>
      <trkpt lat="44.15483" lon="5.32798">
        <ele>1411.35</ele>
        <time>2013-12-07T14:28:54Z</time>
      </trkpt>
      <trkpt lat="44.15492" lon="5.32808">
        <ele>1411.83</ele>
        <time>2013-12-07T14:29:07Z</time>
      </trkpt>
      <trkpt lat="44.15502" lon="5.32808">
        <ele>1414.72</ele>
        <time>2013-12-07T14:29:18Z</time>
      </trkpt>
      <trkpt lat="44.15522" lon="5.328">
        <ele>1414.72</ele>
        <time>2013-12-07T14:29:38Z</time>
      </trkpt>
      <trkpt lat="44.15526" lon="5.328">
        <ele>1418.08</ele>
        <time>2013-12-07T14:29:43Z</time>
      </trkpt>
      <trkpt lat="44.15538" lon="5.32799">
        <ele>1420.97</ele>
        <time>2013-12-07T14:30:03Z</time>
      </trkpt>
      <trkpt lat="44.15538" lon="5.328">
        <ele>1418.08</ele>
        <time>2013-12-07T14:30:04Z</time>
      </trkpt>
      <trkpt lat="44.15538" lon="5.328">
        <ele>1421.45</ele>
        <time>2013-12-07T14:30:06Z</time>
      </trkpt>
      <trkpt lat="44.15545" lon="5.32803">
        <ele>1421.93</ele>
        <time>2013-12-07T14:30:19Z</time>
      </trkpt>
      <trkpt lat="44.15551" lon="5.32802">
        <ele>1424.81</ele>
        <time>2013-12-07T14:30:29Z</time>
      </trkpt>
      <trkpt lat="44.15551" lon="5.32802">
        <ele>1425.29</ele>
        <time>2013-12-07T14:30:30Z</time>
      </trkpt>
      <trkpt lat="44.15572" lon="5.328">
        <ele>1426.73</ele>
        <time>2013-12-07T14:30:46Z</time>
      </trkpt>
      <trkpt lat="44.15583" lon="5.328">
        <ele>1430.1</ele>
        <time>2013-12-07T14:31:03Z</time>
      </trkpt>
      <trkpt lat="44.1559" lon="5.328">
        <ele>1430.58</ele>
        <time>2013-12-07T14:31:22Z</time>
      </trkpt>
      <trkpt lat="44.15595" lon="5.32802">
        <ele>1432.02</ele>
        <time>2013-12-07T14:31:39Z</time>
      </trkpt>
      <trkpt lat="44.15595" lon="5.32802">
        <ele>1435.87</ele>
        <time>2013-12-07T14:32:01Z</time>
      </trkpt>
      <trkpt lat="44.15595" lon="5.32802">
        <ele>1432.5</ele>
        <time>2013-12-07T14:32:03Z</time>
      </trkpt>
      <trkpt lat="44.15595" lon="5.32802">
        <ele>1432.02</ele>
        <time>2013-12-07T14:32:04Z</time>
      </trkpt>
      <trkpt lat="44.15596" lon="5.32799">
        <ele>1432.98</ele>
        <time>2013-12-07T14:32:22Z</time>
      </trkpt>
      <trkpt lat="44.15597" lon="5.32798">
        <ele>1434.42</ele>
        <time>2013-12-07T14:32:38Z</time>
      </trkpt>
      <trkpt lat="44.15599" lon="5.32797">
        <ele>1433.46</ele>
        <time>2013-12-07T14:32:52Z</time>
      </trkpt>
      <trkpt lat="44.15599" lon="5.32797">
        <ele>1436.83</ele>
        <time>2013-12-07T14:33:08Z</time>
      </trkpt>
      <trkpt lat="44.15602" lon="5.32794">
        <ele>1433.46</ele>
        <time>2013-12-07T14:33:24Z</time>
      </trkpt>
      <trkpt lat="44.156" lon="5.32797">
        <ele>1433.94</ele>
        <time>2013-12-07T14:33:44Z</time>
      </trkpt>
      <trkpt lat="44.15601" lon="5.32801">
        <ele>1435.39</ele>
        <time>2013-12-07T14:34:00Z</time>
      </trkpt>
      <trkpt lat="44.15608" lon="5.32804">
        <ele>1438.27</ele>
        <time>2013-12-07T14:34:11Z</time>
      </trkpt>
      <trkpt lat="44.15608" lon="5.32805">
        <ele>1434.91</ele>
        <time>2013-12-07T14:34:12Z</time>
      </trkpt>
      <trkpt lat="44.15608" lon="5.32806">
        <ele>1438.27</ele>
        <time>2013-12-07T14:34:13Z</time>
      </trkpt>
      <trkpt lat="44.15612" lon="5.32811">
        <ele>1440.19</ele>
        <time>2013-12-07T14:34:25Z</time>
      </trkpt>
      <trkpt lat="44.15615" lon="5.32816">
        <ele>1444.04</ele>
        <time>2013-12-07T14:34:34Z</time>
      </trkpt>
      <trkpt lat="44.15625" lon="5.32821">
        <ele>1447.4</ele>
        <time>2013-12-07T14:34:52Z</time>
      </trkpt>
      <trkpt lat="44.15625" lon="5.32821">
        <ele>1446.92</ele>
        <time>2013-12-07T14:34:56Z</time>
      </trkpt>
      <trkpt lat="44.15626" lon="5.32821">
        <ele>1450.77</ele>
        <time>2013-12-07T14:35:02Z</time>
      </trkpt>
      <trkpt lat="44.1563" lon="5.32822">
        <ele>1447.88</ele>
        <time>2013-12-07T14:35:11Z</time>
      </trkpt>
      <trkpt lat="44.1563" lon="5.32822">
        <ele>1451.25</ele>
        <time>2013-12-07T14:35:12Z</time>
      </trkpt>
      <trkpt lat="44.15639" lon="5.32828">
        <ele>1454.61</ele>
        <time>2013-12-07T14:35:31Z</time>
      </trkpt>
      <trkpt lat="44.15639" lon="5.32829">
        <ele>1456.05</ele>
        <time>2013-12-07T14:35:55Z</time>
      </trkpt>
      <trkpt lat="44.1564" lon="5.32829">
        <ele>1456.53</ele>
        <time>2013-12-07T14:35:59Z</time>
      </trkpt>
      <trkpt lat="44.1564" lon="5.32829">
        <ele>1458.94</ele>
        <time>2013-12-07T14:36:12Z</time>
      </trkpt>
      <trkpt lat="44.15649" lon="5.3283">
        <ele>1462.3</ele>
        <time>2013-12-07T14:36:23Z</time>
      </trkpt>
      <trkpt lat="44.1565" lon="5.32831">
        <ele>1461.34</ele>
        <time>2013-12-07T14:36:27Z</time>
      </trkpt>
      <trkpt lat="44.15653" lon="5.32835">
        <ele>1465.19</ele>
        <time>2013-12-07T14:36:41Z</time>
      </trkpt>
      <trkpt lat="44.15651" lon="5.32843">
        <ele>1465.19</ele>
        <time>2013-12-07T14:37:00Z</time>
      </trkpt>
      <trkpt lat="44.15653" lon="5.32847">
        <ele>1467.11</ele>
        <time>2013-12-07T14:37:20Z</time>
      </trkpt>
      <trkpt lat="44.15658" lon="5.32855">
        <ele>1470.47</ele>
        <time>2013-12-07T14:37:37Z</time>
      </trkpt>
      <trkpt lat="44.15658" lon="5.32855">
        <ele>1469.51</ele>
        <time>2013-12-07T14:37:59Z</time>
      </trkpt>
      <trkpt lat="44.15659" lon="5.32856">
        <ele>1468.07</ele>
        <time>2013-12-07T14:38:22Z</time>
      </trkpt>
      <trkpt lat="44.15659" lon="5.32856">
        <ele>1471.44</ele>
        <time>2013-12-07T14:38:27Z</time>
      </trkpt>
      <trkpt lat="44.15659" lon="5.32856">
        <ele>1469.99</ele>
        <time>2013-12-07T14:38:42Z</time>
      </trkpt>
      <trkpt lat="44.1566" lon="5.32856">
        <ele>1473.36</ele>
        <time>2013-12-07T14:38:53Z</time>
      </trkpt>
      <trkpt lat="44.15667" lon="5.32858">
        <ele>1469.51</ele>
        <time>2013-12-07T14:39:01Z</time>
      </trkpt>
      <trkpt lat="44.15667" lon="5.32858">
        <ele>1472.88</ele>
        <time>2013-12-07T14:39:03Z</time>
      </trkpt>
      <trkpt lat="44.15667" lon="5.32858">
        <ele>1473.36</ele>
        <time>2013-12-07T14:39:19Z</time>
      </trkpt>
      <trkpt lat="44.15667" lon="5.32858">
        <ele>1475.28</ele>
        <time>2013-12-07T14:39:26Z</time>
      </trkpt>
      <trkpt lat="44.15668" lon="5.32856">
        <ele>1475.28</ele>
        <time>2013-12-07T14:39:43Z</time>
      </trkpt>
      <trkpt lat="44.15671" lon="5.32859">
        <ele>1475.76</ele>
        <time>2013-12-07T14:39:51Z</time>
      </trkpt>
      <trkpt lat="44.15676" lon="5.32863">
        <ele>1477.68</ele>
        <time>2013-12-07T14:40:09Z</time>
      </trkpt>
      <trkpt lat="44.15676" lon="5.32863">
        <ele>1479.13</ele>
        <time>2013-12-07T14:40:29Z</time>
      </trkpt>
      <trkpt lat="44.15677" lon="5.32863">
        <ele>1476.72</ele>
        <time>2013-12-07T14:40:55Z</time>
      </trkpt>
      <trkpt lat="44.15676" lon="5.32862">
        <ele>1475.76</ele>
        <time>2013-12-07T14:41:10Z</time>
      </trkpt>
      <trkpt lat="44.15674" lon="5.32857">
        <ele>1473.36</ele>
        <time>2013-12-07T14:41:25Z</time>
      </trkpt>
      <trkpt lat="44.15675" lon="5.32857">
        <ele>1473.36</ele>
        <time>2013-12-07T14:41:40Z</time>
      </trkpt>
      <trkpt lat="44.15665" lon="5.32859">
        <ele>1472.88</ele>
        <time>2013-12-07T14:41:56Z</time>
      </trkpt>
      <trkpt lat="44.15659" lon="5.32863">
        <ele>1473.84</ele>
        <time>2013-12-07T14:42:09Z</time>
      </trkpt>
      <trkpt lat="44.15655" lon="5.32866">
        <ele>1478.16</ele>
        <time>2013-12-07T14:42:18Z</time>
      </trkpt>
      <trkpt lat="44.15655" lon="5.32866">
        <ele>1472.88</ele>
        <time>2013-12-07T14:42:19Z</time>
      </trkpt>
      <trkpt lat="44.15658" lon="5.32873">
        <ele>1476.72</ele>
        <time>2013-12-07T14:42:28Z</time>
      </trkpt>
      <trkpt lat="44.15658" lon="5.32873">
        <ele>1475.76</ele>
        <time>2013-12-07T14:42:29Z</time>
      </trkpt>
      <trkpt lat="44.15658" lon="5.32873">
        <ele>1475.28</ele>
        <time>2013-12-07T14:42:55Z</time>
      </trkpt>
      <trkpt lat="44.15658" lon="5.32873">
        <ele>1475.76</ele>
        <time>2013-12-07T14:43:32Z</time>
      </trkpt>
      <trkpt lat="44.15655" lon="5.32873">
        <ele>1475.76</ele>
        <time>2013-12-07T14:44:07Z</time>
      </trkpt>
      <trkpt lat="44.15655" lon="5.32874">
        <ele>1475.76</ele>
        <time>2013-12-07T14:44:36Z</time>
      </trkpt>
      <trkpt lat="44.15656" lon="5.32873">
        <ele>1475.76</ele>
        <time>2013-12-07T14:45:15Z</time>
      </trkpt>
      <trkpt lat="44.15656" lon="5.32874">
        <ele>1476.24</ele>
        <time>2013-12-07T14:45:48Z</time>
      </trkpt>
      <trkpt lat="44.15656" lon="5.32874">
        <ele>1475.76</ele>
        <time>2013-12-07T14:46:21Z</time>
      </trkpt>
      <trkpt lat="44.15655" lon="5.32873">
        <ele>1475.76</ele>
        <time>2013-12-07T14:46:51Z</time>
      </trkpt>
      <trkpt lat="44.15654" lon="5.32878">
        <ele>1476.24</ele>
        <time>2013-12-07T14:47:16Z</time>
      </trkpt>
      <trkpt lat="44.15679" lon="5.32875">
        <ele>1475.76</ele>
        <time>2013-12-07T14:47:37Z</time>
      </trkpt>
      <trkpt lat="44.15679" lon="5.32878">
        <ele>1476.72</ele>
        <time>2013-12-07T14:48:02Z</time>
      </trkpt>
      <trkpt lat="44.15679" lon="5.32878">
        <ele>1476.24</ele>
        <time>2013-12-07T14:48:29Z</time>
      </trkpt>
      <trkpt lat="44.15665" lon="5.32863">
        <ele>1472.88</ele>
        <time>2013-12-07T14:48:37Z</time>
      </trkpt>
      <trkpt lat="44.15662" lon="5.32854">
        <ele>1470.95</ele>
        <time>2013-12-07T14:48:40Z</time>
      </trkpt>
      <trkpt lat="44.15661" lon="5.32851">
        <ele>1469.03</ele>
        <time>2013-12-07T14:48:42Z</time>
      </trkpt>
      <trkpt lat="44.15658" lon="5.32841">
        <ele>1465.67</ele>
        <time>2013-12-07T14:48:48Z</time>
      </trkpt>
      <trkpt lat="44.15653" lon="5.32833">
        <ele>1464.23</ele>
        <time>2013-12-07T14:48:52Z</time>
      </trkpt>
      <trkpt lat="44.15652" lon="5.32831">
        <ele>1462.78</ele>
        <time>2013-12-07T14:48:53Z</time>
      </trkpt>
      <trkpt lat="44.15645" lon="5.32826">
        <ele>1460.38</ele>
        <time>2013-12-07T14:48:57Z</time>
      </trkpt>
      <trkpt lat="44.15642" lon="5.32823">
        <ele>1457.02</ele>
        <time>2013-12-07T14:49:03Z</time>
      </trkpt>
      <trkpt lat="44.15642" lon="5.32822">
        <ele>1457.02</ele>
        <time>2013-12-07T14:49:10Z</time>
      </trkpt>
      <trkpt lat="44.15634" lon="5.32811">
        <ele>1453.17</ele>
        <time>2013-12-07T14:49:20Z</time>
      </trkpt>
      <trkpt lat="44.15633" lon="5.3281">
        <ele>1453.17</ele>
        <time>2013-12-07T14:49:21Z</time>
      </trkpt>
      <trkpt lat="44.15628" lon="5.32804">
        <ele>1449.81</ele>
        <time>2013-12-07T14:49:27Z</time>
      </trkpt>
      <trkpt lat="44.15625" lon="5.32799">
        <ele>1448.84</ele>
        <time>2013-12-07T14:49:30Z</time>
      </trkpt>
      <trkpt lat="44.15623" lon="5.32796">
        <ele>1447.4</ele>
        <time>2013-12-07T14:49:32Z</time>
      </trkpt>
      <trkpt lat="44.15617" lon="5.32789">
        <ele>1444.04</ele>
        <time>2013-12-07T14:49:37Z</time>
      </trkpt>
      <trkpt lat="44.15615" lon="5.32787">
        <ele>1443.08</ele>
        <time>2013-12-07T14:49:39Z</time>
      </trkpt>
      <trkpt lat="44.15608" lon="5.3278">
        <ele>1439.71</ele>
        <time>2013-12-07T14:49:45Z</time>
      </trkpt>
      <trkpt lat="44.15607" lon="5.32779">
        <ele>1439.23</ele>
        <time>2013-12-07T14:49:46Z</time>
      </trkpt>
      <trkpt lat="44.15601" lon="5.32773">
        <ele>1437.31</ele>
        <time>2013-12-07T14:49:51Z</time>
      </trkpt>
      <trkpt lat="44.15598" lon="5.32775">
        <ele>1436.35</ele>
        <time>2013-12-07T14:50:09Z</time>
      </trkpt>
      <trkpt lat="44.15598" lon="5.32775">
        <ele>1437.31</ele>
        <time>2013-12-07T14:50:30Z</time>
      </trkpt>
      <trkpt lat="44.15598" lon="5.32775">
        <ele>1437.31</ele>
        <time>2013-12-07T14:51:00Z</time>
      </trkpt>
      <trkpt lat="44.15598" lon="5.32775">
        <ele>1438.27</ele>
        <time>2013-12-07T14:51:28Z</time>
      </trkpt>
      <trkpt lat="44.15598" lon="5.32775">
        <ele>1438.75</ele>
        <time>2013-12-07T14:52:02Z</time>
      </trkpt>
      <trkpt lat="44.15598" lon="5.32775">
        <ele>1439.23</ele>
        <time>2013-12-07T14:52:26Z</time>
      </trkpt>
      <trkpt lat="44.15597" lon="5.32776">
        <ele>1439.23</ele>
        <time>2013-12-07T14:52:56Z</time>
      </trkpt>
      <trkpt lat="44.15594" lon="5.32783">
        <ele>1439.71</ele>
        <time>2013-12-07T14:53:22Z</time>
      </trkpt>
      <trkpt lat="44.15594" lon="5.32784">
        <ele>1440.67</ele>
        <time>2013-12-07T14:53:55Z</time>
      </trkpt>
      <trkpt lat="44.15593" lon="5.32781">
        <ele>1439.71</ele>
        <time>2013-12-07T14:54:22Z</time>
      </trkpt>
      <trkpt lat="44.15579" lon="5.32773">
        <ele>1437.31</ele>
        <time>2013-12-07T14:54:34Z</time>
      </trkpt>
      <trkpt lat="44.15567" lon="5.32772">
        <ele>1434.91</ele>
        <time>2013-12-07T14:54:48Z</time>
      </trkpt>
      <trkpt lat="44.15558" lon="5.32775">
        <ele>1432.02</ele>
        <time>2013-12-07T14:55:02Z</time>
      </trkpt>
      <trkpt lat="44.15557" lon="5.32775">
        <ele>1432.02</ele>
        <time>2013-12-07T14:55:03Z</time>
      </trkpt>
      <trkpt lat="44.15543" lon="5.32779">
        <ele>1429.14</ele>
        <time>2013-12-07T14:55:20Z</time>
      </trkpt>
      <trkpt lat="44.1554" lon="5.32781">
        <ele>1427.7</ele>
        <time>2013-12-07T14:55:23Z</time>
      </trkpt>
      <trkpt lat="44.15527" lon="5.32784">
        <ele>1424.33</ele>
        <time>2013-12-07T14:55:38Z</time>
      </trkpt>
      <trkpt lat="44.15526" lon="5.32784">
        <ele>1423.85</ele>
        <time>2013-12-07T14:55:42Z</time>
      </trkpt>
      <trkpt lat="44.15511" lon="5.32777">
        <ele>1422.41</ele>
        <time>2013-12-07T14:55:54Z</time>
      </trkpt>
      <trkpt lat="44.15508" lon="5.32777">
        <ele>1422.89</ele>
        <time>2013-12-07T14:55:56Z</time>
      </trkpt>
      <trkpt lat="44.155" lon="5.32775">
        <ele>1420</ele>
        <time>2013-12-07T14:56:05Z</time>
      </trkpt>
      <trkpt lat="44.15494" lon="5.32774">
        <ele>1419.52</ele>
        <time>2013-12-07T14:56:13Z</time>
      </trkpt>
      <trkpt lat="44.15478" lon="5.32773">
        <ele>1415.68</ele>
        <time>2013-12-07T14:56:29Z</time>
      </trkpt>
      <trkpt lat="44.15462" lon="5.3277">
        <ele>1413.76</ele>
        <time>2013-12-07T14:56:45Z</time>
      </trkpt>
      <trkpt lat="44.15451" lon="5.32769">
        <ele>1411.83</ele>
        <time>2013-12-07T14:56:57Z</time>
      </trkpt>
      <trkpt lat="44.15436" lon="5.32765">
        <ele>1409.91</ele>
        <time>2013-12-07T14:57:12Z</time>
      </trkpt>
      <trkpt lat="44.15425" lon="5.32766">
        <ele>1407.51</ele>
        <time>2013-12-07T14:57:27Z</time>
      </trkpt>
      <trkpt lat="44.15415" lon="5.32767">
        <ele>1406.07</ele>
        <time>2013-12-07T14:57:36Z</time>
      </trkpt>
      <trkpt lat="44.15403" lon="5.32767">
        <ele>1403.66</ele>
        <time>2013-12-07T14:57:49Z</time>
      </trkpt>
      <trkpt lat="44.15396" lon="5.32768">
        <ele>1403.18</ele>
        <time>2013-12-07T14:57:54Z</time>
      </trkpt>
      <trkpt lat="44.15386" lon="5.32766">
        <ele>1400.3</ele>
        <time>2013-12-07T14:58:08Z</time>
      </trkpt>
      <trkpt lat="44.15371" lon="5.32771">
        <ele>1397.89</ele>
        <time>2013-12-07T14:58:23Z</time>
      </trkpt>
      <trkpt lat="44.15359" lon="5.32778">
        <ele>1397.89</ele>
        <time>2013-12-07T14:58:34Z</time>
      </trkpt>
      <trkpt lat="44.15344" lon="5.32784">
        <ele>1398.37</ele>
        <time>2013-12-07T14:58:50Z</time>
      </trkpt>
      <trkpt lat="44.15343" lon="5.32785">
        <ele>1398.86</ele>
        <time>2013-12-07T14:59:13Z</time>
      </trkpt>
      <trkpt lat="44.15345" lon="5.32788">
        <ele>1398.86</ele>
        <time>2013-12-07T14:59:34Z</time>
      </trkpt>
      <trkpt lat="44.15345" lon="5.32788">
        <ele>1397.89</ele>
        <time>2013-12-07T14:59:59Z</time>
      </trkpt>
      <trkpt lat="44.15344" lon="5.32789">
        <ele>1398.86</ele>
        <time>2013-12-07T15:00:22Z</time>
      </trkpt>
      <trkpt lat="44.15342" lon="5.32791">
        <ele>1398.86</ele>
        <time>2013-12-07T15:00:42Z</time>
      </trkpt>
      <trkpt lat="44.15341" lon="5.32789">
        <ele>1399.82</ele>
        <time>2013-12-07T15:01:03Z</time>
      </trkpt>
      <trkpt lat="44.1534" lon="5.32788">
        <ele>1399.34</ele>
        <time>2013-12-07T15:01:23Z</time>
      </trkpt>
      <trkpt lat="44.1534" lon="5.32788">
        <ele>1398.86</ele>
        <time>2013-12-07T15:01:43Z</time>
      </trkpt>
      <trkpt lat="44.1534" lon="5.32785">
        <ele>1398.37</ele>
        <time>2013-12-07T15:02:05Z</time>
      </trkpt>
      <trkpt lat="44.1534" lon="5.32785">
        <ele>1397.89</ele>
        <time>2013-12-07T15:02:27Z</time>
      </trkpt>
      <trkpt lat="44.1534" lon="5.32785">
        <ele>1398.37</ele>
        <time>2013-12-07T15:02:51Z</time>
      </trkpt>
      <trkpt lat="44.15341" lon="5.32787">
        <ele>1398.86</ele>
        <time>2013-12-07T15:03:19Z</time>
      </trkpt>
      <trkpt lat="44.1534" lon="5.32788">
        <ele>1399.34</ele>
        <time>2013-12-07T15:03:38Z</time>
      </trkpt>
      <trkpt lat="44.1534" lon="5.32789">
        <ele>1398.37</ele>
        <time>2013-12-07T15:04:00Z</time>
      </trkpt>
      <trkpt lat="44.1534" lon="5.32789">
        <ele>1398.86</ele>
        <time>2013-12-07T15:04:23Z</time>
      </trkpt>
      <trkpt lat="44.1534" lon="5.32789">
        <ele>1398.86</ele>
        <time>2013-12-07T15:04:53Z</time>
      </trkpt>
      <trkpt lat="44.1534" lon="5.32789">
        <ele>1398.37</ele>
        <time>2013-12-07T15:05:17Z</time>
      </trkpt>
      <trkpt lat="44.1534" lon="5.32789">
        <ele>1398.86</ele>
        <time>2013-12-07T15:05:39Z</time>
      </trkpt>
      <trkpt lat="44.1534" lon="5.32788">
        <ele>1398.37</ele>
        <time>2013-12-07T15:06:07Z</time>
      </trkpt>
      <trkpt lat="44.1534" lon="5.32791">
        <ele>1398.37</ele>
        <time>2013-12-07T15:06:29Z</time>
      </trkpt>
      <trkpt lat="44.1534" lon="5.32791">
        <ele>1398.37</ele>
        <time>2013-12-07T15:06:48Z</time>
      </trkpt>
      <trkpt lat="44.15341" lon="5.32791">
        <ele>1398.37</ele>
        <time>2013-12-07T15:07:16Z</time>
      </trkpt>
      <trkpt lat="44.15341" lon="5.3279">
        <ele>1397.89</ele>
        <time>2013-12-07T15:07:47Z</time>
      </trkpt>
      <trkpt lat="44.15341" lon="5.3279">
        <ele>1398.37</ele>
        <time>2013-12-07T15:08:15Z</time>
      </trkpt>
      <trkpt lat="44.1534" lon="5.32791">
        <ele>1398.86</ele>
        <time>2013-12-07T15:08:47Z</time>
      </trkpt>
      <trkpt lat="44.1534" lon="5.32791">
        <ele>1398.37</ele>
        <time>2013-12-07T15:09:25Z</time>
      </trkpt>
      <trkpt lat="44.15341" lon="5.32789">
        <ele>1398.86</ele>
        <time>2013-12-07T15:09:46Z</time>
      </trkpt>
      <trkpt lat="44.15341" lon="5.32789">
        <ele>1398.37</ele>
        <time>2013-12-07T15:10:09Z</time>
      </trkpt>
      <trkpt lat="44.15341" lon="5.32789">
        <ele>1398.86</ele>
        <time>2013-12-07T15:10:40Z</time>
      </trkpt>
      <trkpt lat="44.15341" lon="5.32789">
        <ele>1398.37</ele>
        <time>2013-12-07T15:11:06Z</time>
      </trkpt>
      <trkpt lat="44.1534" lon="5.32788">
        <ele>1398.37</ele>
        <time>2013-12-07T15:11:35Z</time>
      </trkpt>
      <trkpt lat="44.1534" lon="5.32788">
        <ele>1397.89</ele>
        <time>2013-12-07T15:12:06Z</time>
      </trkpt>
      <trkpt lat="44.1534" lon="5.32787">
        <ele>1397.89</ele>
        <time>2013-12-07T15:12:34Z</time>
      </trkpt>
      <trkpt lat="44.1534" lon="5.32787">
        <ele>1398.37</ele>
        <time>2013-12-07T15:13:01Z</time>
      </trkpt>
      <trkpt lat="44.1534" lon="5.32788">
        <ele>1397.89</ele>
        <time>2013-12-07T15:13:25Z</time>
      </trkpt>
      <trkpt lat="44.1534" lon="5.32788">
        <ele>1397.89</ele>
        <time>2013-12-07T15:13:52Z</time>
      </trkpt>
      <trkpt lat="44.1534" lon="5.32788">
        <ele>1398.37</ele>
        <time>2013-12-07T15:14:17Z</time>
      </trkpt>
      <trkpt lat="44.1534" lon="5.32788">
        <ele>1397.89</ele>
        <time>2013-12-07T15:14:44Z</time>
      </trkpt>
      <trkpt lat="44.1534" lon="5.32788">
        <ele>1397.89</ele>
        <time>2013-12-07T15:15:11Z</time>
      </trkpt>
      <trkpt lat="44.1534" lon="5.32788">
        <ele>1396.93</ele>
        <time>2013-12-07T15:15:42Z</time>
      </trkpt>
      <trkpt lat="44.1534" lon="5.32788">
        <ele>1397.41</ele>
        <time>2013-12-07T15:16:13Z</time>
      </trkpt>
      <trkpt lat="44.1534" lon="5.32788">
        <ele>1397.41</ele>
        <time>2013-12-07T15:16:46Z</time>
      </trkpt>
      <trkpt lat="44.15341" lon="5.32788">
        <ele>1396.93</ele>
        <time>2013-12-07T15:17:21Z</time>
      </trkpt>
      <trkpt lat="44.15344" lon="5.32788">
        <ele>1396.93</ele>
        <time>2013-12-07T15:17:50Z</time>
      </trkpt>
      <trkpt lat="44.15344" lon="5.32788">
        <ele>1396.45</ele>
        <time>2013-12-07T15:18:19Z</time>
      </trkpt>
      <trkpt lat="44.15344" lon="5.32787">
        <ele>1396.93</ele>
        <time>2013-12-07T15:18:38Z</time>
      </trkpt>
      <trkpt lat="44.15344" lon="5.32788">
        <ele>1396.93</ele>
        <time>2013-12-07T15:18:50Z</time>
      </trkpt>
      <trkpt lat="44.15344" lon="5.32792">
        <ele>1395.49</ele>
        <time>2013-12-07T15:19:07Z</time>
      </trkpt>
      <trkpt lat="44.15344" lon="5.32792">
        <ele>1398.86</ele>
        <time>2013-12-07T15:19:10Z</time>
      </trkpt>
      <trkpt lat="44.15344" lon="5.32792">
        <ele>1395.49</ele>
        <time>2013-12-07T15:19:12Z</time>
      </trkpt>
      <trkpt lat="44.15344" lon="5.32792">
        <ele>1395.49</ele>
        <time>2013-12-07T15:19:13Z</time>
      </trkpt>
      <trkpt lat="44.15344" lon="5.32792">
        <ele>1399.34</ele>
        <time>2013-12-07T15:19:22Z</time>
      </trkpt>
      <trkpt lat="44.15344" lon="5.32792">
        <ele>1395.01</ele>
        <time>2013-12-07T15:19:24Z</time>
      </trkpt>
      <trkpt lat="44.15344" lon="5.32792">
        <ele>1395.97</ele>
        <time>2013-12-07T15:19:25Z</time>
      </trkpt>
      <trkpt lat="44.15348" lon="5.32787">
        <ele>1396.45</ele>
        <time>2013-12-07T15:19:49Z</time>
      </trkpt>
      <trkpt lat="44.15347" lon="5.32786">
        <ele>1395.97</ele>
        <time>2013-12-07T15:19:54Z</time>
      </trkpt>
      <trkpt lat="44.15332" lon="5.3276">
        <ele>1396.45</ele>
        <time>2013-12-07T15:20:02Z</time>
      </trkpt>
      <trkpt lat="44.15326" lon="5.32756">
        <ele>1396.45</ele>
        <time>2013-12-07T15:20:03Z</time>
      </trkpt>
      <trkpt lat="44.1532" lon="5.32752">
        <ele>1396.45</ele>
        <time>2013-12-07T15:20:04Z</time>
      </trkpt>
      <trkpt lat="44.15315" lon="5.32749">
        <ele>1396.93</ele>
        <time>2013-12-07T15:20:05Z</time>
      </trkpt>
      <trkpt lat="44.15308" lon="5.32746">
        <ele>1396.93</ele>
        <time>2013-12-07T15:20:06Z</time>
      </trkpt>
      <trkpt lat="44.15212" lon="5.32701">
        <ele>1398.86</ele>
        <time>2013-12-07T15:20:19Z</time>
      </trkpt>
      <trkpt lat="44.15145" lon="5.32628">
        <ele>1401.74</ele>
        <time>2013-12-07T15:20:27Z</time>
      </trkpt>
      <trkpt lat="44.15005" lon="5.32443">
        <ele>1403.18</ele>
        <time>2013-12-07T15:20:35Z</time>
      </trkpt>
      <trkpt lat="44.14819" lon="5.32305">
        <ele>1404.14</ele>
        <time>2013-12-07T15:20:49Z</time>
      </trkpt>
      <trkpt lat="44.14811" lon="5.32295">
        <ele>1403.66</ele>
        <time>2013-12-07T15:20:50Z</time>
      </trkpt>
      <trkpt lat="44.14774" lon="5.32236">
        <ele>1405.1</ele>
        <time>2013-12-07T15:20:57Z</time>
      </trkpt>
      <trkpt lat="44.14763" lon="5.32172">
        <ele>1407.51</ele>
        <time>2013-12-07T15:21:07Z</time>
      </trkpt>
      <trkpt lat="44.149" lon="5.32">
        <ele>1407.03</ele>
        <time>2013-12-07T15:21:08Z</time>
      </trkpt>
      <trkpt lat="44.14911" lon="5.31794">
        <ele>1408.47</ele>
        <time>2013-12-07T15:21:19Z</time>
      </trkpt>
      <trkpt lat="44.14916" lon="5.31778">
        <ele>1408.47</ele>
        <time>2013-12-07T15:21:20Z</time>
      </trkpt>
      <trkpt lat="44.14922" lon="5.31763">
        <ele>1408.47</ele>
        <time>2013-12-07T15:21:21Z</time>
      </trkpt>
      <trkpt lat="44.14935" lon="5.31741">
        <ele>1408.95</ele>
        <time>2013-12-07T15:21:23Z</time>
      </trkpt>
      <trkpt lat="44.14941" lon="5.31737">
        <ele>1409.43</ele>
        <time>2013-12-07T15:21:24Z</time>
      </trkpt>
      <trkpt lat="44.14948" lon="5.31734">
        <ele>1409.43</ele>
        <time>2013-12-07T15:21:25Z</time>
      </trkpt>
      <trkpt lat="44.14954" lon="5.31733">
        <ele>1409.91</ele>
        <time>2013-12-07T15:21:26Z</time>
      </trkpt>
      <trkpt lat="44.14961" lon="5.31736">
        <ele>1409.91</ele>
        <time>2013-12-07T15:21:27Z</time>
      </trkpt>
      <trkpt lat="44.14969" lon="5.31737">
        <ele>1409.91</ele>
        <time>2013-12-07T15:21:28Z</time>
      </trkpt>
      <trkpt lat="44.15073" lon="5.31804">
        <ele>1410.39</ele>
        <time>2013-12-07T15:21:39Z</time>
      </trkpt>
      <trkpt lat="44.15139" lon="5.31856">
        <ele>1409.91</ele>
        <time>2013-12-07T15:21:45Z</time>
      </trkpt>
      <trkpt lat="44.15148" lon="5.31861">
        <ele>1409.91</ele>
        <time>2013-12-07T15:21:46Z</time>
      </trkpt>
      <trkpt lat="44.15157" lon="5.31865">
        <ele>1410.39</ele>
        <time>2013-12-07T15:21:47Z</time>
      </trkpt>
      <trkpt lat="44.15165" lon="5.31867">
        <ele>1410.87</ele>
        <time>2013-12-07T15:21:48Z</time>
      </trkpt>
      <trkpt lat="44.15172" lon="5.31868">
        <ele>1409.91</ele>
        <time>2013-12-07T15:21:49Z</time>
      </trkpt>
      <trkpt lat="44.15172" lon="5.31864">
        <ele>1409.43</ele>
        <time>2013-12-07T15:21:51Z</time>
      </trkpt>
      <trkpt lat="44.15169" lon="5.3186">
        <ele>1410.39</ele>
        <time>2013-12-07T15:21:52Z</time>
      </trkpt>
      <trkpt lat="44.15164" lon="5.31854">
        <ele>1407.99</ele>
        <time>2013-12-07T15:21:53Z</time>
      </trkpt>
      <trkpt lat="44.15158" lon="5.31848">
        <ele>1407.99</ele>
        <time>2013-12-07T15:21:54Z</time>
      </trkpt>
      <trkpt lat="44.1512" lon="5.31809">
        <ele>1404.14</ele>
        <time>2013-12-07T15:21:58Z</time>
      </trkpt>
      <trkpt lat="44.15054" lon="5.31756">
        <ele>1402.7</ele>
        <time>2013-12-07T15:22:03Z</time>
      </trkpt>
      <trkpt lat="44.14995" lon="5.31729">
        <ele>1399.34</ele>
        <time>2013-12-07T15:22:07Z</time>
      </trkpt>
      <trkpt lat="44.14952" lon="5.31701">
        <ele>1396.45</ele>
        <time>2013-12-07T15:22:10Z</time>
      </trkpt>
      <trkpt lat="44.14908" lon="5.31667">
        <ele>1392.61</ele>
        <time>2013-12-07T15:22:13Z</time>
      </trkpt>
      <trkpt lat="44.14876" lon="5.31645">
        <ele>1388.76</ele>
        <time>2013-12-07T15:22:15Z</time>
      </trkpt>
      <trkpt lat="44.14824" lon="5.31612">
        <ele>1384.44</ele>
        <time>2013-12-07T15:22:18Z</time>
      </trkpt>
      <trkpt lat="44.14789" lon="5.31591">
        <ele>1380.59</ele>
        <time>2013-12-07T15:22:20Z</time>
      </trkpt>
      <trkpt lat="44.14754" lon="5.31576">
        <ele>1377.23</ele>
        <time>2013-12-07T15:22:22Z</time>
      </trkpt>
      <trkpt lat="44.14739" lon="5.31568">
        <ele>1375.3</ele>
        <time>2013-12-07T15:22:23Z</time>
      </trkpt>
      <trkpt lat="44.14727" lon="5.31559">
        <ele>1373.38</ele>
        <time>2013-12-07T15:22:24Z</time>
      </trkpt>
      <trkpt lat="44.14716" lon="5.31548">
        <ele>1371.94</ele>
        <time>2013-12-07T15:22:25Z</time>
      </trkpt>
      <trkpt lat="44.14699" lon="5.31522">
        <ele>1368.57</ele>
        <time>2013-12-07T15:22:27Z</time>
      </trkpt>
      <trkpt lat="44.14689" lon="5.31512">
        <ele>1369.05</ele>
        <time>2013-12-07T15:22:28Z</time>
      </trkpt>
      <trkpt lat="44.14678" lon="5.31504">
        <ele>1367.13</ele>
        <time>2013-12-07T15:22:29Z</time>
      </trkpt>
      <trkpt lat="44.14666" lon="5.31497">
        <ele>1367.13</ele>
        <time>2013-12-07T15:22:30Z</time>
      </trkpt>
      <trkpt lat="44.14653" lon="5.31492">
        <ele>1365.21</ele>
        <time>2013-12-07T15:22:31Z</time>
      </trkpt>
      <trkpt lat="44.14638" lon="5.3149">
        <ele>1363.77</ele>
        <time>2013-12-07T15:22:32Z</time>
      </trkpt>
      <trkpt lat="44.14623" lon="5.31489">
        <ele>1361.84</ele>
        <time>2013-12-07T15:22:33Z</time>
      </trkpt>
      <trkpt lat="44.14609" lon="5.31489">
        <ele>1360.4</ele>
        <time>2013-12-07T15:22:34Z</time>
      </trkpt>
      <trkpt lat="44.14597" lon="5.31492">
        <ele>1358.48</ele>
        <time>2013-12-07T15:22:35Z</time>
      </trkpt>
      <trkpt lat="44.14588" lon="5.315">
        <ele>1358</ele>
        <time>2013-12-07T15:22:36Z</time>
      </trkpt>
      <trkpt lat="44.14581" lon="5.31511">
        <ele>1358.96</ele>
        <time>2013-12-07T15:22:37Z</time>
      </trkpt>
      <trkpt lat="44.14574" lon="5.31525">
        <ele>1357.04</ele>
        <time>2013-12-07T15:22:38Z</time>
      </trkpt>
      <trkpt lat="44.14551" lon="5.31576">
        <ele>1353.19</ele>
        <time>2013-12-07T15:22:41Z</time>
      </trkpt>
      <trkpt lat="44.14542" lon="5.31592">
        <ele>1352.71</ele>
        <time>2013-12-07T15:22:42Z</time>
      </trkpt>
      <trkpt lat="44.14535" lon="5.31608">
        <ele>1352.71</ele>
        <time>2013-12-07T15:22:43Z</time>
      </trkpt>
      <trkpt lat="44.14529" lon="5.3163">
        <ele>1352.71</ele>
        <time>2013-12-07T15:22:44Z</time>
      </trkpt>
      <trkpt lat="44.14525" lon="5.3165">
        <ele>1351.75</ele>
        <time>2013-12-07T15:22:45Z</time>
      </trkpt>
      <trkpt lat="44.14522" lon="5.31665">
        <ele>1351.27</ele>
        <time>2013-12-07T15:22:46Z</time>
      </trkpt>
      <trkpt lat="44.14521" lon="5.3168">
        <ele>1352.71</ele>
        <time>2013-12-07T15:22:47Z</time>
      </trkpt>
      <trkpt lat="44.14521" lon="5.31695">
        <ele>1350.79</ele>
        <time>2013-12-07T15:22:48Z</time>
      </trkpt>
      <trkpt lat="44.14525" lon="5.3171">
        <ele>1349.35</ele>
        <time>2013-12-07T15:22:49Z</time>
      </trkpt>
      <trkpt lat="44.14531" lon="5.31724">
        <ele>1348.87</ele>
        <time>2013-12-07T15:22:50Z</time>
      </trkpt>
      <trkpt lat="44.14538" lon="5.31737">
        <ele>1346.46</ele>
        <time>2013-12-07T15:22:51Z</time>
      </trkpt>
      <trkpt lat="44.14544" lon="5.31752">
        <ele>1346.46</ele>
        <time>2013-12-07T15:22:52Z</time>
      </trkpt>
      <trkpt lat="44.14549" lon="5.31765">
        <ele>1345.5</ele>
        <time>2013-12-07T15:22:53Z</time>
      </trkpt>
      <trkpt lat="44.14551" lon="5.31776">
        <ele>1344.06</ele>
        <time>2013-12-07T15:22:54Z</time>
      </trkpt>
      <trkpt lat="44.14553" lon="5.31785">
        <ele>1343.58</ele>
        <time>2013-12-07T15:22:55Z</time>
      </trkpt>
      <trkpt lat="44.14553" lon="5.31793">
        <ele>1343.58</ele>
        <time>2013-12-07T15:22:56Z</time>
      </trkpt>
      <trkpt lat="44.14551" lon="5.31799">
        <ele>1344.06</ele>
        <time>2013-12-07T15:22:57Z</time>
      </trkpt>
      <trkpt lat="44.14547" lon="5.31803">
        <ele>1343.1</ele>
        <time>2013-12-07T15:22:58Z</time>
      </trkpt>
      <trkpt lat="44.14544" lon="5.31807">
        <ele>1342.62</ele>
        <time>2013-12-07T15:22:59Z</time>
      </trkpt>
      <trkpt lat="44.14541" lon="5.31812">
        <ele>1340.7</ele>
        <time>2013-12-07T15:23:00Z</time>
      </trkpt>
      <trkpt lat="44.14539" lon="5.31813">
        <ele>1340.7</ele>
        <time>2013-12-07T15:23:01Z</time>
      </trkpt>
      <trkpt lat="44.14535" lon="5.31816">
        <ele>1338.77</ele>
        <time>2013-12-07T15:23:02Z</time>
      </trkpt>
      <trkpt lat="44.1453" lon="5.31818">
        <ele>1337.81</ele>
        <time>2013-12-07T15:23:03Z</time>
      </trkpt>
      <trkpt lat="44.14525" lon="5.31818">
        <ele>1335.89</ele>
        <time>2013-12-07T15:23:04Z</time>
      </trkpt>
      <trkpt lat="44.14519" lon="5.31817">
        <ele>1334.45</ele>
        <time>2013-12-07T15:23:05Z</time>
      </trkpt>
      <trkpt lat="44.14511" lon="5.31815">
        <ele>1333.01</ele>
        <time>2013-12-07T15:23:06Z</time>
      </trkpt>
      <trkpt lat="44.14504" lon="5.31814">
        <ele>1329.64</ele>
        <time>2013-12-07T15:23:07Z</time>
      </trkpt>
      <trkpt lat="44.14496" lon="5.31813">
        <ele>1327.72</ele>
        <time>2013-12-07T15:23:08Z</time>
      </trkpt>
      <trkpt lat="44.1449" lon="5.31813">
        <ele>1325.8</ele>
        <time>2013-12-07T15:23:09Z</time>
      </trkpt>
      <trkpt lat="44.1445" lon="5.31798">
        <ele>1323.87</ele>
        <time>2013-12-07T15:23:11Z</time>
      </trkpt>
      <trkpt lat="44.14437" lon="5.31795">
        <ele>1321.95</ele>
        <time>2013-12-07T15:23:12Z</time>
      </trkpt>
      <trkpt lat="44.14424" lon="5.31795">
        <ele>1320.51</ele>
        <time>2013-12-07T15:23:13Z</time>
      </trkpt>
      <trkpt lat="44.14398" lon="5.31797">
        <ele>1317.62</ele>
        <time>2013-12-07T15:23:15Z</time>
      </trkpt>
      <trkpt lat="44.14367" lon="5.31807">
        <ele>1313.78</ele>
        <time>2013-12-07T15:23:16Z</time>
      </trkpt>
      <trkpt lat="44.1434" lon="5.31819">
        <ele>1314.26</ele>
        <time>2013-12-07T15:23:17Z</time>
      </trkpt>
      <trkpt lat="44.14269" lon="5.31855">
        <ele>1308.01</ele>
        <time>2013-12-07T15:23:20Z</time>
      </trkpt>
      <trkpt lat="44.14254" lon="5.31854">
        <ele>1306.57</ele>
        <time>2013-12-07T15:23:21Z</time>
      </trkpt>
      <trkpt lat="44.14238" lon="5.31847">
        <ele>1305.13</ele>
        <time>2013-12-07T15:23:22Z</time>
      </trkpt>
      <trkpt lat="44.14222" lon="5.31842">
        <ele>1305.61</ele>
        <time>2013-12-07T15:23:23Z</time>
      </trkpt>
      <trkpt lat="44.14207" lon="5.31839">
        <ele>1302.72</ele>
        <time>2013-12-07T15:23:24Z</time>
      </trkpt>
      <trkpt lat="44.14193" lon="5.31838">
        <ele>1302.24</ele>
        <time>2013-12-07T15:23:25Z</time>
      </trkpt>
      <trkpt lat="44.1417" lon="5.31839">
        <ele>1298.88</ele>
        <time>2013-12-07T15:23:27Z</time>
      </trkpt>
      <trkpt lat="44.1416" lon="5.31837">
        <ele>1297.44</ele>
        <time>2013-12-07T15:23:28Z</time>
      </trkpt>
      <trkpt lat="44.14149" lon="5.31831">
        <ele>1295.51</ele>
        <time>2013-12-07T15:23:29Z</time>
      </trkpt>
      <trkpt lat="44.14138" lon="5.31823">
        <ele>1294.55</ele>
        <time>2013-12-07T15:23:30Z</time>
      </trkpt>
      <trkpt lat="44.1412" lon="5.31803">
        <ele>1292.63</ele>
        <time>2013-12-07T15:23:32Z</time>
      </trkpt>
      <trkpt lat="44.1411" lon="5.31792">
        <ele>1289.27</ele>
        <time>2013-12-07T15:23:33Z</time>
      </trkpt>
      <trkpt lat="44.1409" lon="5.31753">
        <ele>1287.82</ele>
        <time>2013-12-07T15:23:34Z</time>
      </trkpt>
      <trkpt lat="44.14062" lon="5.31701">
        <ele>1283.02</ele>
        <time>2013-12-07T15:23:36Z</time>
      </trkpt>
      <trkpt lat="44.14029" lon="5.31648">
        <ele>1280.13</ele>
        <time>2013-12-07T15:23:38Z</time>
      </trkpt>
      <trkpt lat="44.13998" lon="5.31604">
        <ele>1276.29</ele>
        <time>2013-12-07T15:23:40Z</time>
      </trkpt>
      <trkpt lat="44.13968" lon="5.31557">
        <ele>1271.48</ele>
        <time>2013-12-07T15:23:42Z</time>
      </trkpt>
      <trkpt lat="44.13942" lon="5.31512">
        <ele>1267.64</ele>
        <time>2013-12-07T15:23:44Z</time>
      </trkpt>
      <trkpt lat="44.13929" lon="5.31491">
        <ele>1264.27</ele>
        <time>2013-12-07T15:23:45Z</time>
      </trkpt>
      <trkpt lat="44.13904" lon="5.31447">
        <ele>1260.91</ele>
        <time>2013-12-07T15:23:47Z</time>
      </trkpt>
      <trkpt lat="44.13879" lon="5.31405">
        <ele>1257.54</ele>
        <time>2013-12-07T15:23:49Z</time>
      </trkpt>
      <trkpt lat="44.13854" lon="5.31362">
        <ele>1253.22</ele>
        <time>2013-12-07T15:23:51Z</time>
      </trkpt>
      <trkpt lat="44.13833" lon="5.31319">
        <ele>1248.89</ele>
        <time>2013-12-07T15:23:53Z</time>
      </trkpt>
      <trkpt lat="44.13826" lon="5.31296">
        <ele>1246.49</ele>
        <time>2013-12-07T15:23:54Z</time>
      </trkpt>
      <trkpt lat="44.13821" lon="5.31273">
        <ele>1244.56</ele>
        <time>2013-12-07T15:23:55Z</time>
      </trkpt>
      <trkpt lat="44.13813" lon="5.31227">
        <ele>1239.76</ele>
        <time>2013-12-07T15:23:57Z</time>
      </trkpt>
      <trkpt lat="44.13799" lon="5.31158">
        <ele>1234.95</ele>
        <time>2013-12-07T15:24:00Z</time>
      </trkpt>
      <trkpt lat="44.13788" lon="5.3111">
        <ele>1231.11</ele>
        <time>2013-12-07T15:24:02Z</time>
      </trkpt>
      <trkpt lat="44.13779" lon="5.31072">
        <ele>1227.26</ele>
        <time>2013-12-07T15:24:04Z</time>
      </trkpt>
      <trkpt lat="44.13781" lon="5.31039">
        <ele>1224.86</ele>
        <time>2013-12-07T15:24:05Z</time>
      </trkpt>
      <trkpt lat="44.13781" lon="5.31015">
        <ele>1223.9</ele>
        <time>2013-12-07T15:24:06Z</time>
      </trkpt>
      <trkpt lat="44.1378" lon="5.30993">
        <ele>1223.42</ele>
        <time>2013-12-07T15:24:07Z</time>
      </trkpt>
      <trkpt lat="44.13777" lon="5.30971">
        <ele>1222.45</ele>
        <time>2013-12-07T15:24:08Z</time>
      </trkpt>
      <trkpt lat="44.13771" lon="5.3095">
        <ele>1217.17</ele>
        <time>2013-12-07T15:24:09Z</time>
      </trkpt>
      <trkpt lat="44.13765" lon="5.3093">
        <ele>1217.65</ele>
        <time>2013-12-07T15:24:10Z</time>
      </trkpt>
      <trkpt lat="44.13756" lon="5.3091">
        <ele>1218.61</ele>
        <time>2013-12-07T15:24:11Z</time>
      </trkpt>
      <trkpt lat="44.13747" lon="5.30891">
        <ele>1215.24</ele>
        <time>2013-12-07T15:24:12Z</time>
      </trkpt>
      <trkpt lat="44.13726" lon="5.30856">
        <ele>1211.88</ele>
        <time>2013-12-07T15:24:14Z</time>
      </trkpt>
      <trkpt lat="44.13715" lon="5.3084">
        <ele>1210.92</ele>
        <time>2013-12-07T15:24:15Z</time>
      </trkpt>
      <trkpt lat="44.13703" lon="5.30825">
        <ele>1209</ele>
        <time>2013-12-07T15:24:16Z</time>
      </trkpt>
      <trkpt lat="44.13689" lon="5.30809">
        <ele>1207.55</ele>
        <time>2013-12-07T15:24:17Z</time>
      </trkpt>
      <trkpt lat="44.13648" lon="5.30757">
        <ele>1203.23</ele>
        <time>2013-12-07T15:24:20Z</time>
      </trkpt>
      <trkpt lat="44.13621" lon="5.3072">
        <ele>1198.9</ele>
        <time>2013-12-07T15:24:22Z</time>
      </trkpt>
      <trkpt lat="44.13595" lon="5.30683">
        <ele>1196.02</ele>
        <time>2013-12-07T15:24:24Z</time>
      </trkpt>
      <trkpt lat="44.13571" lon="5.3064">
        <ele>1192.65</ele>
        <time>2013-12-07T15:24:26Z</time>
      </trkpt>
      <trkpt lat="44.13546" lon="5.30604">
        <ele>1187.85</ele>
        <time>2013-12-07T15:24:28Z</time>
      </trkpt>
      <trkpt lat="44.13521" lon="5.30571">
        <ele>1184</ele>
        <time>2013-12-07T15:24:30Z</time>
      </trkpt>
      <trkpt lat="44.13512" lon="5.30551">
        <ele>1183.52</ele>
        <time>2013-12-07T15:24:31Z</time>
      </trkpt>
      <trkpt lat="44.13504" lon="5.30531">
        <ele>1181.6</ele>
        <time>2013-12-07T15:24:32Z</time>
      </trkpt>
      <trkpt lat="44.13498" lon="5.3051">
        <ele>1180.16</ele>
        <time>2013-12-07T15:24:33Z</time>
      </trkpt>
      <trkpt lat="44.13493" lon="5.30462">
        <ele>1177.27</ele>
        <time>2013-12-07T15:24:35Z</time>
      </trkpt>
      <trkpt lat="44.13495" lon="5.30436">
        <ele>1176.31</ele>
        <time>2013-12-07T15:24:36Z</time>
      </trkpt>
      <trkpt lat="44.13501" lon="5.30408">
        <ele>1173.91</ele>
        <time>2013-12-07T15:24:37Z</time>
      </trkpt>
      <trkpt lat="44.13507" lon="5.30379">
        <ele>1171.5</ele>
        <time>2013-12-07T15:24:38Z</time>
      </trkpt>
      <trkpt lat="44.13521" lon="5.30327">
        <ele>1168.14</ele>
        <time>2013-12-07T15:24:40Z</time>
      </trkpt>
      <trkpt lat="44.13534" lon="5.30281">
        <ele>1164.29</ele>
        <time>2013-12-07T15:24:42Z</time>
      </trkpt>
      <trkpt lat="44.13544" lon="5.30238">
        <ele>1160.93</ele>
        <time>2013-12-07T15:24:44Z</time>
      </trkpt>
      <trkpt lat="44.13548" lon="5.30218">
        <ele>1159.49</ele>
        <time>2013-12-07T15:24:45Z</time>
      </trkpt>
      <trkpt lat="44.13548" lon="5.30198">
        <ele>1158.53</ele>
        <time>2013-12-07T15:24:46Z</time>
      </trkpt>
      <trkpt lat="44.13547" lon="5.30177">
        <ele>1158.53</ele>
        <time>2013-12-07T15:24:47Z</time>
      </trkpt>
      <trkpt lat="44.13542" lon="5.3014">
        <ele>1154.68</ele>
        <time>2013-12-07T15:24:49Z</time>
      </trkpt>
      <trkpt lat="44.13534" lon="5.30126">
        <ele>1153.24</ele>
        <time>2013-12-07T15:24:50Z</time>
      </trkpt>
      <trkpt lat="44.1351" lon="5.30085">
        <ele>1147.95</ele>
        <time>2013-12-07T15:24:53Z</time>
      </trkpt>
      <trkpt lat="44.13493" lon="5.30056">
        <ele>1146.03</ele>
        <time>2013-12-07T15:24:55Z</time>
      </trkpt>
      <trkpt lat="44.13462" lon="5.30007">
        <ele>1143.14</ele>
        <time>2013-12-07T15:24:58Z</time>
      </trkpt>
      <trkpt lat="44.13452" lon="5.29987">
        <ele>1139.78</ele>
        <time>2013-12-07T15:24:59Z</time>
      </trkpt>
      <trkpt lat="44.13446" lon="5.29966">
        <ele>1138.82</ele>
        <time>2013-12-07T15:25:00Z</time>
      </trkpt>
      <trkpt lat="44.13439" lon="5.29921">
        <ele>1135.94</ele>
        <time>2013-12-07T15:25:02Z</time>
      </trkpt>
      <trkpt lat="44.13437" lon="5.29899">
        <ele>1133.53</ele>
        <time>2013-12-07T15:25:03Z</time>
      </trkpt>
      <trkpt lat="44.13433" lon="5.29834">
        <ele>1129.21</ele>
        <time>2013-12-07T15:25:06Z</time>
      </trkpt>
      <trkpt lat="44.13428" lon="5.29788">
        <ele>1124.88</ele>
        <time>2013-12-07T15:25:08Z</time>
      </trkpt>
      <trkpt lat="44.13423" lon="5.29742">
        <ele>1121.03</ele>
        <time>2013-12-07T15:25:10Z</time>
      </trkpt>
      <trkpt lat="44.13417" lon="5.29704">
        <ele>1116.23</ele>
        <time>2013-12-07T15:25:12Z</time>
      </trkpt>
      <trkpt lat="44.13407" lon="5.29668">
        <ele>1114.79</ele>
        <time>2013-12-07T15:25:14Z</time>
      </trkpt>
      <trkpt lat="44.134" lon="5.29649">
        <ele>1113.34</ele>
        <time>2013-12-07T15:25:15Z</time>
      </trkpt>
      <trkpt lat="44.13384" lon="5.29612">
        <ele>1109.98</ele>
        <time>2013-12-07T15:25:17Z</time>
      </trkpt>
      <trkpt lat="44.13367" lon="5.29571">
        <ele>1106.61</ele>
        <time>2013-12-07T15:25:19Z</time>
      </trkpt>
      <trkpt lat="44.13339" lon="5.29504">
        <ele>1101.33</ele>
        <time>2013-12-07T15:25:22Z</time>
      </trkpt>
      <trkpt lat="44.13318" lon="5.29458">
        <ele>1098.44</ele>
        <time>2013-12-07T15:25:24Z</time>
      </trkpt>
      <trkpt lat="44.13296" lon="5.29414">
        <ele>1094.6</ele>
        <time>2013-12-07T15:25:26Z</time>
      </trkpt>
      <trkpt lat="44.13272" lon="5.29373">
        <ele>1091.23</ele>
        <time>2013-12-07T15:25:28Z</time>
      </trkpt>
      <trkpt lat="44.1325" lon="5.29334">
        <ele>1087.87</ele>
        <time>2013-12-07T15:25:30Z</time>
      </trkpt>
      <trkpt lat="44.13229" lon="5.29298">
        <ele>1084.5</ele>
        <time>2013-12-07T15:25:32Z</time>
      </trkpt>
      <trkpt lat="44.13212" lon="5.29263">
        <ele>1080.66</ele>
        <time>2013-12-07T15:25:34Z</time>
      </trkpt>
      <trkpt lat="44.13186" lon="5.29208">
        <ele>1075.85</ele>
        <time>2013-12-07T15:25:37Z</time>
      </trkpt>
      <trkpt lat="44.13168" lon="5.29166">
        <ele>1071.05</ele>
        <time>2013-12-07T15:25:39Z</time>
      </trkpt>
      <trkpt lat="44.13136" lon="5.29106">
        <ele>1066.24</ele>
        <time>2013-12-07T15:25:42Z</time>
      </trkpt>
      <trkpt lat="44.13117" lon="5.29065">
        <ele>1063.36</ele>
        <time>2013-12-07T15:25:44Z</time>
      </trkpt>
      <trkpt lat="44.13109" lon="5.29042">
        <ele>1059.99</ele>
        <time>2013-12-07T15:25:45Z</time>
      </trkpt>
      <trkpt lat="44.13082" lon="5.28976">
        <ele>1054.7</ele>
        <time>2013-12-07T15:25:48Z</time>
      </trkpt>
      <trkpt lat="44.13059" lon="5.28934">
        <ele>1049.9</ele>
        <time>2013-12-07T15:25:50Z</time>
      </trkpt>
      <trkpt lat="44.13037" lon="5.28894">
        <ele>1046.05</ele>
        <time>2013-12-07T15:25:52Z</time>
      </trkpt>
      <trkpt lat="44.13026" lon="5.28873">
        <ele>1044.61</ele>
        <time>2013-12-07T15:25:53Z</time>
      </trkpt>
      <trkpt lat="44.13018" lon="5.28851">
        <ele>1042.21</ele>
        <time>2013-12-07T15:25:54Z</time>
      </trkpt>
      <trkpt lat="44.13005" lon="5.28804">
        <ele>1037.88</ele>
        <time>2013-12-07T15:25:56Z</time>
      </trkpt>
      <trkpt lat="44.12991" lon="5.28764">
        <ele>1034.52</ele>
        <time>2013-12-07T15:25:58Z</time>
      </trkpt>
      <trkpt lat="44.12979" lon="5.28747">
        <ele>1032.59</ele>
        <time>2013-12-07T15:25:59Z</time>
      </trkpt>
      <trkpt lat="44.12944" lon="5.28724">
        <ele>1027.79</ele>
        <time>2013-12-07T15:26:02Z</time>
      </trkpt>
      <trkpt lat="44.1293" lon="5.28726">
        <ele>1024.9</ele>
        <time>2013-12-07T15:26:03Z</time>
      </trkpt>
      <trkpt lat="44.12905" lon="5.28727">
        <ele>1022.02</ele>
        <time>2013-12-07T15:26:05Z</time>
      </trkpt>
      <trkpt lat="44.12892" lon="5.28722">
        <ele>1021.54</ele>
        <time>2013-12-07T15:26:06Z</time>
      </trkpt>
      <trkpt lat="44.12884" lon="5.28715">
        <ele>1019.62</ele>
        <time>2013-12-07T15:26:07Z</time>
      </trkpt>
      <trkpt lat="44.12884" lon="5.287">
        <ele>1019.13</ele>
        <time>2013-12-07T15:26:08Z</time>
      </trkpt>
      <trkpt lat="44.12885" lon="5.28686">
        <ele>1017.69</ele>
        <time>2013-12-07T15:26:09Z</time>
      </trkpt>
      <trkpt lat="44.12887" lon="5.2867">
        <ele>1016.73</ele>
        <time>2013-12-07T15:26:10Z</time>
      </trkpt>
      <trkpt lat="44.12889" lon="5.28656">
        <ele>1015.29</ele>
        <time>2013-12-07T15:26:11Z</time>
      </trkpt>
      <trkpt lat="44.12889" lon="5.28641">
        <ele>1013.85</ele>
        <time>2013-12-07T15:26:12Z</time>
      </trkpt>
      <trkpt lat="44.12885" lon="5.28627">
        <ele>1011.93</ele>
        <time>2013-12-07T15:26:13Z</time>
      </trkpt>
      <trkpt lat="44.12879" lon="5.28613">
        <ele>1010.96</ele>
        <time>2013-12-07T15:26:14Z</time>
      </trkpt>
      <trkpt lat="44.12871" lon="5.28599">
        <ele>1009.04</ele>
        <time>2013-12-07T15:26:15Z</time>
      </trkpt>
      <trkpt lat="44.12848" lon="5.28553">
        <ele>1004.23</ele>
        <time>2013-12-07T15:26:18Z</time>
      </trkpt>
      <trkpt lat="44.12832" lon="5.28528">
        <ele>1002.31</ele>
        <time>2013-12-07T15:26:20Z</time>
      </trkpt>
      <trkpt lat="44.12826" lon="5.28514">
        <ele>1000.87</ele>
        <time>2013-12-07T15:26:21Z</time>
      </trkpt>
      <trkpt lat="44.12822" lon="5.285">
        <ele>1000.39</ele>
        <time>2013-12-07T15:26:22Z</time>
      </trkpt>
      <trkpt lat="44.12821" lon="5.28482">
        <ele>997.99</ele>
        <time>2013-12-07T15:26:23Z</time>
      </trkpt>
      <trkpt lat="44.12821" lon="5.28465">
        <ele>997.51</ele>
        <time>2013-12-07T15:26:24Z</time>
      </trkpt>
      <trkpt lat="44.12815" lon="5.28412">
        <ele>994.14</ele>
        <time>2013-12-07T15:26:27Z</time>
      </trkpt>
      <trkpt lat="44.12809" lon="5.28394">
        <ele>989.81</ele>
        <time>2013-12-07T15:26:28Z</time>
      </trkpt>
      <trkpt lat="44.12781" lon="5.28338">
        <ele>984.05</ele>
        <time>2013-12-07T15:26:32Z</time>
      </trkpt>
      <trkpt lat="44.12779" lon="5.28327">
        <ele>985.01</ele>
        <time>2013-12-07T15:26:33Z</time>
      </trkpt>
      <trkpt lat="44.12781" lon="5.28332">
        <ele>984.05</ele>
        <time>2013-12-07T15:26:34Z</time>
      </trkpt>
      <trkpt lat="44.12785" lon="5.28335">
        <ele>984.05</ele>
        <time>2013-12-07T15:26:35Z</time>
      </trkpt>
      <trkpt lat="44.12786" lon="5.28336">
        <ele>982.6</ele>
        <time>2013-12-07T15:26:36Z</time>
      </trkpt>
      <trkpt lat="44.12791" lon="5.28338">
        <ele>977.8</ele>
        <time>2013-12-07T15:26:37Z</time>
      </trkpt>
      <trkpt lat="44.12799" lon="5.28339">
        <ele>982.6</ele>
        <time>2013-12-07T15:26:38Z</time>
      </trkpt>
      <trkpt lat="44.12806" lon="5.28339">
        <ele>989.81</ele>
        <time>2013-12-07T15:26:39Z</time>
      </trkpt>
      <trkpt lat="44.12813" lon="5.28334">
        <ele>982.12</ele>
        <time>2013-12-07T15:26:40Z</time>
      </trkpt>
      <trkpt lat="44.12816" lon="5.28329">
        <ele>979.72</ele>
        <time>2013-12-07T15:26:41Z</time>
      </trkpt>
      <trkpt lat="44.12817" lon="5.28325">
        <ele>981.64</ele>
        <time>2013-12-07T15:26:42Z</time>
      </trkpt>
      <trkpt lat="44.12815" lon="5.28322">
        <ele>980.68</ele>
        <time>2013-12-07T15:26:44Z</time>
      </trkpt>
      <trkpt lat="44.12814" lon="5.28337">
        <ele>987.41</ele>
        <time>2013-12-07T15:26:45Z</time>
      </trkpt>
      <trkpt lat="44.1281" lon="5.28342">
        <ele>975.88</ele>
        <time>2013-12-07T15:26:46Z</time>
      </trkpt>
      <trkpt lat="44.12808" lon="5.28348">
        <ele>980.2</ele>
        <time>2013-12-07T15:26:47Z</time>
      </trkpt>
      <trkpt lat="44.12794" lon="5.28352">
        <ele>977.8</ele>
        <time>2013-12-07T15:26:49Z</time>
      </trkpt>
      <trkpt lat="44.12785" lon="5.28355">
        <ele>976.84</ele>
        <time>2013-12-07T15:26:50Z</time>
      </trkpt>
      <trkpt lat="44.12767" lon="5.28357">
        <ele>972.51</ele>
        <time>2013-12-07T15:26:53Z</time>
      </trkpt>
      <trkpt lat="44.12757" lon="5.28359">
        <ele>972.99</ele>
        <time>2013-12-07T15:26:54Z</time>
      </trkpt>
      <trkpt lat="44.12747" lon="5.28364">
        <ele>971.07</ele>
        <time>2013-12-07T15:26:55Z</time>
      </trkpt>
      <trkpt lat="44.12725" lon="5.28373">
        <ele>968.67</ele>
        <time>2013-12-07T15:26:57Z</time>
      </trkpt>
      <trkpt lat="44.12713" lon="5.28374">
        <ele>967.22</ele>
        <time>2013-12-07T15:26:58Z</time>
      </trkpt>
      <trkpt lat="44.12701" lon="5.28371">
        <ele>965.3</ele>
        <time>2013-12-07T15:26:59Z</time>
      </trkpt>
      <trkpt lat="44.1269" lon="5.28364">
        <ele>964.34</ele>
        <time>2013-12-07T15:27:00Z</time>
      </trkpt>
      <trkpt lat="44.1268" lon="5.28354">
        <ele>962.9</ele>
        <time>2013-12-07T15:27:01Z</time>
      </trkpt>
      <trkpt lat="44.12672" lon="5.28342">
        <ele>960.49</ele>
        <time>2013-12-07T15:27:02Z</time>
      </trkpt>
      <trkpt lat="44.12671" lon="5.28323">
        <ele>960.01</ele>
        <time>2013-12-07T15:27:03Z</time>
      </trkpt>
      <trkpt lat="44.12675" lon="5.28301">
        <ele>958.57</ele>
        <time>2013-12-07T15:27:04Z</time>
      </trkpt>
      <trkpt lat="44.12677" lon="5.28283">
        <ele>957.13</ele>
        <time>2013-12-07T15:27:05Z</time>
      </trkpt>
      <trkpt lat="44.12685" lon="5.28245">
        <ele>953.77</ele>
        <time>2013-12-07T15:27:07Z</time>
      </trkpt>
      <trkpt lat="44.12694" lon="5.28205">
        <ele>950.88</ele>
        <time>2013-12-07T15:27:09Z</time>
      </trkpt>
      <trkpt lat="44.12695" lon="5.28183">
        <ele>949.44</ele>
        <time>2013-12-07T15:27:10Z</time>
      </trkpt>
      <trkpt lat="44.12693" lon="5.28162">
        <ele>947.52</ele>
        <time>2013-12-07T15:27:11Z</time>
      </trkpt>
      <trkpt lat="44.12684" lon="5.28141">
        <ele>946.56</ele>
        <time>2013-12-07T15:27:12Z</time>
      </trkpt>
      <trkpt lat="44.12658" lon="5.28078">
        <ele>942.23</ele>
        <time>2013-12-07T15:27:15Z</time>
      </trkpt>
      <trkpt lat="44.12641" lon="5.28036">
        <ele>939.35</ele>
        <time>2013-12-07T15:27:17Z</time>
      </trkpt>
      <trkpt lat="44.12638" lon="5.28013">
        <ele>937.42</ele>
        <time>2013-12-07T15:27:18Z</time>
      </trkpt>
      <trkpt lat="44.12637" lon="5.2799">
        <ele>936.46</ele>
        <time>2013-12-07T15:27:19Z</time>
      </trkpt>
      <trkpt lat="44.12637" lon="5.27943">
        <ele>933.1</ele>
        <time>2013-12-07T15:27:21Z</time>
      </trkpt>
      <trkpt lat="44.12637" lon="5.27879">
        <ele>928.29</ele>
        <time>2013-12-07T15:27:24Z</time>
      </trkpt>
      <trkpt lat="44.12635" lon="5.27843">
        <ele>925.89</ele>
        <time>2013-12-07T15:27:26Z</time>
      </trkpt>
      <trkpt lat="44.1263" lon="5.27829">
        <ele>924.93</ele>
        <time>2013-12-07T15:27:27Z</time>
      </trkpt>
      <trkpt lat="44.12618" lon="5.27809">
        <ele>922.52</ele>
        <time>2013-12-07T15:27:29Z</time>
      </trkpt>
      <trkpt lat="44.12606" lon="5.27795">
        <ele>921.08</ele>
        <time>2013-12-07T15:27:30Z</time>
      </trkpt>
      <trkpt lat="44.126" lon="5.2778">
        <ele>920.6</ele>
        <time>2013-12-07T15:27:31Z</time>
      </trkpt>
      <trkpt lat="44.12595" lon="5.27764">
        <ele>919.16</ele>
        <time>2013-12-07T15:27:32Z</time>
      </trkpt>
      <trkpt lat="44.12591" lon="5.27746">
        <ele>918.68</ele>
        <time>2013-12-07T15:27:33Z</time>
      </trkpt>
      <trkpt lat="44.12586" lon="5.27728">
        <ele>916.75</ele>
        <time>2013-12-07T15:27:34Z</time>
      </trkpt>
      <trkpt lat="44.12571" lon="5.27668">
        <ele>913.39</ele>
        <time>2013-12-07T15:27:37Z</time>
      </trkpt>
      <trkpt lat="44.12561" lon="5.27627">
        <ele>910.03</ele>
        <time>2013-12-07T15:27:39Z</time>
      </trkpt>
      <trkpt lat="44.12549" lon="5.27585">
        <ele>906.66</ele>
        <time>2013-12-07T15:27:41Z</time>
      </trkpt>
      <trkpt lat="44.12546" lon="5.27567">
        <ele>905.7</ele>
        <time>2013-12-07T15:27:42Z</time>
      </trkpt>
      <trkpt lat="44.12551" lon="5.27547">
        <ele>903.78</ele>
        <time>2013-12-07T15:27:43Z</time>
      </trkpt>
      <trkpt lat="44.12558" lon="5.27528">
        <ele>903.3</ele>
        <time>2013-12-07T15:27:44Z</time>
      </trkpt>
      <trkpt lat="44.12565" lon="5.2751">
        <ele>901.37</ele>
        <time>2013-12-07T15:27:45Z</time>
      </trkpt>
      <trkpt lat="44.12581" lon="5.27473">
        <ele>898.01</ele>
        <time>2013-12-07T15:27:47Z</time>
      </trkpt>
      <trkpt lat="44.12598" lon="5.27434">
        <ele>895.12</ele>
        <time>2013-12-07T15:27:49Z</time>
      </trkpt>
      <trkpt lat="44.12616" lon="5.27393">
        <ele>892.24</ele>
        <time>2013-12-07T15:27:51Z</time>
      </trkpt>
      <trkpt lat="44.12631" lon="5.27353">
        <ele>888.4</ele>
        <time>2013-12-07T15:27:53Z</time>
      </trkpt>
      <trkpt lat="44.12635" lon="5.27335">
        <ele>887.43</ele>
        <time>2013-12-07T15:27:54Z</time>
      </trkpt>
      <trkpt lat="44.12644" lon="5.27317">
        <ele>886.47</ele>
        <time>2013-12-07T15:27:55Z</time>
      </trkpt>
      <trkpt lat="44.12645" lon="5.27296">
        <ele>885.03</ele>
        <time>2013-12-07T15:27:56Z</time>
      </trkpt>
      <trkpt lat="44.12647" lon="5.27275">
        <ele>883.59</ele>
        <time>2013-12-07T15:27:57Z</time>
      </trkpt>
      <trkpt lat="44.12651" lon="5.27236">
        <ele>880.22</ele>
        <time>2013-12-07T15:27:59Z</time>
      </trkpt>
      <trkpt lat="44.12655" lon="5.2719">
        <ele>876.38</ele>
        <time>2013-12-07T15:28:01Z</time>
      </trkpt>
      <trkpt lat="44.12646" lon="5.2712">
        <ele>872.53</ele>
        <time>2013-12-07T15:28:04Z</time>
      </trkpt>
      <trkpt lat="44.12637" lon="5.27074">
        <ele>869.17</ele>
        <time>2013-12-07T15:28:06Z</time>
      </trkpt>
      <trkpt lat="44.12623" lon="5.2705">
        <ele>868.21</ele>
        <time>2013-12-07T15:28:07Z</time>
      </trkpt>
      <trkpt lat="44.12608" lon="5.27027">
        <ele>867.25</ele>
        <time>2013-12-07T15:28:08Z</time>
      </trkpt>
      <trkpt lat="44.12589" lon="5.26981">
        <ele>863.88</ele>
        <time>2013-12-07T15:28:10Z</time>
      </trkpt>
      <trkpt lat="44.12578" lon="5.26932">
        <ele>859.08</ele>
        <time>2013-12-07T15:28:12Z</time>
      </trkpt>
      <trkpt lat="44.12574" lon="5.26908">
        <ele>857.15</ele>
        <time>2013-12-07T15:28:13Z</time>
      </trkpt>
      <trkpt lat="44.12566" lon="5.26883">
        <ele>855.71</ele>
        <time>2013-12-07T15:28:14Z</time>
      </trkpt>
      <trkpt lat="44.1255" lon="5.26837">
        <ele>851.38</ele>
        <time>2013-12-07T15:28:16Z</time>
      </trkpt>
      <trkpt lat="44.12536" lon="5.26794">
        <ele>848.02</ele>
        <time>2013-12-07T15:28:18Z</time>
      </trkpt>
      <trkpt lat="44.12528" lon="5.26775">
        <ele>846.1</ele>
        <time>2013-12-07T15:28:19Z</time>
      </trkpt>
      <trkpt lat="44.12512" lon="5.26743">
        <ele>841.77</ele>
        <time>2013-12-07T15:28:21Z</time>
      </trkpt>
      <trkpt lat="44.12506" lon="5.26731">
        <ele>840.81</ele>
        <time>2013-12-07T15:28:22Z</time>
      </trkpt>
      <trkpt lat="44.12495" lon="5.267">
        <ele>837.93</ele>
        <time>2013-12-07T15:28:24Z</time>
      </trkpt>
      <trkpt lat="44.1249" lon="5.26684">
        <ele>835.52</ele>
        <time>2013-12-07T15:28:25Z</time>
      </trkpt>
      <trkpt lat="44.1248" lon="5.26651">
        <ele>832.16</ele>
        <time>2013-12-07T15:28:27Z</time>
      </trkpt>
      <trkpt lat="44.12454" lon="5.26599">
        <ele>827.83</ele>
        <time>2013-12-07T15:28:29Z</time>
      </trkpt>
      <trkpt lat="44.12445" lon="5.26579">
        <ele>825.91</ele>
        <time>2013-12-07T15:28:30Z</time>
      </trkpt>
      <trkpt lat="44.12434" lon="5.26562">
        <ele>824.47</ele>
        <time>2013-12-07T15:28:31Z</time>
      </trkpt>
      <trkpt lat="44.12422" lon="5.26547">
        <ele>822.55</ele>
        <time>2013-12-07T15:28:32Z</time>
      </trkpt>
      <trkpt lat="44.12408" lon="5.26533">
        <ele>820.62</ele>
        <time>2013-12-07T15:28:33Z</time>
      </trkpt>
      <trkpt lat="44.12395" lon="5.26517">
        <ele>817.74</ele>
        <time>2013-12-07T15:28:34Z</time>
      </trkpt>
      <trkpt lat="44.12382" lon="5.26497">
        <ele>815.82</ele>
        <time>2013-12-07T15:28:35Z</time>
      </trkpt>
      <trkpt lat="44.1237" lon="5.26475">
        <ele>813.41</ele>
        <time>2013-12-07T15:28:36Z</time>
      </trkpt>
      <trkpt lat="44.12359" lon="5.26449">
        <ele>810.05</ele>
        <time>2013-12-07T15:28:37Z</time>
      </trkpt>
      <trkpt lat="44.12354" lon="5.26433">
        <ele>808.13</ele>
        <time>2013-12-07T15:28:38Z</time>
      </trkpt>
      <trkpt lat="44.12353" lon="5.26414">
        <ele>806.68</ele>
        <time>2013-12-07T15:28:39Z</time>
      </trkpt>
      <trkpt lat="44.12356" lon="5.26395">
        <ele>805.24</ele>
        <time>2013-12-07T15:28:40Z</time>
      </trkpt>
      <trkpt lat="44.1236" lon="5.26374">
        <ele>803.8</ele>
        <time>2013-12-07T15:28:41Z</time>
      </trkpt>
      <trkpt lat="44.12364" lon="5.26358">
        <ele>802.36</ele>
        <time>2013-12-07T15:28:42Z</time>
      </trkpt>
      <trkpt lat="44.12373" lon="5.2634">
        <ele>800.92</ele>
        <time>2013-12-07T15:28:43Z</time>
      </trkpt>
      <trkpt lat="44.12382" lon="5.2632">
        <ele>799.47</ele>
        <time>2013-12-07T15:28:44Z</time>
      </trkpt>
      <trkpt lat="44.12389" lon="5.26298">
        <ele>798.03</ele>
        <time>2013-12-07T15:28:45Z</time>
      </trkpt>
      <trkpt lat="44.12397" lon="5.26274">
        <ele>795.15</ele>
        <time>2013-12-07T15:28:46Z</time>
      </trkpt>
      <trkpt lat="44.1241" lon="5.26224">
        <ele>790.82</ele>
        <time>2013-12-07T15:28:48Z</time>
      </trkpt>
      <trkpt lat="44.12424" lon="5.26178">
        <ele>786.98</ele>
        <time>2013-12-07T15:28:50Z</time>
      </trkpt>
      <trkpt lat="44.12432" lon="5.26149">
        <ele>784.09</ele>
        <time>2013-12-07T15:28:51Z</time>
      </trkpt>
      <trkpt lat="44.12436" lon="5.26132">
        <ele>782.65</ele>
        <time>2013-12-07T15:28:52Z</time>
      </trkpt>
      <trkpt lat="44.12438" lon="5.2611">
        <ele>781.21</ele>
        <time>2013-12-07T15:28:53Z</time>
      </trkpt>
      <trkpt lat="44.12437" lon="5.2609">
        <ele>778.81</ele>
        <time>2013-12-07T15:28:54Z</time>
      </trkpt>
      <trkpt lat="44.12432" lon="5.26071">
        <ele>776.88</ele>
        <time>2013-12-07T15:28:55Z</time>
      </trkpt>
      <trkpt lat="44.12423" lon="5.26049">
        <ele>775.92</ele>
        <time>2013-12-07T15:28:56Z</time>
      </trkpt>
      <trkpt lat="44.12406" lon="5.26002">
        <ele>771.11</ele>
        <time>2013-12-07T15:28:58Z</time>
      </trkpt>
      <trkpt lat="44.12404" lon="5.25978">
        <ele>769.67</ele>
        <time>2013-12-07T15:28:59Z</time>
      </trkpt>
      <trkpt lat="44.12407" lon="5.25929">
        <ele>766.31</ele>
        <time>2013-12-07T15:29:01Z</time>
      </trkpt>
      <trkpt lat="44.12413" lon="5.25895">
        <ele>761.98</ele>
        <time>2013-12-07T15:29:02Z</time>
      </trkpt>
      <trkpt lat="44.12417" lon="5.25883">
        <ele>761.5</ele>
        <time>2013-12-07T15:29:03Z</time>
      </trkpt>
      <trkpt lat="44.12423" lon="5.25865">
        <ele>759.58</ele>
        <time>2013-12-07T15:29:04Z</time>
      </trkpt>
      <trkpt lat="44.1243" lon="5.25848">
        <ele>758.62</ele>
        <time>2013-12-07T15:29:05Z</time>
      </trkpt>
      <trkpt lat="44.1244" lon="5.25833">
        <ele>757.18</ele>
        <time>2013-12-07T15:29:06Z</time>
      </trkpt>
      <trkpt lat="44.12453" lon="5.25819">
        <ele>754.77</ele>
        <time>2013-12-07T15:29:07Z</time>
      </trkpt>
      <trkpt lat="44.12466" lon="5.25805">
        <ele>753.33</ele>
        <time>2013-12-07T15:29:08Z</time>
      </trkpt>
      <trkpt lat="44.1249" lon="5.25778">
        <ele>749.97</ele>
        <time>2013-12-07T15:29:10Z</time>
      </trkpt>
      <trkpt lat="44.12498" lon="5.25765">
        <ele>748.52</ele>
        <time>2013-12-07T15:29:11Z</time>
      </trkpt>
      <trkpt lat="44.12505" lon="5.2575">
        <ele>747.56</ele>
        <time>2013-12-07T15:29:12Z</time>
      </trkpt>
      <trkpt lat="44.1251" lon="5.25734">
        <ele>746.12</ele>
        <time>2013-12-07T15:29:13Z</time>
      </trkpt>
      <trkpt lat="44.12508" lon="5.25716">
        <ele>744.2</ele>
        <time>2013-12-07T15:29:14Z</time>
      </trkpt>
      <trkpt lat="44.12506" lon="5.25699">
        <ele>742.76</ele>
        <time>2013-12-07T15:29:15Z</time>
      </trkpt>
      <trkpt lat="44.12503" lon="5.25682">
        <ele>741.31</ele>
        <time>2013-12-07T15:29:16Z</time>
      </trkpt>
      <trkpt lat="44.12481" lon="5.25622">
        <ele>737.95</ele>
        <time>2013-12-07T15:29:19Z</time>
      </trkpt>
      <trkpt lat="44.12465" lon="5.25574">
        <ele>734.58</ele>
        <time>2013-12-07T15:29:21Z</time>
      </trkpt>
      <trkpt lat="44.1245" lon="5.25527">
        <ele>731.22</ele>
        <time>2013-12-07T15:29:23Z</time>
      </trkpt>
      <trkpt lat="44.12445" lon="5.25503">
        <ele>729.78</ele>
        <time>2013-12-07T15:29:24Z</time>
      </trkpt>
      <trkpt lat="44.12443" lon="5.25478">
        <ele>727.86</ele>
        <time>2013-12-07T15:29:25Z</time>
      </trkpt>
      <trkpt lat="44.12442" lon="5.25454">
        <ele>725.45</ele>
        <time>2013-12-07T15:29:26Z</time>
      </trkpt>
      <trkpt lat="44.12452" lon="5.25431">
        <ele>723.53</ele>
        <time>2013-12-07T15:29:27Z</time>
      </trkpt>
      <trkpt lat="44.12459" lon="5.25408">
        <ele>721.13</ele>
        <time>2013-12-07T15:29:28Z</time>
      </trkpt>
      <trkpt lat="44.12466" lon="5.25374">
        <ele>717.76</ele>
        <time>2013-12-07T15:29:29Z</time>
      </trkpt>
      <trkpt lat="44.12468" lon="5.25358">
        <ele>717.28</ele>
        <time>2013-12-07T15:29:30Z</time>
      </trkpt>
      <trkpt lat="44.12468" lon="5.25315">
        <ele>712.95</ele>
        <time>2013-12-07T15:29:32Z</time>
      </trkpt>
      <trkpt lat="44.12462" lon="5.25295">
        <ele>711.99</ele>
        <time>2013-12-07T15:29:33Z</time>
      </trkpt>
      <trkpt lat="44.1246" lon="5.25282">
        <ele>710.55</ele>
        <time>2013-12-07T15:29:34Z</time>
      </trkpt>
      <trkpt lat="44.12455" lon="5.25272">
        <ele>709.59</ele>
        <time>2013-12-07T15:29:35Z</time>
      </trkpt>
      <trkpt lat="44.1245" lon="5.25258">
        <ele>708.63</ele>
        <time>2013-12-07T15:29:36Z</time>
      </trkpt>
      <trkpt lat="44.12446" lon="5.2525">
        <ele>708.15</ele>
        <time>2013-12-07T15:29:37Z</time>
      </trkpt>
      <trkpt lat="44.12437" lon="5.25229">
        <ele>706.23</ele>
        <time>2013-12-07T15:29:38Z</time>
      </trkpt>
      <trkpt lat="44.12429" lon="5.25214">
        <ele>704.78</ele>
        <time>2013-12-07T15:29:39Z</time>
      </trkpt>
      <trkpt lat="44.12422" lon="5.25201">
        <ele>703.34</ele>
        <time>2013-12-07T15:29:40Z</time>
      </trkpt>
      <trkpt lat="44.12407" lon="5.25174">
        <ele>700.46</ele>
        <time>2013-12-07T15:29:42Z</time>
      </trkpt>
      <trkpt lat="44.12358" lon="5.25094">
        <ele>696.13</ele>
        <time>2013-12-07T15:29:45Z</time>
      </trkpt>
      <trkpt lat="44.12332" lon="5.25043">
        <ele>692.77</ele>
        <time>2013-12-07T15:29:47Z</time>
      </trkpt>
      <trkpt lat="44.12319" lon="5.25018">
        <ele>691.81</ele>
        <time>2013-12-07T15:29:48Z</time>
      </trkpt>
      <trkpt lat="44.12291" lon="5.24964">
        <ele>687.96</ele>
        <time>2013-12-07T15:29:50Z</time>
      </trkpt>
      <trkpt lat="44.12277" lon="5.24938">
        <ele>686.52</ele>
        <time>2013-12-07T15:29:51Z</time>
      </trkpt>
      <trkpt lat="44.12263" lon="5.24912">
        <ele>685.08</ele>
        <time>2013-12-07T15:29:52Z</time>
      </trkpt>
      <trkpt lat="44.1224" lon="5.2487">
        <ele>681.71</ele>
        <time>2013-12-07T15:29:54Z</time>
      </trkpt>
      <trkpt lat="44.12216" lon="5.24826">
        <ele>678.35</ele>
        <time>2013-12-07T15:29:56Z</time>
      </trkpt>
      <trkpt lat="44.12198" lon="5.24798">
        <ele>674.98</ele>
        <time>2013-12-07T15:29:58Z</time>
      </trkpt>
      <trkpt lat="44.12193" lon="5.24797">
        <ele>674.5</ele>
        <time>2013-12-07T15:29:59Z</time>
      </trkpt>
      <trkpt lat="44.12187" lon="5.24794">
        <ele>674.02</ele>
        <time>2013-12-07T15:30:00Z</time>
      </trkpt>
      <trkpt lat="44.12179" lon="5.24794">
        <ele>672.58</ele>
        <time>2013-12-07T15:30:01Z</time>
      </trkpt>
      <trkpt lat="44.12169" lon="5.248">
        <ele>671.62</ele>
        <time>2013-12-07T15:30:02Z</time>
      </trkpt>
      <trkpt lat="44.12163" lon="5.248">
        <ele>671.14</ele>
        <time>2013-12-07T15:30:03Z</time>
      </trkpt>
      <trkpt lat="44.12151" lon="5.24803">
        <ele>668.73</ele>
        <time>2013-12-07T15:30:05Z</time>
      </trkpt>
      <trkpt lat="44.12142" lon="5.24821">
        <ele>667.77</ele>
        <time>2013-12-07T15:30:06Z</time>
      </trkpt>
      <trkpt lat="44.12124" lon="5.2483">
        <ele>665.37</ele>
        <time>2013-12-07T15:30:08Z</time>
      </trkpt>
      <trkpt lat="44.12112" lon="5.24832">
        <ele>664.89</ele>
        <time>2013-12-07T15:30:09Z</time>
      </trkpt>
      <trkpt lat="44.121" lon="5.2483">
        <ele>663.45</ele>
        <time>2013-12-07T15:30:10Z</time>
      </trkpt>
      <trkpt lat="44.12095" lon="5.24829">
        <ele>662.49</ele>
        <time>2013-12-07T15:30:11Z</time>
      </trkpt>
      <trkpt lat="44.12092" lon="5.24817">
        <ele>661.52</ele>
        <time>2013-12-07T15:30:12Z</time>
      </trkpt>
      <trkpt lat="44.12085" lon="5.24808">
        <ele>661.04</ele>
        <time>2013-12-07T15:30:13Z</time>
      </trkpt>
      <trkpt lat="44.12078" lon="5.24802">
        <ele>660.08</ele>
        <time>2013-12-07T15:30:14Z</time>
      </trkpt>
      <trkpt lat="44.1207" lon="5.24799">
        <ele>658.64</ele>
        <time>2013-12-07T15:30:15Z</time>
      </trkpt>
      <trkpt lat="44.1206" lon="5.24797">
        <ele>657.68</ele>
        <time>2013-12-07T15:30:16Z</time>
      </trkpt>
      <trkpt lat="44.12021" lon="5.24797">
        <ele>654.8</ele>
        <time>2013-12-07T15:30:20Z</time>
      </trkpt>
      <trkpt lat="44.11993" lon="5.24796">
        <ele>651.43</ele>
        <time>2013-12-07T15:30:23Z</time>
      </trkpt>
      <trkpt lat="44.11973" lon="5.24795">
        <ele>649.03</ele>
        <time>2013-12-07T15:30:25Z</time>
      </trkpt>
      <trkpt lat="44.11962" lon="5.24792">
        <ele>648.07</ele>
        <time>2013-12-07T15:30:26Z</time>
      </trkpt>
      <trkpt lat="44.1195" lon="5.24788">
        <ele>646.62</ele>
        <time>2013-12-07T15:30:27Z</time>
      </trkpt>
      <trkpt lat="44.11939" lon="5.2478">
        <ele>645.18</ele>
        <time>2013-12-07T15:30:28Z</time>
      </trkpt>
      <trkpt lat="44.11917" lon="5.24763">
        <ele>642.3</ele>
        <time>2013-12-07T15:30:30Z</time>
      </trkpt>
      <trkpt lat="44.11906" lon="5.24756">
        <ele>640.86</ele>
        <time>2013-12-07T15:30:31Z</time>
      </trkpt>
      <trkpt lat="44.11868" lon="5.24747">
        <ele>636.53</ele>
        <time>2013-12-07T15:30:34Z</time>
      </trkpt>
      <trkpt lat="44.11853" lon="5.24741">
        <ele>634.61</ele>
        <time>2013-12-07T15:30:35Z</time>
      </trkpt>
      <trkpt lat="44.11842" lon="5.24729">
        <ele>632.68</ele>
        <time>2013-12-07T15:30:36Z</time>
      </trkpt>
      <trkpt lat="44.11818" lon="5.24706">
        <ele>630.76</ele>
        <time>2013-12-07T15:30:38Z</time>
      </trkpt>
      <trkpt lat="44.11806" lon="5.24696">
        <ele>628.36</ele>
        <time>2013-12-07T15:30:39Z</time>
      </trkpt>
      <trkpt lat="44.1178" lon="5.2468">
        <ele>625.47</ele>
        <time>2013-12-07T15:30:41Z</time>
      </trkpt>
      <trkpt lat="44.11751" lon="5.24663">
        <ele>622.11</ele>
        <time>2013-12-07T15:30:43Z</time>
      </trkpt>
      <trkpt lat="44.11737" lon="5.24651">
        <ele>621.15</ele>
        <time>2013-12-07T15:30:44Z</time>
      </trkpt>
      <trkpt lat="44.11697" lon="5.24609">
        <ele>616.82</ele>
        <time>2013-12-07T15:30:47Z</time>
      </trkpt>
      <trkpt lat="44.11673" lon="5.24579">
        <ele>612.98</ele>
        <time>2013-12-07T15:30:49Z</time>
      </trkpt>
      <trkpt lat="44.11648" lon="5.24547">
        <ele>609.61</ele>
        <time>2013-12-07T15:30:51Z</time>
      </trkpt>
      <trkpt lat="44.11606" lon="5.24491">
        <ele>605.29</ele>
        <time>2013-12-07T15:30:54Z</time>
      </trkpt>
      <trkpt lat="44.11577" lon="5.24457">
        <ele>602.4</ele>
        <time>2013-12-07T15:30:56Z</time>
      </trkpt>
      <trkpt lat="44.11553" lon="5.24431">
        <ele>599.04</ele>
        <time>2013-12-07T15:30:58Z</time>
      </trkpt>
      <trkpt lat="44.11525" lon="5.24401">
        <ele>595.67</ele>
        <time>2013-12-07T15:31:01Z</time>
      </trkpt>
      <trkpt lat="44.11514" lon="5.24391">
        <ele>594.71</ele>
        <time>2013-12-07T15:31:02Z</time>
      </trkpt>
      <trkpt lat="44.11524" lon="5.24365">
        <ele>594.23</ele>
        <time>2013-12-07T15:31:03Z</time>
      </trkpt>
      <trkpt lat="44.11522" lon="5.24352">
        <ele>593.27</ele>
        <time>2013-12-07T15:31:04Z</time>
      </trkpt>
      <trkpt lat="44.11521" lon="5.2434">
        <ele>591.83</ele>
        <time>2013-12-07T15:31:05Z</time>
      </trkpt>
      <trkpt lat="44.11525" lon="5.24323">
        <ele>592.31</ele>
        <time>2013-12-07T15:31:06Z</time>
      </trkpt>
      <trkpt lat="44.11532" lon="5.24309">
        <ele>589.91</ele>
        <time>2013-12-07T15:31:07Z</time>
      </trkpt>
      <trkpt lat="44.11539" lon="5.24296">
        <ele>588.95</ele>
        <time>2013-12-07T15:31:08Z</time>
      </trkpt>
      <trkpt lat="44.11559" lon="5.24255">
        <ele>585.1</ele>
        <time>2013-12-07T15:31:11Z</time>
      </trkpt>
      <trkpt lat="44.11567" lon="5.24243">
        <ele>582.7</ele>
        <time>2013-12-07T15:31:12Z</time>
      </trkpt>
      <trkpt lat="44.11574" lon="5.24232">
        <ele>581.25</ele>
        <time>2013-12-07T15:31:13Z</time>
      </trkpt>
      <trkpt lat="44.11579" lon="5.24187">
        <ele>577.89</ele>
        <time>2013-12-07T15:31:18Z</time>
      </trkpt>
      <trkpt lat="44.11579" lon="5.24174">
        <ele>574.04</ele>
        <time>2013-12-07T15:31:20Z</time>
      </trkpt>
      <trkpt lat="44.11579" lon="5.24171">
        <ele>574.04</ele>
        <time>2013-12-07T15:31:21Z</time>
      </trkpt>
      <trkpt lat="44.11578" lon="5.24159">
        <ele>572.6</ele>
        <time>2013-12-07T15:31:23Z</time>
      </trkpt>
      <trkpt lat="44.11576" lon="5.24153">
        <ele>572.12</ele>
        <time>2013-12-07T15:31:24Z</time>
      </trkpt>
      <trkpt lat="44.11572" lon="5.24146">
        <ele>570.68</ele>
        <time>2013-12-07T15:31:25Z</time>
      </trkpt>
      <trkpt lat="44.11566" lon="5.24139">
        <ele>569.72</ele>
        <time>2013-12-07T15:31:26Z</time>
      </trkpt>
      <trkpt lat="44.11558" lon="5.24131">
        <ele>568.76</ele>
        <time>2013-12-07T15:31:27Z</time>
      </trkpt>
      <trkpt lat="44.11511" lon="5.24091">
        <ele>564.43</ele>
        <time>2013-12-07T15:31:30Z</time>
      </trkpt>
      <trkpt lat="44.11461" lon="5.2404">
        <ele>560.11</ele>
        <time>2013-12-07T15:31:33Z</time>
      </trkpt>
      <trkpt lat="44.11421" lon="5.23995">
        <ele>556.26</ele>
        <time>2013-12-07T15:31:36Z</time>
      </trkpt>
      <trkpt lat="44.11406" lon="5.23975">
        <ele>554.34</ele>
        <time>2013-12-07T15:31:38Z</time>
      </trkpt>
      <trkpt lat="44.11383" lon="5.23965">
        <ele>552.9</ele>
        <time>2013-12-07T15:31:39Z</time>
      </trkpt>
      <trkpt lat="44.11366" lon="5.23957">
        <ele>551.93</ele>
        <time>2013-12-07T15:31:40Z</time>
      </trkpt>
      <trkpt lat="44.1133" lon="5.23946">
        <ele>548.57</ele>
        <time>2013-12-07T15:31:43Z</time>
      </trkpt>
      <trkpt lat="44.11326" lon="5.23941">
        <ele>548.57</ele>
        <time>2013-12-07T15:31:44Z</time>
      </trkpt>
      <trkpt lat="44.11325" lon="5.23934">
        <ele>548.09</ele>
        <time>2013-12-07T15:31:45Z</time>
      </trkpt>
      <trkpt lat="44.1133" lon="5.23923">
        <ele>545.69</ele>
        <time>2013-12-07T15:31:49Z</time>
      </trkpt>
      <trkpt lat="44.11332" lon="5.23924">
        <ele>544.72</ele>
        <time>2013-12-07T15:31:50Z</time>
      </trkpt>
      <trkpt lat="44.11336" lon="5.23925">
        <ele>544.24</ele>
        <time>2013-12-07T15:31:51Z</time>
      </trkpt>
      <trkpt lat="44.11341" lon="5.23927">
        <ele>543.28</ele>
        <time>2013-12-07T15:31:52Z</time>
      </trkpt>
      <trkpt lat="44.11347" lon="5.23931">
        <ele>542.8</ele>
        <time>2013-12-07T15:31:53Z</time>
      </trkpt>
      <trkpt lat="44.11355" lon="5.23937">
        <ele>542.32</ele>
        <time>2013-12-07T15:31:54Z</time>
      </trkpt>
      <trkpt lat="44.11413" lon="5.2398">
        <ele>541.36</ele>
        <time>2013-12-07T15:31:59Z</time>
      </trkpt>
      <trkpt lat="44.11427" lon="5.23984">
        <ele>541.36</ele>
        <time>2013-12-07T15:32:00Z</time>
      </trkpt>
      <trkpt lat="44.11442" lon="5.23985">
        <ele>540.4</ele>
        <time>2013-12-07T15:32:01Z</time>
      </trkpt>
      <trkpt lat="44.11457" lon="5.23985">
        <ele>539.92</ele>
        <time>2013-12-07T15:32:02Z</time>
      </trkpt>
      <trkpt lat="44.11472" lon="5.23983">
        <ele>539.44</ele>
        <time>2013-12-07T15:32:03Z</time>
      </trkpt>
      <trkpt lat="44.11517" lon="5.23974">
        <ele>539.44</ele>
        <time>2013-12-07T15:32:06Z</time>
      </trkpt>
      <trkpt lat="44.1153" lon="5.23966">
        <ele>539.44</ele>
        <time>2013-12-07T15:32:07Z</time>
      </trkpt>
      <trkpt lat="44.11543" lon="5.23953">
        <ele>539.44</ele>
        <time>2013-12-07T15:32:08Z</time>
      </trkpt>
      <trkpt lat="44.11555" lon="5.23939">
        <ele>539.92</ele>
        <time>2013-12-07T15:32:09Z</time>
      </trkpt>
      <trkpt lat="44.11566" lon="5.23923">
        <ele>539.44</ele>
        <time>2013-12-07T15:32:10Z</time>
      </trkpt>
      <trkpt lat="44.11664" lon="5.23801">
        <ele>539.44</ele>
        <time>2013-12-07T15:32:19Z</time>
      </trkpt>
      <trkpt lat="44.11671" lon="5.23784">
        <ele>538.96</ele>
        <time>2013-12-07T15:32:20Z</time>
      </trkpt>
      <trkpt lat="44.11678" lon="5.23764">
        <ele>537.51</ele>
        <time>2013-12-07T15:32:21Z</time>
      </trkpt>
      <trkpt lat="44.11682" lon="5.23744">
        <ele>537.03</ele>
        <time>2013-12-07T15:32:22Z</time>
      </trkpt>
      <trkpt lat="44.11683" lon="5.23722">
        <ele>536.55</ele>
        <time>2013-12-07T15:32:23Z</time>
      </trkpt>
      <trkpt lat="44.11685" lon="5.237">
        <ele>535.59</ele>
        <time>2013-12-07T15:32:24Z</time>
      </trkpt>
      <trkpt lat="44.1169" lon="5.23637">
        <ele>534.15</ele>
        <time>2013-12-07T15:32:27Z</time>
      </trkpt>
      <trkpt lat="44.11689" lon="5.23617">
        <ele>533.19</ele>
        <time>2013-12-07T15:32:28Z</time>
      </trkpt>
      <trkpt lat="44.11687" lon="5.23596">
        <ele>532.23</ele>
        <time>2013-12-07T15:32:29Z</time>
      </trkpt>
      <trkpt lat="44.11672" lon="5.2351">
        <ele>530.3</ele>
        <time>2013-12-07T15:32:34Z</time>
      </trkpt>
      <trkpt lat="44.11673" lon="5.23486">
        <ele>529.82</ele>
        <time>2013-12-07T15:32:36Z</time>
      </trkpt>
      <trkpt lat="44.11675" lon="5.23474">
        <ele>529.82</ele>
        <time>2013-12-07T15:32:37Z</time>
      </trkpt>
      <trkpt lat="44.11684" lon="5.23453">
        <ele>529.34</ele>
        <time>2013-12-07T15:32:39Z</time>
      </trkpt>
      <trkpt lat="44.11691" lon="5.23442">
        <ele>529.34</ele>
        <time>2013-12-07T15:32:40Z</time>
      </trkpt>
      <trkpt lat="44.11709" lon="5.23407">
        <ele>528.38</ele>
        <time>2013-12-07T15:32:43Z</time>
      </trkpt>
      <trkpt lat="44.11715" lon="5.23395">
        <ele>527.9</ele>
        <time>2013-12-07T15:32:44Z</time>
      </trkpt>
      <trkpt lat="44.1172" lon="5.23381">
        <ele>527.42</ele>
        <time>2013-12-07T15:32:45Z</time>
      </trkpt>
      <trkpt lat="44.11726" lon="5.23365">
        <ele>526.94</ele>
        <time>2013-12-07T15:32:46Z</time>
      </trkpt>
      <trkpt lat="44.11733" lon="5.23349">
        <ele>525.98</ele>
        <time>2013-12-07T15:32:47Z</time>
      </trkpt>
      <trkpt lat="44.11741" lon="5.23334">
        <ele>526.46</ele>
        <time>2013-12-07T15:32:48Z</time>
      </trkpt>
      <trkpt lat="44.11752" lon="5.23319">
        <ele>525.5</ele>
        <time>2013-12-07T15:32:49Z</time>
      </trkpt>
      <trkpt lat="44.1179" lon="5.23263">
        <ele>524.06</ele>
        <time>2013-12-07T15:32:52Z</time>
      </trkpt>
      <trkpt lat="44.11855" lon="5.23178">
        <ele>520.21</ele>
        <time>2013-12-07T15:32:56Z</time>
      </trkpt>
      <trkpt lat="44.11887" lon="5.23135">
        <ele>516.37</ele>
        <time>2013-12-07T15:32:58Z</time>
      </trkpt>
      <trkpt lat="44.11903" lon="5.23113">
        <ele>515.88</ele>
        <time>2013-12-07T15:32:59Z</time>
      </trkpt>
      <trkpt lat="44.1193" lon="5.23073">
        <ele>512.04</ele>
        <time>2013-12-07T15:33:01Z</time>
      </trkpt>
      <trkpt lat="44.11971" lon="5.23018">
        <ele>507.71</ele>
        <time>2013-12-07T15:33:04Z</time>
      </trkpt>
      <trkpt lat="44.11979" lon="5.22994">
        <ele>506.27</ele>
        <time>2013-12-07T15:33:05Z</time>
      </trkpt>
      <trkpt lat="44.11984" lon="5.22971">
        <ele>505.31</ele>
        <time>2013-12-07T15:33:06Z</time>
      </trkpt>
      <trkpt lat="44.11986" lon="5.2295">
        <ele>504.83</ele>
        <time>2013-12-07T15:33:07Z</time>
      </trkpt>
      <trkpt lat="44.11986" lon="5.22928">
        <ele>503.87</ele>
        <time>2013-12-07T15:33:08Z</time>
      </trkpt>
      <trkpt lat="44.11982" lon="5.22846">
        <ele>499.54</ele>
        <time>2013-12-07T15:33:11Z</time>
      </trkpt>
      <trkpt lat="44.11978" lon="5.22791">
        <ele>496.18</ele>
        <time>2013-12-07T15:33:13Z</time>
      </trkpt>
      <trkpt lat="44.11975" lon="5.22735">
        <ele>493.29</ele>
        <time>2013-12-07T15:33:15Z</time>
      </trkpt>
      <trkpt lat="44.11977" lon="5.22706">
        <ele>491.85</ele>
        <time>2013-12-07T15:33:16Z</time>
      </trkpt>
      <trkpt lat="44.11979" lon="5.22675">
        <ele>489.93</ele>
        <time>2013-12-07T15:33:17Z</time>
      </trkpt>
      <trkpt lat="44.1199" lon="5.22589">
        <ele>486.08</ele>
        <time>2013-12-07T15:33:20Z</time>
      </trkpt>
      <trkpt lat="44.12002" lon="5.22501">
        <ele>482.24</ele>
        <time>2013-12-07T15:33:23Z</time>
      </trkpt>
      <trkpt lat="44.1201" lon="5.22431">
        <ele>478.87</ele>
        <time>2013-12-07T15:33:26Z</time>
      </trkpt>
      <trkpt lat="44.12011" lon="5.2241">
        <ele>477.43</ele>
        <time>2013-12-07T15:33:27Z</time>
      </trkpt>
      <trkpt lat="44.12012" lon="5.22391">
        <ele>476.47</ele>
        <time>2013-12-07T15:33:28Z</time>
      </trkpt>
      <trkpt lat="44.12008" lon="5.22369">
        <ele>475.99</ele>
        <time>2013-12-07T15:33:29Z</time>
      </trkpt>
      <trkpt lat="44.11997" lon="5.22306">
        <ele>472.63</ele>
        <time>2013-12-07T15:33:32Z</time>
      </trkpt>
      <trkpt lat="44.11995" lon="5.22247">
        <ele>469.26</ele>
        <time>2013-12-07T15:33:35Z</time>
      </trkpt>
      <trkpt lat="44.11998" lon="5.22228">
        <ele>468.78</ele>
        <time>2013-12-07T15:33:36Z</time>
      </trkpt>
      <trkpt lat="44.12004" lon="5.2221">
        <ele>467.82</ele>
        <time>2013-12-07T15:33:37Z</time>
      </trkpt>
      <trkpt lat="44.12013" lon="5.2219">
        <ele>467.82</ele>
        <time>2013-12-07T15:33:38Z</time>
      </trkpt>
      <trkpt lat="44.12022" lon="5.2217">
        <ele>466.86</ele>
        <time>2013-12-07T15:33:39Z</time>
      </trkpt>
      <trkpt lat="44.12083" lon="5.22023">
        <ele>462.53</ele>
        <time>2013-12-07T15:33:46Z</time>
      </trkpt>
      <trkpt lat="44.12112" lon="5.21954">
        <ele>459.65</ele>
        <time>2013-12-07T15:33:49Z</time>
      </trkpt>
      <trkpt lat="44.12137" lon="5.21879">
        <ele>455.32</ele>
        <time>2013-12-07T15:33:52Z</time>
      </trkpt>
      <trkpt lat="44.12159" lon="5.21799">
        <ele>451</ele>
        <time>2013-12-07T15:33:55Z</time>
      </trkpt>
      <trkpt lat="44.12174" lon="5.21745">
        <ele>447.63</ele>
        <time>2013-12-07T15:33:57Z</time>
      </trkpt>
      <trkpt lat="44.12196" lon="5.21665">
        <ele>443.31</ele>
        <time>2013-12-07T15:34:00Z</time>
      </trkpt>
      <trkpt lat="44.12209" lon="5.21613">
        <ele>439.94</ele>
        <time>2013-12-07T15:34:02Z</time>
      </trkpt>
      <trkpt lat="44.12213" lon="5.21589">
        <ele>438.02</ele>
        <time>2013-12-07T15:34:03Z</time>
      </trkpt>
      <trkpt lat="44.12214" lon="5.21565">
        <ele>437.06</ele>
        <time>2013-12-07T15:34:04Z</time>
      </trkpt>
      <trkpt lat="44.12212" lon="5.21543">
        <ele>435.13</ele>
        <time>2013-12-07T15:34:05Z</time>
      </trkpt>
      <trkpt lat="44.12206" lon="5.2152">
        <ele>434.17</ele>
        <time>2013-12-07T15:34:06Z</time>
      </trkpt>
      <trkpt lat="44.12199" lon="5.21497">
        <ele>432.73</ele>
        <time>2013-12-07T15:34:07Z</time>
      </trkpt>
      <trkpt lat="44.1216" lon="5.21405">
        <ele>428.89</ele>
        <time>2013-12-07T15:34:11Z</time>
      </trkpt>
      <trkpt lat="44.12125" lon="5.21337">
        <ele>425.04</ele>
        <time>2013-12-07T15:34:14Z</time>
      </trkpt>
      <trkpt lat="44.12091" lon="5.21272">
        <ele>422.16</ele>
        <time>2013-12-07T15:34:17Z</time>
      </trkpt>
      <trkpt lat="44.12057" lon="5.21209">
        <ele>418.79</ele>
        <time>2013-12-07T15:34:20Z</time>
      </trkpt>
      <trkpt lat="44.12029" lon="5.21151">
        <ele>415.43</ele>
        <time>2013-12-07T15:34:23Z</time>
      </trkpt>
      <trkpt lat="44.12024" lon="5.2113">
        <ele>413.98</ele>
        <time>2013-12-07T15:34:24Z</time>
      </trkpt>
      <trkpt lat="44.12019" lon="5.21107">
        <ele>413.02</ele>
        <time>2013-12-07T15:34:25Z</time>
      </trkpt>
      <trkpt lat="44.12007" lon="5.21034">
        <ele>409.66</ele>
        <time>2013-12-07T15:34:28Z</time>
      </trkpt>
      <trkpt lat="44.11994" lon="5.20955">
        <ele>406.29</ele>
        <time>2013-12-07T15:34:31Z</time>
      </trkpt>
      <trkpt lat="44.11985" lon="5.20875">
        <ele>402.93</ele>
        <time>2013-12-07T15:34:34Z</time>
      </trkpt>
      <trkpt lat="44.11986" lon="5.20849">
        <ele>402.93</ele>
        <time>2013-12-07T15:34:35Z</time>
      </trkpt>
      <trkpt lat="44.11988" lon="5.20822">
        <ele>401.97</ele>
        <time>2013-12-07T15:34:36Z</time>
      </trkpt>
      <trkpt lat="44.12004" lon="5.20683">
        <ele>398.6</ele>
        <time>2013-12-07T15:34:41Z</time>
      </trkpt>
      <trkpt lat="44.12014" lon="5.20567">
        <ele>394.76</ele>
        <time>2013-12-07T15:34:45Z</time>
      </trkpt>
      <trkpt lat="44.1201" lon="5.2045">
        <ele>391.87</ele>
        <time>2013-12-07T15:34:49Z</time>
      </trkpt>
      <trkpt lat="44.11995" lon="5.20289">
        <ele>387.55</ele>
        <time>2013-12-07T15:34:54Z</time>
      </trkpt>
      <trkpt lat="44.11989" lon="5.20228">
        <ele>384.18</ele>
        <time>2013-12-07T15:34:56Z</time>
      </trkpt>
      <trkpt lat="44.11982" lon="5.20175">
        <ele>380.34</ele>
        <time>2013-12-07T15:34:58Z</time>
      </trkpt>
      <trkpt lat="44.11975" lon="5.20151">
        <ele>378.9</ele>
        <time>2013-12-07T15:34:59Z</time>
      </trkpt>
      <trkpt lat="44.11965" lon="5.20131">
        <ele>377.94</ele>
        <time>2013-12-07T15:35:00Z</time>
      </trkpt>
      <trkpt lat="44.11953" lon="5.20113">
        <ele>377.94</ele>
        <time>2013-12-07T15:35:01Z</time>
      </trkpt>
      <trkpt lat="44.11939" lon="5.20096">
        <ele>376.49</ele>
        <time>2013-12-07T15:35:02Z</time>
      </trkpt>
      <trkpt lat="44.11924" lon="5.20082">
        <ele>376.01</ele>
        <time>2013-12-07T15:35:03Z</time>
      </trkpt>
      <trkpt lat="44.11908" lon="5.2007">
        <ele>374.57</ele>
        <time>2013-12-07T15:35:04Z</time>
      </trkpt>
      <trkpt lat="44.11892" lon="5.20061">
        <ele>374.09</ele>
        <time>2013-12-07T15:35:05Z</time>
      </trkpt>
      <trkpt lat="44.1185" lon="5.20035">
        <ele>371.21</ele>
        <time>2013-12-07T15:35:08Z</time>
      </trkpt>
      <trkpt lat="44.11842" lon="5.20023">
        <ele>369.28</ele>
        <time>2013-12-07T15:35:09Z</time>
      </trkpt>
      <trkpt lat="44.1184" lon="5.2001">
        <ele>368.32</ele>
        <time>2013-12-07T15:35:10Z</time>
      </trkpt>
      <trkpt lat="44.11842" lon="5.19996">
        <ele>367.84</ele>
        <time>2013-12-07T15:35:11Z</time>
      </trkpt>
      <trkpt lat="44.11846" lon="5.19982">
        <ele>367.36</ele>
        <time>2013-12-07T15:35:12Z</time>
      </trkpt>
      <trkpt lat="44.11851" lon="5.19968">
        <ele>366.4</ele>
        <time>2013-12-07T15:35:13Z</time>
      </trkpt>
      <trkpt lat="44.11868" lon="5.19919">
        <ele>364.96</ele>
        <time>2013-12-07T15:35:16Z</time>
      </trkpt>
      <trkpt lat="44.11899" lon="5.19852">
        <ele>362.07</ele>
        <time>2013-12-07T15:35:21Z</time>
      </trkpt>
      <trkpt lat="44.11903" lon="5.19838">
        <ele>361.11</ele>
        <time>2013-12-07T15:35:22Z</time>
      </trkpt>
      <trkpt lat="44.11905" lon="5.19806">
        <ele>362.55</ele>
        <time>2013-12-07T15:35:24Z</time>
      </trkpt>
      <trkpt lat="44.11899" lon="5.19727">
        <ele>360.15</ele>
        <time>2013-12-07T15:35:28Z</time>
      </trkpt>
      <trkpt lat="44.11857" lon="5.19561">
        <ele>356.79</ele>
        <time>2013-12-07T15:35:35Z</time>
      </trkpt>
      <trkpt lat="44.1183" lon="5.19487">
        <ele>353.9</ele>
        <time>2013-12-07T15:35:38Z</time>
      </trkpt>
      <trkpt lat="44.11795" lon="5.19392">
        <ele>351.02</ele>
        <time>2013-12-07T15:35:42Z</time>
      </trkpt>
      <trkpt lat="44.11784" lon="5.19371">
        <ele>349.58</ele>
        <time>2013-12-07T15:35:43Z</time>
      </trkpt>
      <trkpt lat="44.11772" lon="5.1935">
        <ele>348.62</ele>
        <time>2013-12-07T15:35:44Z</time>
      </trkpt>
      <trkpt lat="44.11725" lon="5.19272">
        <ele>344.29</ele>
        <time>2013-12-07T15:35:48Z</time>
      </trkpt>
      <trkpt lat="44.11699" lon="5.19226">
        <ele>340.92</ele>
        <time>2013-12-07T15:35:51Z</time>
      </trkpt>
      <trkpt lat="44.11686" lon="5.19205">
        <ele>339.96</ele>
        <time>2013-12-07T15:35:53Z</time>
      </trkpt>
      <trkpt lat="44.11673" lon="5.19183">
        <ele>339.48</ele>
        <time>2013-12-07T15:35:58Z</time>
      </trkpt>
      <trkpt lat="44.11667" lon="5.19176">
        <ele>339.48</ele>
        <time>2013-12-07T15:36:00Z</time>
      </trkpt>
      <trkpt lat="44.11622" lon="5.19125">
        <ele>339.48</ele>
        <time>2013-12-07T15:36:06Z</time>
      </trkpt>
      <trkpt lat="44.11546" lon="5.19039">
        <ele>337.56</ele>
        <time>2013-12-07T15:36:12Z</time>
      </trkpt>
      <trkpt lat="44.11518" lon="5.19008">
        <ele>336.12</ele>
        <time>2013-12-07T15:36:14Z</time>
      </trkpt>
      <trkpt lat="44.11492" lon="5.18979">
        <ele>334.68</ele>
        <time>2013-12-07T15:36:16Z</time>
      </trkpt>
      <trkpt lat="44.11481" lon="5.18962">
        <ele>334.68</ele>
        <time>2013-12-07T15:36:17Z</time>
      </trkpt>
      <trkpt lat="44.11472" lon="5.18944">
        <ele>334.2</ele>
        <time>2013-12-07T15:36:18Z</time>
      </trkpt>
      <trkpt lat="44.11464" lon="5.18924">
        <ele>334.2</ele>
        <time>2013-12-07T15:36:19Z</time>
      </trkpt>
      <trkpt lat="44.11457" lon="5.18902">
        <ele>334.2</ele>
        <time>2013-12-07T15:36:20Z</time>
      </trkpt>
      <trkpt lat="44.11414" lon="5.18773">
        <ele>330.35</ele>
        <time>2013-12-07T15:36:26Z</time>
      </trkpt>
      <trkpt lat="44.11353" lon="5.1868">
        <ele>327.47</ele>
        <time>2013-12-07T15:36:32Z</time>
      </trkpt>
      <trkpt lat="44.11291" lon="5.18592">
        <ele>323.62</ele>
        <time>2013-12-07T15:36:37Z</time>
      </trkpt>
      <trkpt lat="44.11257" lon="5.18533">
        <ele>321.7</ele>
        <time>2013-12-07T15:36:40Z</time>
      </trkpt>
      <trkpt lat="44.11248" lon="5.18512">
        <ele>320.26</ele>
        <time>2013-12-07T15:36:41Z</time>
      </trkpt>
      <trkpt lat="44.1121" lon="5.184">
        <ele>316.89</ele>
        <time>2013-12-07T15:36:46Z</time>
      </trkpt>
      <trkpt lat="44.11192" lon="5.18355">
        <ele>315.93</ele>
        <time>2013-12-07T15:36:48Z</time>
      </trkpt>
      <trkpt lat="44.11182" lon="5.18334">
        <ele>314.49</ele>
        <time>2013-12-07T15:36:49Z</time>
      </trkpt>
      <trkpt lat="44.1115" lon="5.18277">
        <ele>311.12</ele>
        <time>2013-12-07T15:36:52Z</time>
      </trkpt>
      <trkpt lat="44.1111" lon="5.18207">
        <ele>307.76</ele>
        <time>2013-12-07T15:36:57Z</time>
      </trkpt>
      <trkpt lat="44.11096" lon="5.1818">
        <ele>307.76</ele>
        <time>2013-12-07T15:36:59Z</time>
      </trkpt>
      <trkpt lat="44.11089" lon="5.18165">
        <ele>306.8</ele>
        <time>2013-12-07T15:37:00Z</time>
      </trkpt>
      <trkpt lat="44.11044" lon="5.18022">
        <ele>305.36</ele>
        <time>2013-12-07T15:37:07Z</time>
      </trkpt>
      <trkpt lat="44.11037" lon="5.17999">
        <ele>304.88</ele>
        <time>2013-12-07T15:37:08Z</time>
      </trkpt>
      <trkpt lat="44.11031" lon="5.17976">
        <ele>303.91</ele>
        <time>2013-12-07T15:37:09Z</time>
      </trkpt>
      <trkpt lat="44.11028" lon="5.17954">
        <ele>302.95</ele>
        <time>2013-12-07T15:37:10Z</time>
      </trkpt>
      <trkpt lat="44.11027" lon="5.17933">
        <ele>301.99</ele>
        <time>2013-12-07T15:37:11Z</time>
      </trkpt>
      <trkpt lat="44.11026" lon="5.17915">
        <ele>302.47</ele>
        <time>2013-12-07T15:37:12Z</time>
      </trkpt>
      <trkpt lat="44.11025" lon="5.17898">
        <ele>301.99</ele>
        <time>2013-12-07T15:37:13Z</time>
      </trkpt>
      <trkpt lat="44.11021" lon="5.17883">
        <ele>301.51</ele>
        <time>2013-12-07T15:37:14Z</time>
      </trkpt>
      <trkpt lat="44.11015" lon="5.17868">
        <ele>301.99</ele>
        <time>2013-12-07T15:37:15Z</time>
      </trkpt>
      <trkpt lat="44.10976" lon="5.17783">
        <ele>298.63</ele>
        <time>2013-12-07T15:37:21Z</time>
      </trkpt>
      <trkpt lat="44.10953" lon="5.17732">
        <ele>296.7</ele>
        <time>2013-12-07T15:37:25Z</time>
      </trkpt>
      <trkpt lat="44.10937" lon="5.17701">
        <ele>294.3</ele>
        <time>2013-12-07T15:37:29Z</time>
      </trkpt>
      <trkpt lat="44.10935" lon="5.17695">
        <ele>293.82</ele>
        <time>2013-12-07T15:37:30Z</time>
      </trkpt>
      <trkpt lat="44.10934" lon="5.17689">
        <ele>293.34</ele>
        <time>2013-12-07T15:37:31Z</time>
      </trkpt>
      <trkpt lat="44.10933" lon="5.17683">
        <ele>292.86</ele>
        <time>2013-12-07T15:37:32Z</time>
      </trkpt>
      <trkpt lat="44.10934" lon="5.17677">
        <ele>292.86</ele>
        <time>2013-12-07T15:37:33Z</time>
      </trkpt>
      <trkpt lat="44.10936" lon="5.17671">
        <ele>293.34</ele>
        <time>2013-12-07T15:37:34Z</time>
      </trkpt>
      <trkpt lat="44.10939" lon="5.17663">
        <ele>292.86</ele>
        <time>2013-12-07T15:37:35Z</time>
      </trkpt>
      <trkpt lat="44.10941" lon="5.17655">
        <ele>292.86</ele>
        <time>2013-12-07T15:37:36Z</time>
      </trkpt>
      <trkpt lat="44.10942" lon="5.17646">
        <ele>292.38</ele>
        <time>2013-12-07T15:37:37Z</time>
      </trkpt>
      <trkpt lat="44.1094" lon="5.17638">
        <ele>291.9</ele>
        <time>2013-12-07T15:37:38Z</time>
      </trkpt>
      <trkpt lat="44.10936" lon="5.17631">
        <ele>291.42</ele>
        <time>2013-12-07T15:37:39Z</time>
      </trkpt>
      <trkpt lat="44.10929" lon="5.17628">
        <ele>291.9</ele>
        <time>2013-12-07T15:37:40Z</time>
      </trkpt>
      <trkpt lat="44.10921" lon="5.17625">
        <ele>291.42</ele>
        <time>2013-12-07T15:37:41Z</time>
      </trkpt>
      <trkpt lat="44.10908" lon="5.17621">
        <ele>291.42</ele>
        <time>2013-12-07T15:37:43Z</time>
      </trkpt>
      <trkpt lat="44.10901" lon="5.17617">
        <ele>291.42</ele>
        <time>2013-12-07T15:37:44Z</time>
      </trkpt>
      <trkpt lat="44.10836" lon="5.17561">
        <ele>290.94</ele>
        <time>2013-12-07T15:37:51Z</time>
      </trkpt>
      <trkpt lat="44.10737" lon="5.17458">
        <ele>289.01</ele>
        <time>2013-12-07T15:37:57Z</time>
      </trkpt>
      <trkpt lat="44.10667" lon="5.17378">
        <ele>285.65</ele>
        <time>2013-12-07T15:38:01Z</time>
      </trkpt>
      <trkpt lat="44.10635" lon="5.17336">
        <ele>284.21</ele>
        <time>2013-12-07T15:38:03Z</time>
      </trkpt>
      <trkpt lat="44.10622" lon="5.17313">
        <ele>283.25</ele>
        <time>2013-12-07T15:38:04Z</time>
      </trkpt>
      <trkpt lat="44.10611" lon="5.17289">
        <ele>281.8</ele>
        <time>2013-12-07T15:38:05Z</time>
      </trkpt>
      <trkpt lat="44.10601" lon="5.17263">
        <ele>281.8</ele>
        <time>2013-12-07T15:38:06Z</time>
      </trkpt>
      <trkpt lat="44.10593" lon="5.17235">
        <ele>280.36</ele>
        <time>2013-12-07T15:38:07Z</time>
      </trkpt>
      <trkpt lat="44.10587" lon="5.17205">
        <ele>279.4</ele>
        <time>2013-12-07T15:38:08Z</time>
      </trkpt>
      <trkpt lat="44.10581" lon="5.17174">
        <ele>278.92</ele>
        <time>2013-12-07T15:38:09Z</time>
      </trkpt>
      <trkpt lat="44.10563" lon="5.17049">
        <ele>275.56</ele>
        <time>2013-12-07T15:38:13Z</time>
      </trkpt>
      <trkpt lat="44.10564" lon="5.17017">
        <ele>275.07</ele>
        <time>2013-12-07T15:38:14Z</time>
      </trkpt>
      <trkpt lat="44.10566" lon="5.16985">
        <ele>275.07</ele>
        <time>2013-12-07T15:38:15Z</time>
      </trkpt>
      <trkpt lat="44.10584" lon="5.16743">
        <ele>271.71</ele>
        <time>2013-12-07T15:38:22Z</time>
      </trkpt>
      <trkpt lat="44.10587" lon="5.16565">
        <ele>269.79</ele>
        <time>2013-12-07T15:38:27Z</time>
      </trkpt>
      <trkpt lat="44.10572" lon="5.1639">
        <ele>266.42</ele>
        <time>2013-12-07T15:38:32Z</time>
      </trkpt>
      <trkpt lat="44.1055" lon="5.16253">
        <ele>263.06</ele>
        <time>2013-12-07T15:38:36Z</time>
      </trkpt>
      <trkpt lat="44.10528" lon="5.16117">
        <ele>258.73</ele>
        <time>2013-12-07T15:38:40Z</time>
      </trkpt>
      <trkpt lat="44.10506" lon="5.16015">
        <ele>255.37</ele>
        <time>2013-12-07T15:38:43Z</time>
      </trkpt>
      <trkpt lat="44.10496" lon="5.15982">
        <ele>253.44</ele>
        <time>2013-12-07T15:38:44Z</time>
      </trkpt>
      <trkpt lat="44.10484" lon="5.15951">
        <ele>252.96</ele>
        <time>2013-12-07T15:38:45Z</time>
      </trkpt>
      <trkpt lat="44.10455" lon="5.15892">
        <ele>252</ele>
        <time>2013-12-07T15:38:47Z</time>
      </trkpt>
      <trkpt lat="44.10413" lon="5.15805">
        <ele>252</ele>
        <time>2013-12-07T15:38:50Z</time>
      </trkpt>
      <trkpt lat="44.10404" lon="5.15775">
        <ele>251.04</ele>
        <time>2013-12-07T15:38:51Z</time>
      </trkpt>
      <trkpt lat="44.10399" lon="5.15744">
        <ele>250.56</ele>
        <time>2013-12-07T15:38:52Z</time>
      </trkpt>
      <trkpt lat="44.10397" lon="5.15713">
        <ele>250.56</ele>
        <time>2013-12-07T15:38:53Z</time>
      </trkpt>
      <trkpt lat="44.10397" lon="5.15683">
        <ele>250.08</ele>
        <time>2013-12-07T15:38:54Z</time>
      </trkpt>
      <trkpt lat="44.10383" lon="5.15541">
        <ele>248.16</ele>
        <time>2013-12-07T15:38:59Z</time>
      </trkpt>
      <trkpt lat="44.10377" lon="5.15517">
        <ele>247.68</ele>
        <time>2013-12-07T15:39:00Z</time>
      </trkpt>
      <trkpt lat="44.10365" lon="5.15469">
        <ele>246.23</ele>
        <time>2013-12-07T15:39:02Z</time>
      </trkpt>
      <trkpt lat="44.10361" lon="5.15443">
        <ele>245.75</ele>
        <time>2013-12-07T15:39:03Z</time>
      </trkpt>
      <trkpt lat="44.10359" lon="5.15418">
        <ele>245.27</ele>
        <time>2013-12-07T15:39:04Z</time>
      </trkpt>
      <trkpt lat="44.1036" lon="5.15391">
        <ele>245.75</ele>
        <time>2013-12-07T15:39:05Z</time>
      </trkpt>
      <trkpt lat="44.10362" lon="5.15363">
        <ele>244.79</ele>
        <time>2013-12-07T15:39:06Z</time>
      </trkpt>
      <trkpt lat="44.10365" lon="5.15334">
        <ele>244.31</ele>
        <time>2013-12-07T15:39:07Z</time>
      </trkpt>
      <trkpt lat="44.10378" lon="5.15194">
        <ele>243.35</ele>
        <time>2013-12-07T15:39:12Z</time>
      </trkpt>
      <trkpt lat="44.10376" lon="5.15165">
        <ele>242.87</ele>
        <time>2013-12-07T15:39:13Z</time>
      </trkpt>
      <trkpt lat="44.10351" lon="5.14875">
        <ele>240.47</ele>
        <time>2013-12-07T15:39:23Z</time>
      </trkpt>
      <trkpt lat="44.10353" lon="5.14847">
        <ele>239.51</ele>
        <time>2013-12-07T15:39:24Z</time>
      </trkpt>
      <trkpt lat="44.10358" lon="5.14819">
        <ele>239.02</ele>
        <time>2013-12-07T15:39:25Z</time>
      </trkpt>
      <trkpt lat="44.10367" lon="5.14793">
        <ele>238.06</ele>
        <time>2013-12-07T15:39:26Z</time>
      </trkpt>
      <trkpt lat="44.10377" lon="5.14768">
        <ele>237.58</ele>
        <time>2013-12-07T15:39:27Z</time>
      </trkpt>
      <trkpt lat="44.10405" lon="5.14703">
        <ele>234.22</ele>
        <time>2013-12-07T15:39:30Z</time>
      </trkpt>
      <trkpt lat="44.1041" lon="5.14683">
        <ele>233.74</ele>
        <time>2013-12-07T15:39:31Z</time>
      </trkpt>
      <trkpt lat="44.10411" lon="5.14663">
        <ele>233.26</ele>
        <time>2013-12-07T15:39:32Z</time>
      </trkpt>
      <trkpt lat="44.10411" lon="5.14644">
        <ele>233.26</ele>
        <time>2013-12-07T15:39:33Z</time>
      </trkpt>
      <trkpt lat="44.10407" lon="5.14627">
        <ele>232.3</ele>
        <time>2013-12-07T15:39:34Z</time>
      </trkpt>
      <trkpt lat="44.10401" lon="5.14613">
        <ele>231.81</ele>
        <time>2013-12-07T15:39:35Z</time>
      </trkpt>
      <trkpt lat="44.10391" lon="5.14601">
        <ele>231.33</ele>
        <time>2013-12-07T15:39:36Z</time>
      </trkpt>
      <trkpt lat="44.10379" lon="5.14593">
        <ele>230.85</ele>
        <time>2013-12-07T15:39:37Z</time>
      </trkpt>
      <trkpt lat="44.10367" lon="5.14588">
        <ele>230.85</ele>
        <time>2013-12-07T15:39:38Z</time>
      </trkpt>
      <trkpt lat="44.10353" lon="5.14584">
        <ele>230.37</ele>
        <time>2013-12-07T15:39:39Z</time>
      </trkpt>
      <trkpt lat="44.10339" lon="5.14582">
        <ele>230.85</ele>
        <time>2013-12-07T15:39:40Z</time>
      </trkpt>
      <trkpt lat="44.10324" lon="5.1458">
        <ele>230.85</ele>
        <time>2013-12-07T15:39:41Z</time>
      </trkpt>
      <trkpt lat="44.10232" lon="5.14575">
        <ele>228.93</ele>
        <time>2013-12-07T15:39:47Z</time>
      </trkpt>
      <trkpt lat="44.10218" lon="5.14567">
        <ele>227.97</ele>
        <time>2013-12-07T15:39:48Z</time>
      </trkpt>
      <trkpt lat="44.10204" lon="5.14557">
        <ele>227.49</ele>
        <time>2013-12-07T15:39:49Z</time>
      </trkpt>
      <trkpt lat="44.10119" lon="5.14477">
        <ele>224.61</ele>
        <time>2013-12-07T15:39:55Z</time>
      </trkpt>
      <trkpt lat="44.10106" lon="5.14462">
        <ele>224.12</ele>
        <time>2013-12-07T15:39:56Z</time>
      </trkpt>
      <trkpt lat="44.10095" lon="5.14445">
        <ele>224.12</ele>
        <time>2013-12-07T15:39:57Z</time>
      </trkpt>
      <trkpt lat="44.10084" lon="5.14427">
        <ele>223.16</ele>
        <time>2013-12-07T15:39:58Z</time>
      </trkpt>
      <trkpt lat="44.10075" lon="5.14408">
        <ele>222.68</ele>
        <time>2013-12-07T15:39:59Z</time>
      </trkpt>
      <trkpt lat="44.10046" lon="5.14352">
        <ele>221.72</ele>
        <time>2013-12-07T15:40:02Z</time>
      </trkpt>
      <trkpt lat="44.10034" lon="5.14336">
        <ele>221.24</ele>
        <time>2013-12-07T15:40:03Z</time>
      </trkpt>
      <trkpt lat="44.1002" lon="5.14322">
        <ele>221.24</ele>
        <time>2013-12-07T15:40:04Z</time>
      </trkpt>
      <trkpt lat="44.09937" lon="5.1426">
        <ele>217.88</ele>
        <time>2013-12-07T15:40:09Z</time>
      </trkpt>
      <trkpt lat="44.09918" lon="5.14251">
        <ele>217.4</ele>
        <time>2013-12-07T15:40:10Z</time>
      </trkpt>
      <trkpt lat="44.09898" lon="5.14244">
        <ele>217.4</ele>
        <time>2013-12-07T15:40:11Z</time>
      </trkpt>
      <trkpt lat="44.09878" lon="5.14239">
        <ele>216.91</ele>
        <time>2013-12-07T15:40:12Z</time>
      </trkpt>
      <trkpt lat="44.09774" lon="5.14226">
        <ele>214.03</ele>
        <time>2013-12-07T15:40:17Z</time>
      </trkpt>
      <trkpt lat="44.09715" lon="5.14215">
        <ele>211.63</ele>
        <time>2013-12-07T15:40:20Z</time>
      </trkpt>
      <trkpt lat="44.09697" lon="5.14206">
        <ele>211.15</ele>
        <time>2013-12-07T15:40:21Z</time>
      </trkpt>
      <trkpt lat="44.09636" lon="5.14165">
        <ele>209.7</ele>
        <time>2013-12-07T15:40:25Z</time>
      </trkpt>
      <trkpt lat="44.09624" lon="5.14151">
        <ele>209.22</ele>
        <time>2013-12-07T15:40:26Z</time>
      </trkpt>
      <trkpt lat="44.09613" lon="5.14135">
        <ele>209.22</ele>
        <time>2013-12-07T15:40:27Z</time>
      </trkpt>
      <trkpt lat="44.09603" lon="5.14117">
        <ele>209.22</ele>
        <time>2013-12-07T15:40:28Z</time>
      </trkpt>
      <trkpt lat="44.09594" lon="5.14098">
        <ele>208.74</ele>
        <time>2013-12-07T15:40:29Z</time>
      </trkpt>
      <trkpt lat="44.09514" lon="5.13911">
        <ele>207.78</ele>
        <time>2013-12-07T15:40:37Z</time>
      </trkpt>
      <trkpt lat="44.09423" lon="5.13688">
        <ele>204.9</ele>
        <time>2013-12-07T15:40:46Z</time>
      </trkpt>
      <trkpt lat="44.09416" lon="5.1366">
        <ele>203.94</ele>
        <time>2013-12-07T15:40:47Z</time>
      </trkpt>
      <trkpt lat="44.09378" lon="5.13457">
        <ele>201.53</ele>
        <time>2013-12-07T15:40:54Z</time>
      </trkpt>
      <trkpt lat="44.09305" lon="5.13244">
        <ele>199.13</ele>
        <time>2013-12-07T15:41:02Z</time>
      </trkpt>
      <trkpt lat="44.09266" lon="5.13084">
        <ele>197.21</ele>
        <time>2013-12-07T15:41:08Z</time>
      </trkpt>
      <trkpt lat="44.09255" lon="5.13062">
        <ele>196.73</ele>
        <time>2013-12-07T15:41:09Z</time>
      </trkpt>
      <trkpt lat="44.09243" lon="5.13042">
        <ele>196.25</ele>
        <time>2013-12-07T15:41:10Z</time>
      </trkpt>
      <trkpt lat="44.09108" lon="5.12826">
        <ele>195.77</ele>
        <time>2013-12-07T15:41:20Z</time>
      </trkpt>
      <trkpt lat="44.09005" lon="5.12686">
        <ele>193.36</ele>
        <time>2013-12-07T15:41:27Z</time>
      </trkpt>
      <trkpt lat="44.08909" lon="5.12582">
        <ele>190</ele>
        <time>2013-12-07T15:41:33Z</time>
      </trkpt>
      <trkpt lat="44.08864" lon="5.12534">
        <ele>188.56</ele>
        <time>2013-12-07T15:41:36Z</time>
      </trkpt>
      <trkpt lat="44.08852" lon="5.12514">
        <ele>187.59</ele>
        <time>2013-12-07T15:41:37Z</time>
      </trkpt>
      <trkpt lat="44.0884" lon="5.12493">
        <ele>187.59</ele>
        <time>2013-12-07T15:41:38Z</time>
      </trkpt>
      <trkpt lat="44.08786" lon="5.1238">
        <ele>184.23</ele>
        <time>2013-12-07T15:41:43Z</time>
      </trkpt>
      <trkpt lat="44.08774" lon="5.12357">
        <ele>183.75</ele>
        <time>2013-12-07T15:41:44Z</time>
      </trkpt>
      <trkpt lat="44.087" lon="5.12239">
        <ele>180.38</ele>
        <time>2013-12-07T15:41:50Z</time>
      </trkpt>
      <trkpt lat="44.08558" lon="5.11997">
        <ele>177.5</ele>
        <time>2013-12-07T15:42:02Z</time>
      </trkpt>
      <trkpt lat="44.08483" lon="5.11781">
        <ele>173.66</ele>
        <time>2013-12-07T15:42:11Z</time>
      </trkpt>
      <trkpt lat="44.08452" lon="5.11657">
        <ele>171.73</ele>
        <time>2013-12-07T15:42:16Z</time>
      </trkpt>
      <trkpt lat="44.08396" lon="5.1143">
        <ele>168.37</ele>
        <time>2013-12-07T15:42:25Z</time>
      </trkpt>
      <trkpt lat="44.0832" lon="5.11125">
        <ele>165.48</ele>
        <time>2013-12-07T15:42:36Z</time>
      </trkpt>
      <trkpt lat="44.0829" lon="5.11013">
        <ele>163.08</ele>
        <time>2013-12-07T15:42:40Z</time>
      </trkpt>
      <trkpt lat="44.08281" lon="5.10986">
        <ele>162.12</ele>
        <time>2013-12-07T15:42:41Z</time>
      </trkpt>
      <trkpt lat="44.0827" lon="5.10962">
        <ele>161.64</ele>
        <time>2013-12-07T15:42:42Z</time>
      </trkpt>
      <trkpt lat="44.08259" lon="5.1094">
        <ele>160.68</ele>
        <time>2013-12-07T15:42:43Z</time>
      </trkpt>
      <trkpt lat="44.08179" lon="5.10814">
        <ele>157.79</ele>
        <time>2013-12-07T15:42:49Z</time>
      </trkpt>
      <trkpt lat="44.08068" lon="5.10597">
        <ele>155.87</ele>
        <time>2013-12-07T15:42:59Z</time>
      </trkpt>
      <trkpt lat="44.07973" lon="5.10348">
        <ele>153.47</ele>
        <time>2013-12-07T15:43:09Z</time>
      </trkpt>
      <trkpt lat="44.07901" lon="5.10121">
        <ele>150.58</ele>
        <time>2013-12-07T15:43:18Z</time>
      </trkpt>
      <trkpt lat="44.07806" lon="5.09887">
        <ele>147.22</ele>
        <time>2013-12-07T15:43:28Z</time>
      </trkpt>
      <trkpt lat="44.07746" lon="5.09609">
        <ele>144.34</ele>
        <time>2013-12-07T15:43:39Z</time>
      </trkpt>
      <trkpt lat="44.07671" lon="5.09411">
        <ele>141.93</ele>
        <time>2013-12-07T15:43:48Z</time>
      </trkpt>
      <trkpt lat="44.07589" lon="5.09205">
        <ele>139.53</ele>
        <time>2013-12-07T15:43:58Z</time>
      </trkpt>
      <trkpt lat="44.07528" lon="5.09017">
        <ele>137.13</ele>
        <time>2013-12-07T15:44:06Z</time>
      </trkpt>
      <trkpt lat="44.07454" lon="5.08825">
        <ele>134.72</ele>
        <time>2013-12-07T15:44:15Z</time>
      </trkpt>
      <trkpt lat="44.07444" lon="5.08807">
        <ele>134.24</ele>
        <time>2013-12-07T15:44:16Z</time>
      </trkpt>
      <trkpt lat="44.07433" lon="5.0879">
        <ele>134.24</ele>
        <time>2013-12-07T15:44:17Z</time>
      </trkpt>
      <trkpt lat="44.0742" lon="5.08777">
        <ele>134.24</ele>
        <time>2013-12-07T15:44:18Z</time>
      </trkpt>
      <trkpt lat="44.07272" lon="5.08643">
        <ele>132.32</ele>
        <time>2013-12-07T15:44:28Z</time>
      </trkpt>
      <trkpt lat="44.07146" lon="5.08462">
        <ele>134.24</ele>
        <time>2013-12-07T15:44:38Z</time>
      </trkpt>
      <trkpt lat="44.07086" lon="5.08365">
        <ele>133.28</ele>
        <time>2013-12-07T15:44:43Z</time>
      </trkpt>
      <trkpt lat="44.07076" lon="5.08344">
        <ele>132.8</ele>
        <time>2013-12-07T15:44:44Z</time>
      </trkpt>
      <trkpt lat="44.07069" lon="5.08321">
        <ele>133.28</ele>
        <time>2013-12-07T15:44:45Z</time>
      </trkpt>
      <trkpt lat="44.07062" lon="5.08298">
        <ele>132.8</ele>
        <time>2013-12-07T15:44:46Z</time>
      </trkpt>
      <trkpt lat="44.07057" lon="5.08275">
        <ele>132.8</ele>
        <time>2013-12-07T15:44:47Z</time>
      </trkpt>
      <trkpt lat="44.07054" lon="5.0825">
        <ele>132.32</ele>
        <time>2013-12-07T15:44:48Z</time>
      </trkpt>
      <trkpt lat="44.07052" lon="5.08225">
        <ele>132.8</ele>
        <time>2013-12-07T15:44:49Z</time>
      </trkpt>
      <trkpt lat="44.07044" lon="5.08099">
        <ele>130.88</ele>
        <time>2013-12-07T15:44:54Z</time>
      </trkpt>
      <trkpt lat="44.07039" lon="5.08077">
        <ele>130.4</ele>
        <time>2013-12-07T15:44:55Z</time>
      </trkpt>
      <trkpt lat="44.06984" lon="5.0788">
        <ele>128.95</ele>
        <time>2013-12-07T15:45:04Z</time>
      </trkpt>
      <trkpt lat="44.06933" lon="5.07632">
        <ele>127.51</ele>
        <time>2013-12-07T15:45:15Z</time>
      </trkpt>
      <trkpt lat="44.06918" lon="5.07565">
        <ele>127.03</ele>
        <time>2013-12-07T15:45:18Z</time>
      </trkpt>
      <trkpt lat="44.0685" lon="5.07225">
        <ele>125.59</ele>
        <time>2013-12-07T15:45:34Z</time>
      </trkpt>
      <trkpt lat="44.06767" lon="5.07037">
        <ele>123.67</ele>
        <time>2013-12-07T15:45:44Z</time>
      </trkpt>
      <trkpt lat="44.06752" lon="5.06999">
        <ele>122.71</ele>
        <time>2013-12-07T15:45:46Z</time>
      </trkpt>
      <trkpt lat="44.06706" lon="5.06886">
        <ele>118.86</ele>
        <time>2013-12-07T15:45:52Z</time>
      </trkpt>
      <trkpt lat="44.06689" lon="5.06829">
        <ele>116.94</ele>
        <time>2013-12-07T15:45:55Z</time>
      </trkpt>
      <trkpt lat="44.06688" lon="5.06816">
        <ele>115.5</ele>
        <time>2013-12-07T15:45:56Z</time>
      </trkpt>
      <trkpt lat="44.06689" lon="5.06804">
        <ele>115.5</ele>
        <time>2013-12-07T15:45:57Z</time>
      </trkpt>
      <trkpt lat="44.06691" lon="5.06795">
        <ele>115.01</ele>
        <time>2013-12-07T15:45:58Z</time>
      </trkpt>
      <trkpt lat="44.06695" lon="5.06786">
        <ele>115.01</ele>
        <time>2013-12-07T15:45:59Z</time>
      </trkpt>
      <trkpt lat="44.06699" lon="5.06779">
        <ele>115.01</ele>
        <time>2013-12-07T15:46:00Z</time>
      </trkpt>
      <trkpt lat="44.06705" lon="5.06772">
        <ele>115.01</ele>
        <time>2013-12-07T15:46:01Z</time>
      </trkpt>
      <trkpt lat="44.06711" lon="5.06766">
        <ele>115.98</ele>
        <time>2013-12-07T15:46:02Z</time>
      </trkpt>
      <trkpt lat="44.06718" lon="5.06763">
        <ele>116.46</ele>
        <time>2013-12-07T15:46:03Z</time>
      </trkpt>
      <trkpt lat="44.06724" lon="5.06763">
        <ele>116.46</ele>
        <time>2013-12-07T15:46:04Z</time>
      </trkpt>
      <trkpt lat="44.06731" lon="5.06766">
        <ele>117.42</ele>
        <time>2013-12-07T15:46:05Z</time>
      </trkpt>
      <trkpt lat="44.06742" lon="5.06776">
        <ele>117.9</ele>
        <time>2013-12-07T15:46:06Z</time>
      </trkpt>
      <trkpt lat="44.06757" lon="5.068">
        <ele>118.38</ele>
        <time>2013-12-07T15:46:07Z</time>
      </trkpt>
      <trkpt lat="44.06768" lon="5.06814">
        <ele>118.86</ele>
        <time>2013-12-07T15:46:08Z</time>
      </trkpt>
      <trkpt lat="44.06788" lon="5.06838">
        <ele>119.82</ele>
        <time>2013-12-07T15:46:10Z</time>
      </trkpt>
      <trkpt lat="44.06879" lon="5.06958">
        <ele>121.26</ele>
        <time>2013-12-07T15:46:21Z</time>
      </trkpt>
      <trkpt lat="44.06906" lon="5.06995">
        <ele>121.26</ele>
        <time>2013-12-07T15:46:26Z</time>
      </trkpt>
      <trkpt lat="44.0691" lon="5.06998">
        <ele>121.26</ele>
        <time>2013-12-07T15:46:27Z</time>
      </trkpt>
      <trkpt lat="44.06915" lon="5.06999">
        <ele>121.26</ele>
        <time>2013-12-07T15:46:28Z</time>
      </trkpt>
      <trkpt lat="44.0692" lon="5.06999">
        <ele>121.74</ele>
        <time>2013-12-07T15:46:29Z</time>
      </trkpt>
      <trkpt lat="44.06926" lon="5.07">
        <ele>121.74</ele>
        <time>2013-12-07T15:46:30Z</time>
      </trkpt>
      <trkpt lat="44.07003" lon="5.07006">
        <ele>121.74</ele>
        <time>2013-12-07T15:46:39Z</time>
      </trkpt>
      <trkpt lat="44.07111" lon="5.07003">
        <ele>121.74</ele>
        <time>2013-12-07T15:46:50Z</time>
      </trkpt>
      <trkpt lat="44.07157" lon="5.07007">
        <ele>121.26</ele>
        <time>2013-12-07T15:46:55Z</time>
      </trkpt>
      <trkpt lat="44.0722" lon="5.07016">
        <ele>120.3</ele>
        <time>2013-12-07T15:47:05Z</time>
      </trkpt>
      <trkpt lat="44.07226" lon="5.07016">
        <ele>121.26</ele>
        <time>2013-12-07T15:47:17Z</time>
      </trkpt>
      <trkpt lat="44.07226" lon="5.07016">
        <ele>120.78</ele>
        <time>2013-12-07T15:47:44Z</time>
      </trkpt>
      <trkpt lat="44.07225" lon="5.07014">
        <ele>120.3</ele>
        <time>2013-12-07T15:48:12Z</time>
      </trkpt>
      <trkpt lat="44.07222" lon="5.07014">
        <ele>120.78</ele>
        <time>2013-12-07T15:48:19Z</time>
      </trkpt>
      <trkpt lat="44.0722" lon="5.07013">
        <ele>120.3</ele>
        <time>2013-12-07T15:48:20Z</time>
      </trkpt>
      <trkpt lat="44.07218" lon="5.07012">
        <ele>120.3</ele>
        <time>2013-12-07T15:48:21Z</time>
      </trkpt>
      <trkpt lat="44.07215" lon="5.07011">
        <ele>120.78</ele>
        <time>2013-12-07T15:48:22Z</time>
      </trkpt>
      <trkpt lat="44.07212" lon="5.0701">
        <ele>120.78</ele>
        <time>2013-12-07T15:48:23Z</time>
      </trkpt>
      <trkpt lat="44.07208" lon="5.07009">
        <ele>120.3</ele>
        <time>2013-12-07T15:48:24Z</time>
      </trkpt>
      <trkpt lat="44.07204" lon="5.07008">
        <ele>120.78</ele>
        <time>2013-12-07T15:48:25Z</time>
      </trkpt>
      <trkpt lat="44.07193" lon="5.07006">
        <ele>120.78</ele>
        <time>2013-12-07T15:48:27Z</time>
      </trkpt>
      <trkpt lat="44.07153" lon="5.07001">
        <ele>120.78</ele>
        <time>2013-12-07T15:48:33Z</time>
      </trkpt>
      <trkpt lat="44.07145" lon="5.07001">
        <ele>120.78</ele>
        <time>2013-12-07T15:48:34Z</time>
      </trkpt>
      <trkpt lat="44.07138" lon="5.07001">
        <ele>120.78</ele>
        <time>2013-12-07T15:48:35Z</time>
      </trkpt>
      <trkpt lat="44.07065" lon="5.07004">
        <ele>121.74</ele>
        <time>2013-12-07T15:48:43Z</time>
      </trkpt>
      <trkpt lat="44.0693" lon="5.06997">
        <ele>121.26</ele>
        <time>2013-12-07T15:48:56Z</time>
      </trkpt>
      <trkpt lat="44.06905" lon="5.06994">
        <ele>121.26</ele>
        <time>2013-12-07T15:49:02Z</time>
      </trkpt>
      <trkpt lat="44.06903" lon="5.06992">
        <ele>121.26</ele>
        <time>2013-12-07T15:49:03Z</time>
      </trkpt>
      <trkpt lat="44.06901" lon="5.06989">
        <ele>120.78</ele>
        <time>2013-12-07T15:49:04Z</time>
      </trkpt>
      <trkpt lat="44.06898" lon="5.06984">
        <ele>120.78</ele>
        <time>2013-12-07T15:49:05Z</time>
      </trkpt>
      <trkpt lat="44.06895" lon="5.06977">
        <ele>120.78</ele>
        <time>2013-12-07T15:49:06Z</time>
      </trkpt>
      <trkpt lat="44.06843" lon="5.06906">
        <ele>121.26</ele>
        <time>2013-12-07T15:49:13Z</time>
      </trkpt>
      <trkpt lat="44.06762" lon="5.06805">
        <ele>117.9</ele>
        <time>2013-12-07T15:49:21Z</time>
      </trkpt>
      <trkpt lat="44.06729" lon="5.06771">
        <ele>115.5</ele>
        <time>2013-12-07T15:49:25Z</time>
      </trkpt>
      <trkpt lat="44.06724" lon="5.06763">
        <ele>115.01</ele>
        <time>2013-12-07T15:49:26Z</time>
      </trkpt>
      <trkpt lat="44.06719" lon="5.06754">
        <ele>115.01</ele>
        <time>2013-12-07T15:49:27Z</time>
      </trkpt>
      <trkpt lat="44.06714" lon="5.06744">
        <ele>115.01</ele>
        <time>2013-12-07T15:49:28Z</time>
      </trkpt>
      <trkpt lat="44.06709" lon="5.06735">
        <ele>114.05</ele>
        <time>2013-12-07T15:49:29Z</time>
      </trkpt>
      <trkpt lat="44.06702" lon="5.06729">
        <ele>113.57</ele>
        <time>2013-12-07T15:49:30Z</time>
      </trkpt>
      <trkpt lat="44.06694" lon="5.06725">
        <ele>113.57</ele>
        <time>2013-12-07T15:49:31Z</time>
      </trkpt>
      <trkpt lat="44.06685" lon="5.06724">
        <ele>113.09</ele>
        <time>2013-12-07T15:49:32Z</time>
      </trkpt>
      <trkpt lat="44.06675" lon="5.06725">
        <ele>113.57</ele>
        <time>2013-12-07T15:49:33Z</time>
      </trkpt>
      <trkpt lat="44.06665" lon="5.06724">
        <ele>113.09</ele>
        <time>2013-12-07T15:49:34Z</time>
      </trkpt>
      <trkpt lat="44.06657" lon="5.0672">
        <ele>113.09</ele>
        <time>2013-12-07T15:49:35Z</time>
      </trkpt>
      <trkpt lat="44.06648" lon="5.06713">
        <ele>113.09</ele>
        <time>2013-12-07T15:49:36Z</time>
      </trkpt>
      <trkpt lat="44.06641" lon="5.06703">
        <ele>113.09</ele>
        <time>2013-12-07T15:49:37Z</time>
      </trkpt>
      <trkpt lat="44.06633" lon="5.06691">
        <ele>112.61</ele>
        <time>2013-12-07T15:49:38Z</time>
      </trkpt>
      <trkpt lat="44.06626" lon="5.06677">
        <ele>111.65</ele>
        <time>2013-12-07T15:49:39Z</time>
      </trkpt>
      <trkpt lat="44.06618" lon="5.06661">
        <ele>111.17</ele>
        <time>2013-12-07T15:49:40Z</time>
      </trkpt>
      <trkpt lat="44.06611" lon="5.06643">
        <ele>109.25</ele>
        <time>2013-12-07T15:49:41Z</time>
      </trkpt>
      <trkpt lat="44.06576" lon="5.0657">
        <ele>105.88</ele>
        <time>2013-12-07T15:49:45Z</time>
      </trkpt>
      <trkpt lat="44.06492" lon="5.06417">
        <ele>102.52</ele>
        <time>2013-12-07T15:49:53Z</time>
      </trkpt>
      <trkpt lat="44.06461" lon="5.06359">
        <ele>101.08</ele>
        <time>2013-12-07T15:49:56Z</time>
      </trkpt>
      <trkpt lat="44.06373" lon="5.06162">
        <ele>98.19</ele>
        <time>2013-12-07T15:50:06Z</time>
      </trkpt>
      <trkpt lat="44.06325" lon="5.0605">
        <ele>97.71</ele>
        <time>2013-12-07T15:50:12Z</time>
      </trkpt>
      <trkpt lat="44.06314" lon="5.06034">
        <ele>97.71</ele>
        <time>2013-12-07T15:50:13Z</time>
      </trkpt>
      <trkpt lat="44.06303" lon="5.0602">
        <ele>97.23</ele>
        <time>2013-12-07T15:50:14Z</time>
      </trkpt>
      <trkpt lat="44.06205" lon="5.05915">
        <ele>96.27</ele>
        <time>2013-12-07T15:50:22Z</time>
      </trkpt>
      <trkpt lat="44.06131" lon="5.05851">
        <ele>94.35</ele>
        <time>2013-12-07T15:50:28Z</time>
      </trkpt>
      <trkpt lat="44.06118" lon="5.05845">
        <ele>93.87</ele>
        <time>2013-12-07T15:50:29Z</time>
      </trkpt>
      <trkpt lat="44.06043" lon="5.05833">
        <ele>93.39</ele>
        <time>2013-12-07T15:50:35Z</time>
      </trkpt>
      <trkpt lat="44.06031" lon="5.05836">
        <ele>93.39</ele>
        <time>2013-12-07T15:50:36Z</time>
      </trkpt>
      <trkpt lat="44.06019" lon="5.05843">
        <ele>92.9</ele>
        <time>2013-12-07T15:50:37Z</time>
      </trkpt>
      <trkpt lat="44.05923" lon="5.05913">
        <ele>93.39</ele>
        <time>2013-12-07T15:50:46Z</time>
      </trkpt>
      <trkpt lat="44.05911" lon="5.05918">
        <ele>93.39</ele>
        <time>2013-12-07T15:50:47Z</time>
      </trkpt>
      <trkpt lat="44.059" lon="5.05922">
        <ele>93.39</ele>
        <time>2013-12-07T15:50:48Z</time>
      </trkpt>
      <trkpt lat="44.05888" lon="5.05922">
        <ele>93.39</ele>
        <time>2013-12-07T15:50:49Z</time>
      </trkpt>
      <trkpt lat="44.05876" lon="5.05921">
        <ele>93.39</ele>
        <time>2013-12-07T15:50:50Z</time>
      </trkpt>
      <trkpt lat="44.05865" lon="5.05918">
        <ele>93.39</ele>
        <time>2013-12-07T15:50:51Z</time>
      </trkpt>
      <trkpt lat="44.05853" lon="5.05913">
        <ele>93.87</ele>
        <time>2013-12-07T15:50:52Z</time>
      </trkpt>
      <trkpt lat="44.05841" lon="5.05908">
        <ele>93.87</ele>
        <time>2013-12-07T15:50:53Z</time>
      </trkpt>
      <trkpt lat="44.0583" lon="5.05902">
        <ele>94.35</ele>
        <time>2013-12-07T15:50:54Z</time>
      </trkpt>
      <trkpt lat="44.05771" lon="5.05873">
        <ele>95.31</ele>
        <time>2013-12-07T15:51:01Z</time>
      </trkpt>
      <trkpt lat="44.05668" lon="5.05825">
        <ele>97.23</ele>
        <time>2013-12-07T15:51:14Z</time>
      </trkpt>
      <trkpt lat="44.05655" lon="5.05822">
        <ele>97.71</ele>
        <time>2013-12-07T15:51:18Z</time>
      </trkpt>
      <trkpt lat="44.05651" lon="5.05823">
        <ele>98.19</ele>
        <time>2013-12-07T15:51:19Z</time>
      </trkpt>
      <trkpt lat="44.05647" lon="5.05826">
        <ele>98.19</ele>
        <time>2013-12-07T15:51:20Z</time>
      </trkpt>
      <trkpt lat="44.05643" lon="5.05833">
        <ele>98.19</ele>
        <time>2013-12-07T15:51:21Z</time>
      </trkpt>
      <trkpt lat="44.05642" lon="5.0584">
        <ele>98.19</ele>
        <time>2013-12-07T15:51:22Z</time>
      </trkpt>
      <trkpt lat="44.0564" lon="5.05848">
        <ele>98.19</ele>
        <time>2013-12-07T15:51:23Z</time>
      </trkpt>
      <trkpt lat="44.0564" lon="5.05855">
        <ele>98.19</ele>
        <time>2013-12-07T15:51:24Z</time>
      </trkpt>
      <trkpt lat="44.05632" lon="5.0588">
        <ele>96.75</ele>
        <time>2013-12-07T15:51:30Z</time>
      </trkpt>
      <trkpt lat="44.05629" lon="5.05881">
        <ele>97.23</ele>
        <time>2013-12-07T15:51:31Z</time>
      </trkpt>
      <trkpt lat="44.05625" lon="5.05882">
        <ele>97.71</ele>
        <time>2013-12-07T15:51:32Z</time>
      </trkpt>
      <trkpt lat="44.0562" lon="5.05883">
        <ele>98.19</ele>
        <time>2013-12-07T15:51:33Z</time>
      </trkpt>
      <trkpt lat="44.05614" lon="5.05884">
        <ele>98.67</ele>
        <time>2013-12-07T15:51:34Z</time>
      </trkpt>
      <trkpt lat="44.05608" lon="5.05885">
        <ele>99.15</ele>
        <time>2013-12-07T15:51:35Z</time>
      </trkpt>
      <trkpt lat="44.05552" lon="5.05887">
        <ele>99.63</ele>
        <time>2013-12-07T15:51:44Z</time>
      </trkpt>
      <trkpt lat="44.05512" lon="5.05894">
        <ele>99.15</ele>
        <time>2013-12-07T15:51:49Z</time>
      </trkpt>
      <trkpt lat="44.05506" lon="5.05896">
        <ele>98.67</ele>
        <time>2013-12-07T15:51:50Z</time>
      </trkpt>
      <trkpt lat="44.05484" lon="5.05902">
        <ele>98.19</ele>
        <time>2013-12-07T15:51:54Z</time>
      </trkpt>
      <trkpt lat="44.054" lon="5.0592">
        <ele>96.75</ele>
        <time>2013-12-07T15:52:04Z</time>
      </trkpt>
      <trkpt lat="44.05392" lon="5.05926">
        <ele>97.23</ele>
        <time>2013-12-07T15:52:05Z</time>
      </trkpt>
      <trkpt lat="44.05332" lon="5.05987">
        <ele>95.31</ele>
        <time>2013-12-07T15:52:15Z</time>
      </trkpt>
      <trkpt lat="44.05329" lon="5.05989">
        <ele>95.31</ele>
        <time>2013-12-07T15:52:16Z</time>
      </trkpt>
      <trkpt lat="44.05324" lon="5.0599">
        <ele>95.31</ele>
        <time>2013-12-07T15:52:17Z</time>
      </trkpt>
      <trkpt lat="44.0532" lon="5.05986">
        <ele>95.31</ele>
        <time>2013-12-07T15:52:18Z</time>
      </trkpt>
      <trkpt lat="44.05315" lon="5.05982">
        <ele>94.83</ele>
        <time>2013-12-07T15:52:19Z</time>
      </trkpt>
      <trkpt lat="44.05311" lon="5.05976">
        <ele>94.35</ele>
        <time>2013-12-07T15:52:20Z</time>
      </trkpt>
      <trkpt lat="44.05294" lon="5.05951">
        <ele>91.94</ele>
        <time>2013-12-07T15:52:25Z</time>
      </trkpt>
      <trkpt lat="44.0528" lon="5.05943">
        <ele>91.46</ele>
        <time>2013-12-07T15:52:33Z</time>
      </trkpt>
      <trkpt lat="44.05278" lon="5.05946">
        <ele>91.46</ele>
        <time>2013-12-07T15:52:34Z</time>
      </trkpt>
      <trkpt lat="44.05276" lon="5.05951">
        <ele>91.46</ele>
        <time>2013-12-07T15:52:35Z</time>
      </trkpt>
      <trkpt lat="44.05273" lon="5.05958">
        <ele>91.46</ele>
        <time>2013-12-07T15:52:36Z</time>
      </trkpt>
      <trkpt lat="44.0527" lon="5.05967">
        <ele>91.94</ele>
        <time>2013-12-07T15:52:37Z</time>
      </trkpt>
      <trkpt lat="44.05231" lon="5.06072">
        <ele>92.9</ele>
        <time>2013-12-07T15:52:45Z</time>
      </trkpt>
      <trkpt lat="44.05173" lon="5.06191">
        <ele>93.87</ele>
        <time>2013-12-07T15:52:55Z</time>
      </trkpt>
      <trkpt lat="44.05121" lon="5.06311">
        <ele>93.39</ele>
        <time>2013-12-07T15:53:07Z</time>
      </trkpt>
      <trkpt lat="44.05112" lon="5.06319">
        <ele>93.39</ele>
        <time>2013-12-07T15:53:11Z</time>
      </trkpt>
      <trkpt lat="44.05109" lon="5.06317">
        <ele>92.42</ele>
        <time>2013-12-07T15:53:12Z</time>
      </trkpt>
      <trkpt lat="44.05107" lon="5.06313">
        <ele>92.42</ele>
        <time>2013-12-07T15:53:13Z</time>
      </trkpt>
      <trkpt lat="44.05106" lon="5.06307">
        <ele>92.42</ele>
        <time>2013-12-07T15:53:14Z</time>
      </trkpt>
      <trkpt lat="44.05105" lon="5.06301">
        <ele>91.94</ele>
        <time>2013-12-07T15:53:15Z</time>
      </trkpt>
      <trkpt lat="44.05103" lon="5.06295">
        <ele>91.46</ele>
        <time>2013-12-07T15:53:16Z</time>
      </trkpt>
      <trkpt lat="44.05098" lon="5.06215">
        <ele>89.54</ele>
        <time>2013-12-07T15:53:27Z</time>
      </trkpt>
      <trkpt lat="44.05102" lon="5.06108">
        <ele>89.06</ele>
        <time>2013-12-07T15:53:37Z</time>
      </trkpt>
      <trkpt lat="44.05105" lon="5.05941">
        <ele>88.1</ele>
        <time>2013-12-07T15:53:50Z</time>
      </trkpt>
      <trkpt lat="44.05103" lon="5.05855">
        <ele>87.62</ele>
        <time>2013-12-07T15:53:58Z</time>
      </trkpt>
      <trkpt lat="44.05107" lon="5.0576">
        <ele>86.66</ele>
        <time>2013-12-07T15:54:08Z</time>
      </trkpt>
      <trkpt lat="44.05116" lon="5.0566">
        <ele>86.18</ele>
        <time>2013-12-07T15:54:16Z</time>
      </trkpt>
      <trkpt lat="44.05117" lon="5.05653">
        <ele>86.18</ele>
        <time>2013-12-07T15:54:17Z</time>
      </trkpt>
      <trkpt lat="44.0512" lon="5.0564">
        <ele>85.69</ele>
        <time>2013-12-07T15:54:19Z</time>
      </trkpt>
      <trkpt lat="44.0512" lon="5.05634">
        <ele>86.18</ele>
        <time>2013-12-07T15:54:20Z</time>
      </trkpt>
      <trkpt lat="44.05119" lon="5.05626">
        <ele>86.18</ele>
        <time>2013-12-07T15:54:21Z</time>
      </trkpt>
      <trkpt lat="44.05119" lon="5.05616">
        <ele>86.18</ele>
        <time>2013-12-07T15:54:22Z</time>
      </trkpt>
      <trkpt lat="44.0512" lon="5.05604">
        <ele>86.66</ele>
        <time>2013-12-07T15:54:23Z</time>
      </trkpt>
      <trkpt lat="44.05142" lon="5.05448">
        <ele>85.69</ele>
        <time>2013-12-07T15:54:34Z</time>
      </trkpt>
      <trkpt lat="44.05153" lon="5.05405">
        <ele>85.21</ele>
        <time>2013-12-07T15:54:39Z</time>
      </trkpt>
      <trkpt lat="44.05155" lon="5.05396">
        <ele>85.21</ele>
        <time>2013-12-07T15:54:40Z</time>
      </trkpt>
      <trkpt lat="44.05155" lon="5.05386">
        <ele>85.21</ele>
        <time>2013-12-07T15:54:41Z</time>
      </trkpt>
      <trkpt lat="44.05155" lon="5.05376">
        <ele>85.21</ele>
        <time>2013-12-07T15:54:42Z</time>
      </trkpt>
      <trkpt lat="44.05155" lon="5.05367">
        <ele>85.21</ele>
        <time>2013-12-07T15:54:43Z</time>
      </trkpt>
      <trkpt lat="44.05157" lon="5.05358">
        <ele>84.73</ele>
        <time>2013-12-07T15:54:44Z</time>
      </trkpt>
      <trkpt lat="44.0516" lon="5.05349">
        <ele>84.73</ele>
        <time>2013-12-07T15:54:45Z</time>
      </trkpt>
      <trkpt lat="44.05163" lon="5.0534">
        <ele>85.21</ele>
        <time>2013-12-07T15:54:46Z</time>
      </trkpt>
      <trkpt lat="44.05166" lon="5.05333">
        <ele>84.73</ele>
        <time>2013-12-07T15:54:47Z</time>
      </trkpt>
      <trkpt lat="44.05168" lon="5.05325">
        <ele>84.25</ele>
        <time>2013-12-07T15:54:48Z</time>
      </trkpt>
      <trkpt lat="44.05168" lon="5.05319">
        <ele>84.73</ele>
        <time>2013-12-07T15:54:49Z</time>
      </trkpt>
      <trkpt lat="44.05168" lon="5.05314">
        <ele>84.25</ele>
        <time>2013-12-07T15:54:50Z</time>
      </trkpt>
      <trkpt lat="44.05166" lon="5.05312">
        <ele>84.25</ele>
        <time>2013-12-07T15:54:51Z</time>
      </trkpt>
      <trkpt lat="44.05163" lon="5.0531">
        <ele>84.25</ele>
        <time>2013-12-07T15:54:52Z</time>
      </trkpt>
      <trkpt lat="44.0516" lon="5.0531">
        <ele>84.73</ele>
        <time>2013-12-07T15:54:53Z</time>
      </trkpt>
      <trkpt lat="44.05155" lon="5.05311">
        <ele>84.25</ele>
        <time>2013-12-07T15:54:54Z</time>
      </trkpt>
      <trkpt lat="44.0515" lon="5.05313">
        <ele>84.25</ele>
        <time>2013-12-07T15:54:55Z</time>
      </trkpt>
      <trkpt lat="44.05144" lon="5.05315">
        <ele>84.25</ele>
        <time>2013-12-07T15:54:56Z</time>
      </trkpt>
      <trkpt lat="44.05076" lon="5.05331">
        <ele>84.25</ele>
        <time>2013-12-07T15:55:04Z</time>
      </trkpt>
      <trkpt lat="44.04964" lon="5.05324">
        <ele>82.81</ele>
        <time>2013-12-07T15:55:13Z</time>
      </trkpt>
      <trkpt lat="44.04895" lon="5.05329">
        <ele>83.77</ele>
        <time>2013-12-07T15:55:21Z</time>
      </trkpt>
      <trkpt lat="44.04831" lon="5.05334">
        <ele>83.77</ele>
        <time>2013-12-07T15:55:26Z</time>
      </trkpt>
      <trkpt lat="44.04809" lon="5.05329">
        <ele>83.77</ele>
        <time>2013-12-07T15:55:28Z</time>
      </trkpt>
      <trkpt lat="44.04767" lon="5.05307">
        <ele>83.29</ele>
        <time>2013-12-07T15:55:32Z</time>
      </trkpt>
      <trkpt lat="44.04756" lon="5.05305">
        <ele>83.77</ele>
        <time>2013-12-07T15:55:33Z</time>
      </trkpt>
      <trkpt lat="44.04746" lon="5.05305">
        <ele>83.29</ele>
        <time>2013-12-07T15:55:34Z</time>
      </trkpt>
      <trkpt lat="44.04736" lon="5.05306">
        <ele>83.29</ele>
        <time>2013-12-07T15:55:35Z</time>
      </trkpt>
      <trkpt lat="44.04726" lon="5.0531">
        <ele>82.81</ele>
        <time>2013-12-07T15:55:36Z</time>
      </trkpt>
      <trkpt lat="44.04718" lon="5.05314">
        <ele>82.81</ele>
        <time>2013-12-07T15:55:37Z</time>
      </trkpt>
      <trkpt lat="44.04672" lon="5.05331">
        <ele>82.81</ele>
        <time>2013-12-07T15:55:44Z</time>
      </trkpt>
      <trkpt lat="44.046" lon="5.05321">
        <ele>83.77</ele>
        <time>2013-12-07T15:55:53Z</time>
      </trkpt>
      <trkpt lat="44.04507" lon="5.05338">
        <ele>82.81</ele>
        <time>2013-12-07T15:56:01Z</time>
      </trkpt>
      <trkpt lat="44.04442" lon="5.0536">
        <ele>83.29</ele>
        <time>2013-12-07T15:56:09Z</time>
      </trkpt>
      <trkpt lat="44.0433" lon="5.05395">
        <ele>84.25</ele>
        <time>2013-12-07T15:56:17Z</time>
      </trkpt>
      <trkpt lat="44.04149" lon="5.0549">
        <ele>85.21</ele>
        <time>2013-12-07T15:56:29Z</time>
      </trkpt>
      <trkpt lat="44.03949" lon="5.05586">
        <ele>86.66</ele>
        <time>2013-12-07T15:56:42Z</time>
      </trkpt>
      <trkpt lat="44.03788" lon="5.05633">
        <ele>86.66</ele>
        <time>2013-12-07T15:56:53Z</time>
      </trkpt>
      <trkpt lat="44.03762" lon="5.05639">
        <ele>86.66</ele>
        <time>2013-12-07T15:56:55Z</time>
      </trkpt>
      <trkpt lat="44.03749" lon="5.05644">
        <ele>87.14</ele>
        <time>2013-12-07T15:56:56Z</time>
      </trkpt>
      <trkpt lat="44.03574" lon="5.05729">
        <ele>88.1</ele>
        <time>2013-12-07T15:57:09Z</time>
      </trkpt>
      <trkpt lat="44.03428" lon="5.05812">
        <ele>88.58</ele>
        <time>2013-12-07T15:57:21Z</time>
      </trkpt>
      <trkpt lat="44.03405" lon="5.05823">
        <ele>88.58</ele>
        <time>2013-12-07T15:57:23Z</time>
      </trkpt>
      <trkpt lat="44.03393" lon="5.05825">
        <ele>88.58</ele>
        <time>2013-12-07T15:57:24Z</time>
      </trkpt>
      <trkpt lat="44.03275" lon="5.05807">
        <ele>89.54</ele>
        <time>2013-12-07T15:57:33Z</time>
      </trkpt>
      <trkpt lat="44.0318" lon="5.05779">
        <ele>88.1</ele>
        <time>2013-12-07T15:57:41Z</time>
      </trkpt>
      <trkpt lat="44.03172" lon="5.05773">
        <ele>88.1</ele>
        <time>2013-12-07T15:57:42Z</time>
      </trkpt>
      <trkpt lat="44.03167" lon="5.05766">
        <ele>88.58</ele>
        <time>2013-12-07T15:57:43Z</time>
      </trkpt>
      <trkpt lat="44.03164" lon="5.05756">
        <ele>88.58</ele>
        <time>2013-12-07T15:57:44Z</time>
      </trkpt>
      <trkpt lat="44.03162" lon="5.05745">
        <ele>88.58</ele>
        <time>2013-12-07T15:57:45Z</time>
      </trkpt>
      <trkpt lat="44.03163" lon="5.05734">
        <ele>89.06</ele>
        <time>2013-12-07T15:57:46Z</time>
      </trkpt>
      <trkpt lat="44.03164" lon="5.05721">
        <ele>89.06</ele>
        <time>2013-12-07T15:57:47Z</time>
      </trkpt>
      <trkpt lat="44.03167" lon="5.05707">
        <ele>89.06</ele>
        <time>2013-12-07T15:57:48Z</time>
      </trkpt>
      <trkpt lat="44.03189" lon="5.05564">
        <ele>88.1</ele>
        <time>2013-12-07T15:57:56Z</time>
      </trkpt>
      <trkpt lat="44.032" lon="5.0535">
        <ele>86.18</ele>
        <time>2013-12-07T15:58:06Z</time>
      </trkpt>
      <trkpt lat="44.03197" lon="5.05214">
        <ele>82.81</ele>
        <time>2013-12-07T15:58:14Z</time>
      </trkpt>
      <trkpt lat="44.03197" lon="5.05203">
        <ele>82.81</ele>
        <time>2013-12-07T15:58:15Z</time>
      </trkpt>
      <trkpt lat="44.03198" lon="5.05193">
        <ele>82.33</ele>
        <time>2013-12-07T15:58:16Z</time>
      </trkpt>
      <trkpt lat="44.03202" lon="5.05185">
        <ele>82.81</ele>
        <time>2013-12-07T15:58:17Z</time>
      </trkpt>
      <trkpt lat="44.03207" lon="5.05178">
        <ele>82.33</ele>
        <time>2013-12-07T15:58:18Z</time>
      </trkpt>
      <trkpt lat="44.03211" lon="5.0517">
        <ele>82.33</ele>
        <time>2013-12-07T15:58:19Z</time>
      </trkpt>
      <trkpt lat="44.03214" lon="5.05162">
        <ele>82.33</ele>
        <time>2013-12-07T15:58:20Z</time>
      </trkpt>
      <trkpt lat="44.03214" lon="5.05153">
        <ele>82.33</ele>
        <time>2013-12-07T15:58:21Z</time>
      </trkpt>
      <trkpt lat="44.03212" lon="5.05145">
        <ele>81.85</ele>
        <time>2013-12-07T15:58:22Z</time>
      </trkpt>
      <trkpt lat="44.03207" lon="5.05138">
        <ele>82.33</ele>
        <time>2013-12-07T15:58:23Z</time>
      </trkpt>
      <trkpt lat="44.03201" lon="5.05134">
        <ele>82.33</ele>
        <time>2013-12-07T15:58:24Z</time>
      </trkpt>
      <trkpt lat="44.03194" lon="5.05133">
        <ele>82.81</ele>
        <time>2013-12-07T15:58:25Z</time>
      </trkpt>
      <trkpt lat="44.03187" lon="5.05135">
        <ele>82.81</ele>
        <time>2013-12-07T15:58:26Z</time>
      </trkpt>
      <trkpt lat="44.03181" lon="5.05138">
        <ele>82.81</ele>
        <time>2013-12-07T15:58:27Z</time>
      </trkpt>
      <trkpt lat="44.03175" lon="5.05145">
        <ele>82.81</ele>
        <time>2013-12-07T15:58:28Z</time>
      </trkpt>
      <trkpt lat="44.0317" lon="5.05152">
        <ele>82.81</ele>
        <time>2013-12-07T15:58:29Z</time>
      </trkpt>
      <trkpt lat="44.03165" lon="5.05162">
        <ele>82.81</ele>
        <time>2013-12-07T15:58:30Z</time>
      </trkpt>
      <trkpt lat="44.03158" lon="5.0517">
        <ele>82.33</ele>
        <time>2013-12-07T15:58:31Z</time>
      </trkpt>
      <trkpt lat="44.0315" lon="5.05176">
        <ele>82.81</ele>
        <time>2013-12-07T15:58:32Z</time>
      </trkpt>
      <trkpt lat="44.03139" lon="5.0518">
        <ele>82.81</ele>
        <time>2013-12-07T15:58:33Z</time>
      </trkpt>
      <trkpt lat="44.03129" lon="5.05183">
        <ele>82.81</ele>
        <time>2013-12-07T15:58:34Z</time>
      </trkpt>
      <trkpt lat="44.03118" lon="5.05186">
        <ele>82.81</ele>
        <time>2013-12-07T15:58:35Z</time>
      </trkpt>
      <trkpt lat="44.03007" lon="5.05205">
        <ele>83.29</ele>
        <time>2013-12-07T15:58:43Z</time>
      </trkpt>
      <trkpt lat="44.028" lon="5.05223">
        <ele>84.25</ele>
        <time>2013-12-07T15:58:56Z</time>
      </trkpt>
      <trkpt lat="44.02627" lon="5.05222">
        <ele>83.77</ele>
        <time>2013-12-07T15:59:08Z</time>
      </trkpt>
      <trkpt lat="44.02503" lon="5.05214">
        <ele>82.81</ele>
        <time>2013-12-07T15:59:20Z</time>
      </trkpt>
      <trkpt lat="44.02464" lon="5.05208">
        <ele>82.81</ele>
        <time>2013-12-07T15:59:27Z</time>
      </trkpt>
      <trkpt lat="44.02459" lon="5.05206">
        <ele>82.81</ele>
        <time>2013-12-07T15:59:28Z</time>
      </trkpt>
      <trkpt lat="44.02455" lon="5.05201">
        <ele>83.29</ele>
        <time>2013-12-07T15:59:29Z</time>
      </trkpt>
      <trkpt lat="44.02444" lon="5.05192">
        <ele>82.81</ele>
        <time>2013-12-07T15:59:31Z</time>
      </trkpt>
      <trkpt lat="44.02437" lon="5.05191">
        <ele>83.29</ele>
        <time>2013-12-07T15:59:32Z</time>
      </trkpt>
      <trkpt lat="44.02431" lon="5.05193">
        <ele>82.81</ele>
        <time>2013-12-07T15:59:33Z</time>
      </trkpt>
      <trkpt lat="44.02424" lon="5.05198">
        <ele>83.29</ele>
        <time>2013-12-07T15:59:34Z</time>
      </trkpt>
      <trkpt lat="44.02418" lon="5.05202">
        <ele>82.81</ele>
        <time>2013-12-07T15:59:35Z</time>
      </trkpt>
      <trkpt lat="44.02411" lon="5.05204">
        <ele>83.29</ele>
        <time>2013-12-07T15:59:36Z</time>
      </trkpt>
      <trkpt lat="44.02403" lon="5.05203">
        <ele>82.81</ele>
        <time>2013-12-07T15:59:37Z</time>
      </trkpt>
      <trkpt lat="44.02396" lon="5.05202">
        <ele>83.29</ele>
        <time>2013-12-07T15:59:38Z</time>
      </trkpt>
      <trkpt lat="44.02303" lon="5.05188">
        <ele>83.77</ele>
        <time>2013-12-07T15:59:46Z</time>
      </trkpt>
      <trkpt lat="44.02142" lon="5.05162">
        <ele>84.25</ele>
        <time>2013-12-07T15:59:55Z</time>
      </trkpt>
      <trkpt lat="44.01933" lon="5.05144">
        <ele>83.29</ele>
        <time>2013-12-07T16:00:05Z</time>
      </trkpt>
      <trkpt lat="44.01574" lon="5.05135">
        <ele>81.85</ele>
        <time>2013-12-07T16:00:23Z</time>
      </trkpt>
      <trkpt lat="44.01352" lon="5.05117">
        <ele>80.89</ele>
        <time>2013-12-07T16:00:35Z</time>
      </trkpt>
      <trkpt lat="44.01127" lon="5.05078">
        <ele>78.97</ele>
        <time>2013-12-07T16:00:48Z</time>
      </trkpt>
      <trkpt lat="44.00993" lon="5.05049">
        <ele>77.04</ele>
        <time>2013-12-07T16:00:58Z</time>
      </trkpt>
      <trkpt lat="44.00972" lon="5.05045">
        <ele>76.56</ele>
        <time>2013-12-07T16:01:03Z</time>
      </trkpt>
      <trkpt lat="44.00962" lon="5.05039">
        <ele>77.04</ele>
        <time>2013-12-07T16:01:08Z</time>
      </trkpt>
      <trkpt lat="44.00954" lon="5.05031">
        <ele>77.04</ele>
        <time>2013-12-07T16:01:10Z</time>
      </trkpt>
      <trkpt lat="44.00948" lon="5.05029">
        <ele>77.04</ele>
        <time>2013-12-07T16:01:11Z</time>
      </trkpt>
      <trkpt lat="44.00943" lon="5.0503">
        <ele>77.04</ele>
        <time>2013-12-07T16:01:12Z</time>
      </trkpt>
      <trkpt lat="44.00937" lon="5.05034">
        <ele>76.56</ele>
        <time>2013-12-07T16:01:13Z</time>
      </trkpt>
      <trkpt lat="44.00933" lon="5.0504">
        <ele>77.04</ele>
        <time>2013-12-07T16:01:14Z</time>
      </trkpt>
      <trkpt lat="44.00932" lon="5.05048">
        <ele>76.56</ele>
        <time>2013-12-07T16:01:15Z</time>
      </trkpt>
      <trkpt lat="44.00932" lon="5.05058">
        <ele>76.56</ele>
        <time>2013-12-07T16:01:16Z</time>
      </trkpt>
      <trkpt lat="44.00932" lon="5.05067">
        <ele>76.56</ele>
        <time>2013-12-07T16:01:17Z</time>
      </trkpt>
      <trkpt lat="44.0093" lon="5.05075">
        <ele>77.04</ele>
        <time>2013-12-07T16:01:18Z</time>
      </trkpt>
      <trkpt lat="44.00926" lon="5.05082">
        <ele>77.52</ele>
        <time>2013-12-07T16:01:19Z</time>
      </trkpt>
      <trkpt lat="44.00921" lon="5.05089">
        <ele>77.52</ele>
        <time>2013-12-07T16:01:20Z</time>
      </trkpt>
      <trkpt lat="44.00915" lon="5.05096">
        <ele>78</ele>
        <time>2013-12-07T16:01:21Z</time>
      </trkpt>
      <trkpt lat="44.00854" lon="5.05163">
        <ele>78.48</ele>
        <time>2013-12-07T16:01:29Z</time>
      </trkpt>
      <trkpt lat="44.00836" lon="5.05187">
        <ele>78.48</ele>
        <time>2013-12-07T16:01:32Z</time>
      </trkpt>
      <trkpt lat="44.00786" lon="5.05271">
        <ele>79.93</ele>
        <time>2013-12-07T16:01:41Z</time>
      </trkpt>
      <trkpt lat="44.00699" lon="5.05402">
        <ele>80.41</ele>
        <time>2013-12-07T16:01:51Z</time>
      </trkpt>
      <trkpt lat="44.00653" lon="5.0546">
        <ele>80.89</ele>
        <time>2013-12-07T16:01:59Z</time>
      </trkpt>
      <trkpt lat="44.00598" lon="5.05522">
        <ele>80.89</ele>
        <time>2013-12-07T16:02:08Z</time>
      </trkpt>
      <trkpt lat="44.0059" lon="5.05527">
        <ele>80.41</ele>
        <time>2013-12-07T16:02:09Z</time>
      </trkpt>
      <trkpt lat="44.00532" lon="5.05556">
        <ele>80.41</ele>
        <time>2013-12-07T16:02:16Z</time>
      </trkpt>
      <trkpt lat="44.00465" lon="5.05601">
        <ele>80.41</ele>
        <time>2013-12-07T16:02:26Z</time>
      </trkpt>
      <trkpt lat="44.0046" lon="5.05605">
        <ele>79.93</ele>
        <time>2013-12-07T16:02:27Z</time>
      </trkpt>
      <trkpt lat="44.00456" lon="5.0561">
        <ele>79.93</ele>
        <time>2013-12-07T16:02:28Z</time>
      </trkpt>
      <trkpt lat="44.00455" lon="5.05613">
        <ele>79.93</ele>
        <time>2013-12-07T16:02:29Z</time>
      </trkpt>
      <trkpt lat="44.00455" lon="5.05616">
        <ele>79.93</ele>
        <time>2013-12-07T16:02:30Z</time>
      </trkpt>
      <trkpt lat="44.00456" lon="5.05618">
        <ele>80.41</ele>
        <time>2013-12-07T16:02:40Z</time>
      </trkpt>
      <trkpt lat="44.00458" lon="5.05619">
        <ele>79.93</ele>
        <time>2013-12-07T16:02:41Z</time>
      </trkpt>
      <trkpt lat="44.00464" lon="5.0562">
        <ele>80.41</ele>
        <time>2013-12-07T16:02:42Z</time>
      </trkpt>
      <trkpt lat="44.0047" lon="5.05619">
        <ele>79.45</ele>
        <time>2013-12-07T16:02:43Z</time>
      </trkpt>
      <trkpt lat="44.00476" lon="5.05619">
        <ele>79.93</ele>
        <time>2013-12-07T16:02:44Z</time>
      </trkpt>
      <trkpt lat="44.00554" lon="5.05618">
        <ele>81.37</ele>
        <time>2013-12-07T16:02:53Z</time>
      </trkpt>
      <trkpt lat="44.00665" lon="5.05597">
        <ele>80.89</ele>
        <time>2013-12-07T16:03:04Z</time>
      </trkpt>
      <trkpt lat="44.00756" lon="5.05565">
        <ele>81.37</ele>
        <time>2013-12-07T16:03:15Z</time>
      </trkpt>
      <trkpt lat="44.00786" lon="5.05555">
        <ele>80.89</ele>
        <time>2013-12-07T16:03:19Z</time>
      </trkpt>
      <trkpt lat="44.00791" lon="5.05558">
        <ele>81.37</ele>
        <time>2013-12-07T16:03:20Z</time>
      </trkpt>
      <trkpt lat="44.00794" lon="5.05563">
        <ele>81.37</ele>
        <time>2013-12-07T16:03:21Z</time>
      </trkpt>
      <trkpt lat="44.00796" lon="5.05569">
        <ele>81.37</ele>
        <time>2013-12-07T16:03:22Z</time>
      </trkpt>
      <trkpt lat="44.00798" lon="5.05577">
        <ele>81.85</ele>
        <time>2013-12-07T16:03:23Z</time>
      </trkpt>
      <trkpt lat="44.00799" lon="5.05585">
        <ele>81.37</ele>
        <time>2013-12-07T16:03:24Z</time>
      </trkpt>
      <trkpt lat="44.00806" lon="5.05624">
        <ele>81.85</ele>
        <time>2013-12-07T16:03:33Z</time>
      </trkpt>
      <trkpt lat="44.00806" lon="5.05625">
        <ele>82.81</ele>
        <time>2013-12-07T16:03:54Z</time>
      </trkpt>
      <trkpt lat="44.00806" lon="5.05625">
        <ele>82.33</ele>
        <time>2013-12-07T16:04:28Z</time>
      </trkpt>
      <trkpt lat="44.00806" lon="5.05625">
        <ele>82.33</ele>
        <time>2013-12-07T16:04:30Z</time>
      </trkpt>
      <trkpt lat="44.00806" lon="5.05623">
        <ele>81.37</ele>
        <time>2013-12-07T16:04:31Z</time>
      </trkpt>
      <trkpt lat="44.00806" lon="5.0562">
        <ele>81.37</ele>
        <time>2013-12-07T16:04:32Z</time>
      </trkpt>
      <trkpt lat="44.00806" lon="5.05618">
        <ele>81.37</ele>
        <time>2013-12-07T16:04:33Z</time>
      </trkpt>
      <trkpt lat="44.00802" lon="5.05605">
        <ele>81.37</ele>
        <time>2013-12-07T16:04:37Z</time>
      </trkpt>
      <trkpt lat="44.00798" lon="5.05602">
        <ele>81.37</ele>
        <time>2013-12-07T16:04:41Z</time>
      </trkpt>
      <trkpt lat="44.008" lon="5.05593">
        <ele>81.85</ele>
        <time>2013-12-07T16:04:44Z</time>
      </trkpt>
      <trkpt lat="44.008" lon="5.05587">
        <ele>81.37</ele>
        <time>2013-12-07T16:04:45Z</time>
      </trkpt>
      <trkpt lat="44.00799" lon="5.0558">
        <ele>81.37</ele>
        <time>2013-12-07T16:04:46Z</time>
      </trkpt>
      <trkpt lat="44.00797" lon="5.05574">
        <ele>81.85</ele>
        <time>2013-12-07T16:04:47Z</time>
      </trkpt>
      <trkpt lat="44.00796" lon="5.05567">
        <ele>81.37</ele>
        <time>2013-12-07T16:04:48Z</time>
      </trkpt>
      <trkpt lat="44.00789" lon="5.05555">
        <ele>80.89</ele>
        <time>2013-12-07T16:04:52Z</time>
      </trkpt>
      <trkpt lat="44.00786" lon="5.05554">
        <ele>80.89</ele>
        <time>2013-12-07T16:04:53Z</time>
      </trkpt>
      <trkpt lat="44.00782" lon="5.05555">
        <ele>80.89</ele>
        <time>2013-12-07T16:04:54Z</time>
      </trkpt>
      <trkpt lat="44.00777" lon="5.05556">
        <ele>80.89</ele>
        <time>2013-12-07T16:04:55Z</time>
      </trkpt>
      <trkpt lat="44.00771" lon="5.05559">
        <ele>80.89</ele>
        <time>2013-12-07T16:04:56Z</time>
      </trkpt>
      <trkpt lat="44.00708" lon="5.05579">
        <ele>80.89</ele>
        <time>2013-12-07T16:05:03Z</time>
      </trkpt>
      <trkpt lat="44.00647" lon="5.05599">
        <ele>80.41</ele>
        <time>2013-12-07T16:05:12Z</time>
      </trkpt>
      <trkpt lat="44.00566" lon="5.05617">
        <ele>81.37</ele>
        <time>2013-12-07T16:05:20Z</time>
      </trkpt>
      <trkpt lat="44.00501" lon="5.05621">
        <ele>79.93</ele>
        <time>2013-12-07T16:05:25Z</time>
      </trkpt>
      <trkpt lat="44.00467" lon="5.05623">
        <ele>79.93</ele>
        <time>2013-12-07T16:05:31Z</time>
      </trkpt>
      <trkpt lat="44.00453" lon="5.05625">
        <ele>79.45</ele>
        <time>2013-12-07T16:05:34Z</time>
      </trkpt>
      <trkpt lat="44.00401" lon="5.05641">
        <ele>80.41</ele>
        <time>2013-12-07T16:05:40Z</time>
      </trkpt>
      <trkpt lat="44.00389" lon="5.05647">
        <ele>80.41</ele>
        <time>2013-12-07T16:05:41Z</time>
      </trkpt>
      <trkpt lat="44.00375" lon="5.05655">
        <ele>80.89</ele>
        <time>2013-12-07T16:05:42Z</time>
      </trkpt>
      <trkpt lat="44.00232" lon="5.05747">
        <ele>80.41</ele>
        <time>2013-12-07T16:05:52Z</time>
      </trkpt>
      <trkpt lat="44.00196" lon="5.05768">
        <ele>79.45</ele>
        <time>2013-12-07T16:05:57Z</time>
      </trkpt>
      <trkpt lat="44.00126" lon="5.05811">
        <ele>79.45</ele>
        <time>2013-12-07T16:06:06Z</time>
      </trkpt>
      <trkpt lat="44.0008" lon="5.0584">
        <ele>79.45</ele>
        <time>2013-12-07T16:06:17Z</time>
      </trkpt>
      <trkpt lat="44.00076" lon="5.05841">
        <ele>79.45</ele>
        <time>2013-12-07T16:06:24Z</time>
      </trkpt>
      <trkpt lat="44.00074" lon="5.05842">
        <ele>79.93</ele>
        <time>2013-12-07T16:06:25Z</time>
      </trkpt>
      <trkpt lat="44.00066" lon="5.05845">
        <ele>78.97</ele>
        <time>2013-12-07T16:06:27Z</time>
      </trkpt>
      <trkpt lat="44.00051" lon="5.05854">
        <ele>79.45</ele>
        <time>2013-12-07T16:06:30Z</time>
      </trkpt>
      <trkpt lat="44.00047" lon="5.05855">
        <ele>78.97</ele>
        <time>2013-12-07T16:06:31Z</time>
      </trkpt>
      <trkpt lat="44.00043" lon="5.05852">
        <ele>79.45</ele>
        <time>2013-12-07T16:06:32Z</time>
      </trkpt>
      <trkpt lat="44.0004" lon="5.05848">
        <ele>79.45</ele>
        <time>2013-12-07T16:06:33Z</time>
      </trkpt>
      <trkpt lat="44.0004" lon="5.05844">
        <ele>78.97</ele>
        <time>2013-12-07T16:06:34Z</time>
      </trkpt>
      <trkpt lat="44.0004" lon="5.0584">
        <ele>78.97</ele>
        <time>2013-12-07T16:06:35Z</time>
      </trkpt>
      <trkpt lat="44.00042" lon="5.05837">
        <ele>78.97</ele>
        <time>2013-12-07T16:06:36Z</time>
      </trkpt>
      <trkpt lat="44.00044" lon="5.05835">
        <ele>78.97</ele>
        <time>2013-12-07T16:06:37Z</time>
      </trkpt>
      <trkpt lat="44.00046" lon="5.05833">
        <ele>78.97</ele>
        <time>2013-12-07T16:06:38Z</time>
      </trkpt>
      <trkpt lat="44.00048" lon="5.0583">
        <ele>78.97</ele>
        <time>2013-12-07T16:06:39Z</time>
      </trkpt>
      <trkpt lat="44.00051" lon="5.05826">
        <ele>79.45</ele>
        <time>2013-12-07T16:06:49Z</time>
      </trkpt>
      <trkpt lat="44.00051" lon="5.05826">
        <ele>79.45</ele>
        <time>2013-12-07T16:07:16Z</time>
      </trkpt>
      <trkpt lat="44.00051" lon="5.05825">
        <ele>78.97</ele>
        <time>2013-12-07T16:07:46Z</time>
      </trkpt>
      <trkpt lat="44.00051" lon="5.05825">
        <ele>79.45</ele>
        <time>2013-12-07T16:08:11Z</time>
      </trkpt>
      <trkpt lat="44.00051" lon="5.05825">
        <ele>78.97</ele>
        <time>2013-12-07T16:08:38Z</time>
      </trkpt>
      <trkpt lat="44.00051" lon="5.05825">
        <ele>79.45</ele>
        <time>2013-12-07T16:09:02Z</time>
      </trkpt>
      <trkpt lat="44.00051" lon="5.05825">
        <ele>79.45</ele>
        <time>2013-12-07T16:09:31Z</time>
      </trkpt>
      <trkpt lat="44.00051" lon="5.05825">
        <ele>79.93</ele>
        <time>2013-12-07T16:10:00Z</time>
      </trkpt>
      <trkpt lat="44.00051" lon="5.05825">
        <ele>79.93</ele>
        <time>2013-12-07T16:10:25Z</time>
      </trkpt>
      <trkpt lat="44.00051" lon="5.05825">
        <ele>79.45</ele>
        <time>2013-12-07T16:10:51Z</time>
      </trkpt>
      <trkpt lat="44.00051" lon="5.05825">
        <ele>80.41</ele>
        <time>2013-12-07T16:11:17Z</time>
      </trkpt>
      <trkpt lat="44.00051" lon="5.05824">
        <ele>79.93</ele>
        <time>2013-12-07T16:11:44Z</time>
      </trkpt>
      <trkpt lat="44.00051" lon="5.05824">
        <ele>79.93</ele>
        <time>2013-12-07T16:12:07Z</time>
      </trkpt>
      <trkpt lat="44.00051" lon="5.05824">
        <ele>79.45</ele>
        <time>2013-12-07T16:12:32Z</time>
      </trkpt>
      <trkpt lat="44.00051" lon="5.05824">
        <ele>78.97</ele>
        <time>2013-12-07T16:12:58Z</time>
      </trkpt>
      <trkpt lat="44.00051" lon="5.05824">
        <ele>79.45</ele>
        <time>2013-12-07T16:13:24Z</time>
      </trkpt>
      <trkpt lat="44.00051" lon="5.05824">
        <ele>79.45</ele>
        <time>2013-12-07T16:13:48Z</time>
      </trkpt>
      <trkpt lat="44.00052" lon="5.05824">
        <ele>79.45</ele>
        <time>2013-12-07T16:14:14Z</time>
      </trkpt>
      <trkpt lat="44.00052" lon="5.05824">
        <ele>79.93</ele>
        <time>2013-12-07T16:14:45Z</time>
      </trkpt>
      <trkpt lat="44.00052" lon="5.05824">
        <ele>79.93</ele>
        <time>2013-12-07T16:15:18Z</time>
      </trkpt>
      <trkpt lat="44.00053" lon="5.05824">
        <ele>79.45</ele>
        <time>2013-12-07T16:15:46Z</time>
      </trkpt>
      <trkpt lat="44.00053" lon="5.05824">
        <ele>79.45</ele>
        <time>2013-12-07T16:16:20Z</time>
      </trkpt>
      <trkpt lat="44.00053" lon="5.05824">
        <ele>79.45</ele>
        <time>2013-12-07T16:16:48Z</time>
      </trkpt>
      <trkpt lat="44.00053" lon="5.05824">
        <ele>79.45</ele>
        <time>2013-12-07T16:17:19Z</time>
      </trkpt>
      <trkpt lat="44.00053" lon="5.05824">
        <ele>79.93</ele>
        <time>2013-12-07T16:17:53Z</time>
      </trkpt>
      <trkpt lat="44.00054" lon="5.05823">
        <ele>79.93</ele>
        <time>2013-12-07T16:18:27Z</time>
      </trkpt>
      <trkpt lat="44.00054" lon="5.05823">
        <ele>79.93</ele>
        <time>2013-12-07T16:18:58Z</time>
      </trkpt>
      <trkpt lat="44.00054" lon="5.05823">
        <ele>79.93</ele>
        <time>2013-12-07T16:19:29Z</time>
      </trkpt>
      <trkpt lat="44.00054" lon="5.05823">
        <ele>79.93</ele>
        <time>2013-12-07T16:20:02Z</time>
      </trkpt>
      <trkpt lat="44.00055" lon="5.05822">
        <ele>79.93</ele>
        <time>2013-12-07T16:20:31Z</time>
      </trkpt>
      <trkpt lat="44.00055" lon="5.05822">
        <ele>80.41</ele>
        <time>2013-12-07T16:20:56Z</time>
      </trkpt>
      <trkpt lat="44.00055" lon="5.05822">
        <ele>79.93</ele>
        <time>2013-12-07T16:21:21Z</time>
      </trkpt>
      <trkpt lat="44.00055" lon="5.05823">
        <ele>80.41</ele>
        <time>2013-12-07T16:21:47Z</time>
      </trkpt>
      <trkpt lat="44.00055" lon="5.05823">
        <ele>80.41</ele>
        <time>2013-12-07T16:22:21Z</time>
      </trkpt>
      <trkpt lat="44.00055" lon="5.05823">
        <ele>80.41</ele>
        <time>2013-12-07T16:22:53Z</time>
      </trkpt>
      <trkpt lat="44.00055" lon="5.05824">
        <ele>80.41</ele>
        <time>2013-12-07T16:23:24Z</time>
      </trkpt>
      <trkpt lat="44.00055" lon="5.05824">
        <ele>80.41</ele>
        <time>2013-12-07T16:23:54Z</time>
      </trkpt>
      <trkpt lat="44.00055" lon="5.05824">
        <ele>80.41</ele>
        <time>2013-12-07T16:24:26Z</time>
      </trkpt>
      <trkpt lat="44.00055" lon="5.05824">
        <ele>80.41</ele>
        <time>2013-12-07T16:24:56Z</time>
      </trkpt>
      <trkpt lat="44.00055" lon="5.05823">
        <ele>79.93</ele>
        <time>2013-12-07T16:25:29Z</time>
      </trkpt>
      <trkpt lat="44.00055" lon="5.05823">
        <ele>80.41</ele>
        <time>2013-12-07T16:26:01Z</time>
      </trkpt>
      <trkpt lat="44.00052" lon="5.05829">
        <ele>79.45</ele>
        <time>2013-12-07T16:26:07Z</time>
      </trkpt>
      <trkpt lat="44.00051" lon="5.0583">
        <ele>79.93</ele>
        <time>2013-12-07T16:26:08Z</time>
      </trkpt>
      <trkpt lat="44.00048" lon="5.05835">
        <ele>79.93</ele>
        <time>2013-12-07T16:26:13Z</time>
      </trkpt>
      <trkpt lat="44.00046" lon="5.05841">
        <ele>80.41</ele>
        <time>2013-12-07T16:26:26Z</time>
      </trkpt>
      <trkpt lat="44.00045" lon="5.05843">
        <ele>79.93</ele>
        <time>2013-12-07T16:26:34Z</time>
      </trkpt>
      <trkpt lat="44.00049" lon="5.05852">
        <ele>80.41</ele>
        <time>2013-12-07T16:26:36Z</time>
      </trkpt>
      <trkpt lat="44.00054" lon="5.05865">
        <ele>80.41</ele>
        <time>2013-12-07T16:26:38Z</time>
      </trkpt>
      <trkpt lat="44.00094" lon="5.05937">
        <ele>81.85</ele>
        <time>2013-12-07T16:26:45Z</time>
      </trkpt>
      <trkpt lat="44.00154" lon="5.06038">
        <ele>82.33</ele>
        <time>2013-12-07T16:26:54Z</time>
      </trkpt>
      <trkpt lat="44.00164" lon="5.06055">
        <ele>82.33</ele>
        <time>2013-12-07T16:26:57Z</time>
      </trkpt>
      <trkpt lat="44.00163" lon="5.06062">
        <ele>82.33</ele>
        <time>2013-12-07T16:26:58Z</time>
      </trkpt>
      <trkpt lat="44.0016" lon="5.06067">
        <ele>82.81</ele>
        <time>2013-12-07T16:26:59Z</time>
      </trkpt>
      <trkpt lat="44.00154" lon="5.06072">
        <ele>82.81</ele>
        <time>2013-12-07T16:27:00Z</time>
      </trkpt>
      <trkpt lat="44.00147" lon="5.06077">
        <ele>83.29</ele>
        <time>2013-12-07T16:27:01Z</time>
      </trkpt>
      <trkpt lat="44.00077" lon="5.06125">
        <ele>82.33</ele>
        <time>2013-12-07T16:27:10Z</time>
      </trkpt>
      <trkpt lat="44" lon="5.06176">
        <ele>82.81</ele>
        <time>2013-12-07T16:27:17Z</time>
      </trkpt>
      <trkpt lat="43.99973" lon="5.0619">
        <ele>81.85</ele>
        <time>2013-12-07T16:27:19Z</time>
      </trkpt>
      <trkpt lat="43.9996" lon="5.06194">
        <ele>81.85</ele>
        <time>2013-12-07T16:27:20Z</time>
      </trkpt>
      <trkpt lat="43.99883" lon="5.06209">
        <ele>81.85</ele>
        <time>2013-12-07T16:27:27Z</time>
      </trkpt>
      <trkpt lat="43.99836" lon="5.06219">
        <ele>82.81</ele>
        <time>2013-12-07T16:27:35Z</time>
      </trkpt>
      <trkpt lat="43.99794" lon="5.06226">
        <ele>83.77</ele>
        <time>2013-12-07T16:27:40Z</time>
      </trkpt>
      <trkpt lat="43.99785" lon="5.06226">
        <ele>83.77</ele>
        <time>2013-12-07T16:27:41Z</time>
      </trkpt>
      <trkpt lat="43.99776" lon="5.06224">
        <ele>84.73</ele>
        <time>2013-12-07T16:27:42Z</time>
      </trkpt>
      <trkpt lat="43.99762" lon="5.06219">
        <ele>84.73</ele>
        <time>2013-12-07T16:27:44Z</time>
      </trkpt>
      <trkpt lat="43.99756" lon="5.06217">
        <ele>84.73</ele>
        <time>2013-12-07T16:27:45Z</time>
      </trkpt>
      <trkpt lat="43.99742" lon="5.06208">
        <ele>86.18</ele>
        <time>2013-12-07T16:27:52Z</time>
      </trkpt>
      <trkpt lat="43.99741" lon="5.06208">
        <ele>86.18</ele>
        <time>2013-12-07T16:27:53Z</time>
      </trkpt>
      <trkpt lat="43.99734" lon="5.062">
        <ele>86.66</ele>
        <time>2013-12-07T16:27:56Z</time>
      </trkpt>
      <trkpt lat="43.9973" lon="5.06194">
        <ele>87.14</ele>
        <time>2013-12-07T16:27:57Z</time>
      </trkpt>
      <trkpt lat="43.99727" lon="5.06188">
        <ele>87.14</ele>
        <time>2013-12-07T16:27:58Z</time>
      </trkpt>
      <trkpt lat="43.99718" lon="5.06171">
        <ele>88.1</ele>
        <time>2013-12-07T16:28:00Z</time>
      </trkpt>
      <trkpt lat="43.997" lon="5.06121">
        <ele>89.54</ele>
        <time>2013-12-07T16:28:05Z</time>
      </trkpt>
      <trkpt lat="43.99696" lon="5.06106">
        <ele>90.02</ele>
        <time>2013-12-07T16:28:07Z</time>
      </trkpt>
      <trkpt lat="43.99695" lon="5.06098">
        <ele>90.5</ele>
        <time>2013-12-07T16:28:08Z</time>
      </trkpt>
      <trkpt lat="43.99688" lon="5.06051">
        <ele>91.46</ele>
        <time>2013-12-07T16:28:14Z</time>
      </trkpt>
      <trkpt lat="43.99685" lon="5.06046">
        <ele>91.46</ele>
        <time>2013-12-07T16:28:15Z</time>
      </trkpt>
      <trkpt lat="43.99682" lon="5.06044">
        <ele>90.98</ele>
        <time>2013-12-07T16:28:16Z</time>
      </trkpt>
      <trkpt lat="43.99679" lon="5.06044">
        <ele>90.98</ele>
        <time>2013-12-07T16:28:17Z</time>
      </trkpt>
      <trkpt lat="43.99676" lon="5.06046">
        <ele>91.94</ele>
        <time>2013-12-07T16:28:18Z</time>
      </trkpt>
      <trkpt lat="43.99675" lon="5.06048">
        <ele>91.94</ele>
        <time>2013-12-07T16:28:19Z</time>
      </trkpt>
      <trkpt lat="43.99676" lon="5.06056">
        <ele>93.39</ele>
        <time>2013-12-07T16:28:30Z</time>
      </trkpt>
      <trkpt lat="43.99676" lon="5.06058">
        <ele>93.39</ele>
        <time>2013-12-07T16:28:31Z</time>
      </trkpt>
      <trkpt lat="43.99676" lon="5.06062">
        <ele>92.9</ele>
        <time>2013-12-07T16:28:32Z</time>
      </trkpt>
      <trkpt lat="43.99675" lon="5.06066">
        <ele>93.39</ele>
        <time>2013-12-07T16:28:33Z</time>
      </trkpt>
      <trkpt lat="43.99673" lon="5.06069">
        <ele>93.39</ele>
        <time>2013-12-07T16:28:34Z</time>
      </trkpt>
      <trkpt lat="43.99671" lon="5.06071">
        <ele>93.87</ele>
        <time>2013-12-07T16:28:35Z</time>
      </trkpt>
      <trkpt lat="43.99669" lon="5.06072">
        <ele>93.39</ele>
        <time>2013-12-07T16:28:36Z</time>
      </trkpt>
      <trkpt lat="43.99666" lon="5.06076">
        <ele>93.39</ele>
        <time>2013-12-07T16:28:38Z</time>
      </trkpt>
      <trkpt lat="43.99666" lon="5.06079">
        <ele>94.35</ele>
        <time>2013-12-07T16:28:51Z</time>
      </trkpt>
      <trkpt lat="43.99666" lon="5.06078">
        <ele>93.87</ele>
        <time>2013-12-07T16:29:25Z</time>
      </trkpt>
      <trkpt lat="43.99666" lon="5.06081">
        <ele>93.87</ele>
        <time>2013-12-07T16:29:51Z</time>
      </trkpt>
      <trkpt lat="43.99666" lon="5.06084">
        <ele>93.39</ele>
        <time>2013-12-07T16:29:58Z</time>
      </trkpt>
      <trkpt lat="43.99666" lon="5.06084">
        <ele>97.23</ele>
        <time>2013-12-07T16:29:59Z</time>
      </trkpt>
      <trkpt lat="43.99666" lon="5.06084">
        <ele>89.54</ele>
        <time>2013-12-07T16:30:00Z</time>
      </trkpt>
      <trkpt lat="43.99666" lon="5.06084">
        <ele>94.35</ele>
        <time>2013-12-07T16:30:01Z</time>
      </trkpt>
      <trkpt lat="43.99667" lon="5.06083">
        <ele>85.69</ele>
        <time>2013-12-07T16:30:04Z</time>
      </trkpt>
      <trkpt lat="43.99667" lon="5.06083">
        <ele>94.35</ele>
        <time>2013-12-07T16:30:05Z</time>
      </trkpt>
    </trkseg>
  </trk>
</gpx>